<?xml version="1.0" encoding="UTF-8" ?>
<gpx version="1.1" xmlns:xsi="http://www.w3.org/2001/XMLSchema-instance"
    xmlns="http://www.topografix.com/GPX/1/1"
    xsi:schemaLocation="http://www.topografix.com/GPX/1/1 http://www.topografix.com/GPX/1/1/gpx.xsd"
    creator="Openrunner - https://www.openrunner.com" >	<trk>
	                   <name>Cyclo-Villepreusienne 78km-2026--23038530</name>
						<trkseg>
					<trkpt lat="48.830440" lon="2.000800">
						<ele>113</ele>
						<time>2026-04-14T07:15:37Z</time>
					</trkpt>
					<trkpt lat="48.830440" lon="2.000810">
						<ele>113</ele>
						<time>2026-04-14T07:15:37Z</time>
					</trkpt>
					<trkpt lat="48.830350" lon="2.000930">
						<ele>112</ele>
						<time>2026-04-14T07:15:39Z</time>
					</trkpt>
					<trkpt lat="48.830250" lon="2.001120">
						<ele>112</ele>
						<time>2026-04-14T07:15:42Z</time>
					</trkpt>
					<trkpt lat="48.830190" lon="2.001340">
						<ele>112</ele>
						<time>2026-04-14T07:15:45Z</time>
					</trkpt>
					<trkpt lat="48.830240" lon="2.001890">
						<ele>111</ele>
						<time>2026-04-14T07:15:51Z</time>
					</trkpt>
					<trkpt lat="48.830270" lon="2.002400">
						<ele>111</ele>
						<time>2026-04-14T07:15:57Z</time>
					</trkpt>
					<trkpt lat="48.830280" lon="2.002570">
						<ele>111</ele>
						<time>2026-04-14T07:15:59Z</time>
					</trkpt>
					<trkpt lat="48.830310" lon="2.002870">
						<ele>111</ele>
						<time>2026-04-14T07:16:03Z</time>
					</trkpt>
					<trkpt lat="48.830380" lon="2.003670">
						<ele>109</ele>
						<time>2026-04-14T07:16:12Z</time>
					</trkpt>
					<trkpt lat="48.830430" lon="2.004020">
						<ele>109</ele>
						<time>2026-04-14T07:16:17Z</time>
					</trkpt>
					<trkpt lat="48.830520" lon="2.004530">
						<ele>107</ele>
						<time>2026-04-14T07:16:23Z</time>
					</trkpt>
					<trkpt lat="48.830540" lon="2.004630">
						<ele>107</ele>
						<time>2026-04-14T07:16:24Z</time>
					</trkpt>
					<trkpt lat="48.830570" lon="2.004830">
						<ele>107</ele>
						<time>2026-04-14T07:16:26Z</time>
					</trkpt>
					<trkpt lat="48.830590" lon="2.004980">
						<ele>107</ele>
						<time>2026-04-14T07:16:28Z</time>
					</trkpt>
					<trkpt lat="48.830620" lon="2.005110">
						<ele>106</ele>
						<time>2026-04-14T07:16:30Z</time>
					</trkpt>
					<trkpt lat="48.830650" lon="2.005330">
						<ele>106</ele>
						<time>2026-04-14T07:16:32Z</time>
					</trkpt>
					<trkpt lat="48.830920" lon="2.006300">
						<ele>105</ele>
						<time>2026-04-14T07:16:45Z</time>
					</trkpt>
					<trkpt lat="48.831150" lon="2.006740">
						<ele>105</ele>
						<time>2026-04-14T07:16:51Z</time>
					</trkpt>
					<trkpt lat="48.831510" lon="2.007420">
						<ele>105</ele>
						<time>2026-04-14T07:17:02Z</time>
					</trkpt>
					<trkpt lat="48.832050" lon="2.008200">
						<ele>106</ele>
						<time>2026-04-14T07:17:15Z</time>
					</trkpt>
					<trkpt lat="48.832320" lon="2.008570">
						<ele>105</ele>
						<time>2026-04-14T07:17:21Z</time>
					</trkpt>
					<trkpt lat="48.832600" lon="2.008860">
						<ele>105</ele>
						<time>2026-04-14T07:17:27Z</time>
					</trkpt>
					<trkpt lat="48.832680" lon="2.008930">
						<ele>105</ele>
						<time>2026-04-14T07:17:29Z</time>
					</trkpt>
					<trkpt lat="48.832760" lon="2.009020">
						<ele>105</ele>
						<time>2026-04-14T07:17:31Z</time>
					</trkpt>
					<trkpt lat="48.833200" lon="2.009440">
						<ele>104</ele>
						<time>2026-04-14T07:17:40Z</time>
					</trkpt>
					<trkpt lat="48.833220" lon="2.009460">
						<ele>104</ele>
						<time>2026-04-14T07:17:40Z</time>
					</trkpt>
					<trkpt lat="48.833430" lon="2.009860">
						<ele>102</ele>
						<time>2026-04-14T07:17:46Z</time>
					</trkpt>
					<trkpt lat="48.833660" lon="2.010290">
						<ele>99</ele>
						<time>2026-04-14T07:17:53Z</time>
					</trkpt>
					<trkpt lat="48.833840" lon="2.010840">
						<ele>96</ele>
						<time>2026-04-14T07:18:00Z</time>
					</trkpt>
					<trkpt lat="48.833900" lon="2.010990">
						<ele>95</ele>
						<time>2026-04-14T07:18:02Z</time>
					</trkpt>
					<trkpt lat="48.833960" lon="2.011180">
						<ele>95</ele>
						<time>2026-04-14T07:18:05Z</time>
					</trkpt>
					<trkpt lat="48.833860" lon="2.011400">
						<ele>94</ele>
						<time>2026-04-14T07:18:08Z</time>
					</trkpt>
					<trkpt lat="48.833900" lon="2.011970">
						<ele>93</ele>
						<time>2026-04-14T07:18:14Z</time>
					</trkpt>
					<trkpt lat="48.833900" lon="2.012030">
						<ele>93</ele>
						<time>2026-04-14T07:18:15Z</time>
					</trkpt>
					<trkpt lat="48.833920" lon="2.012140">
						<ele>93</ele>
						<time>2026-04-14T07:18:17Z</time>
					</trkpt>
					<trkpt lat="48.833960" lon="2.012200">
						<ele>93</ele>
						<time>2026-04-14T07:18:18Z</time>
					</trkpt>
					<trkpt lat="48.834420" lon="2.012860">
						<ele>91</ele>
						<time>2026-04-14T07:18:29Z</time>
					</trkpt>
					<trkpt lat="48.834460" lon="2.012920">
						<ele>90</ele>
						<time>2026-04-14T07:18:30Z</time>
					</trkpt>
					<trkpt lat="48.834540" lon="2.012800">
						<ele>90</ele>
						<time>2026-04-14T07:18:32Z</time>
					</trkpt>
					<trkpt lat="48.834580" lon="2.012730">
						<ele>90</ele>
						<time>2026-04-14T07:18:33Z</time>
					</trkpt>
					<trkpt lat="48.834740" lon="2.012450">
						<ele>90</ele>
						<time>2026-04-14T07:18:37Z</time>
					</trkpt>
					<trkpt lat="48.834790" lon="2.012360">
						<ele>90</ele>
						<time>2026-04-14T07:18:39Z</time>
					</trkpt>
					<trkpt lat="48.834830" lon="2.012310">
						<ele>90</ele>
						<time>2026-04-14T07:18:39Z</time>
					</trkpt>
					<trkpt lat="48.834970" lon="2.012120">
						<ele>90</ele>
						<time>2026-04-14T07:18:43Z</time>
					</trkpt>
					<trkpt lat="48.835170" lon="2.011860">
						<ele>90</ele>
						<time>2026-04-14T07:18:48Z</time>
					</trkpt>
					<trkpt lat="48.835540" lon="2.011520">
						<ele>90</ele>
						<time>2026-04-14T07:18:55Z</time>
					</trkpt>
					<trkpt lat="48.835680" lon="2.011420">
						<ele>90</ele>
						<time>2026-04-14T07:18:58Z</time>
					</trkpt>
					<trkpt lat="48.835770" lon="2.011410">
						<ele>89</ele>
						<time>2026-04-14T07:19:00Z</time>
					</trkpt>
					<trkpt lat="48.836390" lon="2.011560">
						<ele>89</ele>
						<time>2026-04-14T07:19:11Z</time>
					</trkpt>
					<trkpt lat="48.836400" lon="2.011560">
						<ele>89</ele>
						<time>2026-04-14T07:19:11Z</time>
					</trkpt>
					<trkpt lat="48.836550" lon="2.011600">
						<ele>90</ele>
						<time>2026-04-14T07:19:14Z</time>
					</trkpt>
					<trkpt lat="48.837850" lon="2.011910">
						<ele>89</ele>
						<time>2026-04-14T07:19:37Z</time>
					</trkpt>
					<trkpt lat="48.837930" lon="2.011910">
						<ele>88</ele>
						<time>2026-04-14T07:19:38Z</time>
					</trkpt>
					<trkpt lat="48.838060" lon="2.011900">
						<ele>88</ele>
						<time>2026-04-14T07:19:41Z</time>
					</trkpt>
					<trkpt lat="48.838170" lon="2.011870">
						<ele>88</ele>
						<time>2026-04-14T07:19:43Z</time>
					</trkpt>
					<trkpt lat="48.838300" lon="2.011740">
						<ele>87</ele>
						<time>2026-04-14T07:19:46Z</time>
					</trkpt>
					<trkpt lat="48.838400" lon="2.011570">
						<ele>87</ele>
						<time>2026-04-14T07:19:48Z</time>
					</trkpt>
					<trkpt lat="48.838740" lon="2.010830">
						<ele>85</ele>
						<time>2026-04-14T07:19:59Z</time>
					</trkpt>
					<trkpt lat="48.838810" lon="2.010690">
						<ele>85</ele>
						<time>2026-04-14T07:20:01Z</time>
					</trkpt>
					<trkpt lat="48.838900" lon="2.010580">
						<ele>85</ele>
						<time>2026-04-14T07:20:03Z</time>
					</trkpt>
					<trkpt lat="48.839270" lon="2.010180">
						<ele>84</ele>
						<time>2026-04-14T07:20:11Z</time>
					</trkpt>
					<trkpt lat="48.839760" lon="2.009690">
						<ele>84</ele>
						<time>2026-04-14T07:20:21Z</time>
					</trkpt>
					<trkpt lat="48.840210" lon="2.009210">
						<ele>84</ele>
						<time>2026-04-14T07:20:31Z</time>
					</trkpt>
					<trkpt lat="48.840340" lon="2.009160">
						<ele>84</ele>
						<time>2026-04-14T07:20:34Z</time>
					</trkpt>
					<trkpt lat="48.840380" lon="2.009130">
						<ele>84</ele>
						<time>2026-04-14T07:20:34Z</time>
					</trkpt>
					<trkpt lat="48.840440" lon="2.009150">
						<ele>84</ele>
						<time>2026-04-14T07:20:35Z</time>
					</trkpt>
					<trkpt lat="48.840490" lon="2.009140">
						<ele>84</ele>
						<time>2026-04-14T07:20:36Z</time>
					</trkpt>
					<trkpt lat="48.840520" lon="2.009100">
						<ele>84</ele>
						<time>2026-04-14T07:20:37Z</time>
					</trkpt>
					<trkpt lat="48.840550" lon="2.009050">
						<ele>84</ele>
						<time>2026-04-14T07:20:38Z</time>
					</trkpt>
					<trkpt lat="48.840570" lon="2.008990">
						<ele>84</ele>
						<time>2026-04-14T07:20:39Z</time>
					</trkpt>
					<trkpt lat="48.840570" lon="2.008930">
						<ele>84</ele>
						<time>2026-04-14T07:20:39Z</time>
					</trkpt>
					<trkpt lat="48.840560" lon="2.008860">
						<ele>84</ele>
						<time>2026-04-14T07:20:40Z</time>
					</trkpt>
					<trkpt lat="48.840640" lon="2.008680">
						<ele>84</ele>
						<time>2026-04-14T07:20:43Z</time>
					</trkpt>
					<trkpt lat="48.841610" lon="2.007420">
						<ele>81</ele>
						<time>2026-04-14T07:21:05Z</time>
					</trkpt>
					<trkpt lat="48.841780" lon="2.007140">
						<ele>81</ele>
						<time>2026-04-14T07:21:10Z</time>
					</trkpt>
					<trkpt lat="48.841890" lon="2.006930">
						<ele>81</ele>
						<time>2026-04-14T07:21:13Z</time>
					</trkpt>
					<trkpt lat="48.842060" lon="2.006580">
						<ele>81</ele>
						<time>2026-04-14T07:21:18Z</time>
					</trkpt>
					<trkpt lat="48.842240" lon="2.006150">
						<ele>83</ele>
						<time>2026-04-14T07:21:24Z</time>
					</trkpt>
					<trkpt lat="48.842390" lon="2.005870">
						<ele>84</ele>
						<time>2026-04-14T07:21:28Z</time>
					</trkpt>
					<trkpt lat="48.842610" lon="2.005510">
						<ele>84</ele>
						<time>2026-04-14T07:21:34Z</time>
					</trkpt>
					<trkpt lat="48.842930" lon="2.005040">
						<ele>85</ele>
						<time>2026-04-14T07:21:42Z</time>
					</trkpt>
					<trkpt lat="48.843050" lon="2.004840">
						<ele>85</ele>
						<time>2026-04-14T07:21:45Z</time>
					</trkpt>
					<trkpt lat="48.843140" lon="2.004660">
						<ele>84</ele>
						<time>2026-04-14T07:21:48Z</time>
					</trkpt>
					<trkpt lat="48.843240" lon="2.004440">
						<ele>84</ele>
						<time>2026-04-14T07:21:51Z</time>
					</trkpt>
					<trkpt lat="48.843460" lon="2.003570">
						<ele>82</ele>
						<time>2026-04-14T07:22:02Z</time>
					</trkpt>
					<trkpt lat="48.843920" lon="2.001590">
						<ele>84</ele>
						<time>2026-04-14T07:22:26Z</time>
					</trkpt>
					<trkpt lat="48.843940" lon="2.001500">
						<ele>83</ele>
						<time>2026-04-14T07:22:28Z</time>
					</trkpt>
					<trkpt lat="48.844020" lon="2.001160">
						<ele>83</ele>
						<time>2026-04-14T07:22:32Z</time>
					</trkpt>
					<trkpt lat="48.844710" lon="1.998600">
						<ele>85</ele>
						<time>2026-04-14T07:23:04Z</time>
					</trkpt>
					<trkpt lat="48.844770" lon="1.998400">
						<ele>85</ele>
						<time>2026-04-14T07:23:07Z</time>
					</trkpt>
					<trkpt lat="48.844810" lon="1.998300">
						<ele>85</ele>
						<time>2026-04-14T07:23:08Z</time>
					</trkpt>
					<trkpt lat="48.844830" lon="1.998250">
						<ele>85</ele>
						<time>2026-04-14T07:23:09Z</time>
					</trkpt>
					<trkpt lat="48.846140" lon="1.995590">
						<ele>81</ele>
						<time>2026-04-14T07:23:48Z</time>
					</trkpt>
					<trkpt lat="48.846300" lon="1.995360">
						<ele>81</ele>
						<time>2026-04-14T07:23:52Z</time>
					</trkpt>
					<trkpt lat="48.847740" lon="1.993890">
						<ele>85</ele>
						<time>2026-04-14T07:24:23Z</time>
					</trkpt>
					<trkpt lat="48.848580" lon="1.993050">
						<ele>84</ele>
						<time>2026-04-14T07:24:40Z</time>
					</trkpt>
					<trkpt lat="48.848790" lon="1.992800">
						<ele>83</ele>
						<time>2026-04-14T07:24:45Z</time>
					</trkpt>
					<trkpt lat="48.848830" lon="1.992830">
						<ele>83</ele>
						<time>2026-04-14T07:24:46Z</time>
					</trkpt>
					<trkpt lat="48.848870" lon="1.992820">
						<ele>83</ele>
						<time>2026-04-14T07:24:47Z</time>
					</trkpt>
					<trkpt lat="48.848900" lon="1.992760">
						<ele>83</ele>
						<time>2026-04-14T07:24:48Z</time>
					</trkpt>
					<trkpt lat="48.848900" lon="1.992690">
						<ele>83</ele>
						<time>2026-04-14T07:24:48Z</time>
					</trkpt>
					<trkpt lat="48.849030" lon="1.992560">
						<ele>82</ele>
						<time>2026-04-14T07:24:51Z</time>
					</trkpt>
					<trkpt lat="48.849370" lon="1.992150">
						<ele>81</ele>
						<time>2026-04-14T07:24:59Z</time>
					</trkpt>
					<trkpt lat="48.849710" lon="1.991590">
						<ele>80</ele>
						<time>2026-04-14T07:25:08Z</time>
					</trkpt>
					<trkpt lat="48.850050" lon="1.990800">
						<ele>79</ele>
						<time>2026-04-14T07:25:19Z</time>
					</trkpt>
					<trkpt lat="48.850260" lon="1.990200">
						<ele>82</ele>
						<time>2026-04-14T07:25:27Z</time>
					</trkpt>
					<trkpt lat="48.850370" lon="1.989890">
						<ele>83</ele>
						<time>2026-04-14T07:25:31Z</time>
					</trkpt>
					<trkpt lat="48.850870" lon="1.988580">
						<ele>84</ele>
						<time>2026-04-14T07:25:49Z</time>
					</trkpt>
					<trkpt lat="48.850980" lon="1.988330">
						<ele>84</ele>
						<time>2026-04-14T07:25:52Z</time>
					</trkpt>
					<trkpt lat="48.851000" lon="1.988290">
						<ele>84</ele>
						<time>2026-04-14T07:25:53Z</time>
					</trkpt>
					<trkpt lat="48.851080" lon="1.988210">
						<ele>84</ele>
						<time>2026-04-14T07:25:54Z</time>
					</trkpt>
					<trkpt lat="48.851090" lon="1.988320">
						<ele>85</ele>
						<time>2026-04-14T07:25:56Z</time>
					</trkpt>
					<trkpt lat="48.851120" lon="1.988530">
						<ele>86</ele>
						<time>2026-04-14T07:25:58Z</time>
					</trkpt>
					<trkpt lat="48.851170" lon="1.988690">
						<ele>87</ele>
						<time>2026-04-14T07:26:00Z</time>
					</trkpt>
					<trkpt lat="48.851260" lon="1.988890">
						<ele>89</ele>
						<time>2026-04-14T07:26:03Z</time>
					</trkpt>
					<trkpt lat="48.851340" lon="1.989020">
						<ele>90</ele>
						<time>2026-04-14T07:26:05Z</time>
					</trkpt>
					<trkpt lat="48.851680" lon="1.989520">
						<ele>94</ele>
						<time>2026-04-14T07:26:14Z</time>
					</trkpt>
					<trkpt lat="48.851740" lon="1.989620">
						<ele>94</ele>
						<time>2026-04-14T07:26:15Z</time>
					</trkpt>
					<trkpt lat="48.851830" lon="1.989810">
						<ele>96</ele>
						<time>2026-04-14T07:26:18Z</time>
					</trkpt>
					<trkpt lat="48.852010" lon="1.990290">
						<ele>99</ele>
						<time>2026-04-14T07:26:24Z</time>
					</trkpt>
					<trkpt lat="48.852240" lon="1.990880">
						<ele>103</ele>
						<time>2026-04-14T07:26:32Z</time>
					</trkpt>
					<trkpt lat="48.852460" lon="1.991400">
						<ele>107</ele>
						<time>2026-04-14T07:26:40Z</time>
					</trkpt>
					<trkpt lat="48.852620" lon="1.991680">
						<ele>108</ele>
						<time>2026-04-14T07:26:44Z</time>
					</trkpt>
					<trkpt lat="48.853000" lon="1.992340">
						<ele>110</ele>
						<time>2026-04-14T07:26:54Z</time>
					</trkpt>
					<trkpt lat="48.853130" lon="1.992630">
						<ele>112</ele>
						<time>2026-04-14T07:26:58Z</time>
					</trkpt>
					<trkpt lat="48.853300" lon="1.993120">
						<ele>114</ele>
						<time>2026-04-14T07:27:05Z</time>
					</trkpt>
					<trkpt lat="48.853420" lon="1.993680">
						<ele>114</ele>
						<time>2026-04-14T07:27:12Z</time>
					</trkpt>
					<trkpt lat="48.853630" lon="1.994980">
						<ele>112</ele>
						<time>2026-04-14T07:27:28Z</time>
					</trkpt>
					<trkpt lat="48.853730" lon="1.995430">
						<ele>111</ele>
						<time>2026-04-14T07:27:33Z</time>
					</trkpt>
					<trkpt lat="48.854010" lon="1.996150">
						<ele>114</ele>
						<time>2026-04-14T07:27:43Z</time>
					</trkpt>
					<trkpt lat="48.854600" lon="1.997600">
						<ele>112</ele>
						<time>2026-04-14T07:28:03Z</time>
					</trkpt>
					<trkpt lat="48.854770" lon="1.998000">
						<ele>111</ele>
						<time>2026-04-14T07:28:08Z</time>
					</trkpt>
					<trkpt lat="48.855180" lon="1.998750">
						<ele>112</ele>
						<time>2026-04-14T07:28:20Z</time>
					</trkpt>
					<trkpt lat="48.856080" lon="2.000470">
						<ele>113</ele>
						<time>2026-04-14T07:28:46Z</time>
					</trkpt>
					<trkpt lat="48.856580" lon="2.001830">
						<ele>111</ele>
						<time>2026-04-14T07:29:04Z</time>
					</trkpt>
					<trkpt lat="48.856710" lon="2.002190">
						<ele>110</ele>
						<time>2026-04-14T07:29:09Z</time>
					</trkpt>
					<trkpt lat="48.856990" lon="2.002890">
						<ele>108</ele>
						<time>2026-04-14T07:29:18Z</time>
					</trkpt>
					<trkpt lat="48.857520" lon="2.003950">
						<ele>107</ele>
						<time>2026-04-14T07:29:34Z</time>
					</trkpt>
					<trkpt lat="48.857620" lon="2.004150">
						<ele>107</ele>
						<time>2026-04-14T07:29:37Z</time>
					</trkpt>
					<trkpt lat="48.857650" lon="2.004200">
						<ele>107</ele>
						<time>2026-04-14T07:29:37Z</time>
					</trkpt>
					<trkpt lat="48.857750" lon="2.004390">
						<ele>107</ele>
						<time>2026-04-14T07:29:40Z</time>
					</trkpt>
					<trkpt lat="48.858130" lon="2.005180">
						<ele>107</ele>
						<time>2026-04-14T07:29:52Z</time>
					</trkpt>
					<trkpt lat="48.858600" lon="2.006110">
						<ele>111</ele>
						<time>2026-04-14T07:30:06Z</time>
					</trkpt>
					<trkpt lat="48.858680" lon="2.006330">
						<ele>112</ele>
						<time>2026-04-14T07:30:08Z</time>
					</trkpt>
					<trkpt lat="48.858740" lon="2.006260">
						<ele>112</ele>
						<time>2026-04-14T07:30:10Z</time>
					</trkpt>
					<trkpt lat="48.858780" lon="2.006220">
						<ele>112</ele>
						<time>2026-04-14T07:30:11Z</time>
					</trkpt>
					<trkpt lat="48.858810" lon="2.006210">
						<ele>112</ele>
						<time>2026-04-14T07:30:11Z</time>
					</trkpt>
					<trkpt lat="48.858980" lon="2.006220">
						<ele>112</ele>
						<time>2026-04-14T07:30:14Z</time>
					</trkpt>
					<trkpt lat="48.859030" lon="2.006250">
						<ele>112</ele>
						<time>2026-04-14T07:30:15Z</time>
					</trkpt>
					<trkpt lat="48.859100" lon="2.006320">
						<ele>113</ele>
						<time>2026-04-14T07:30:17Z</time>
					</trkpt>
					<trkpt lat="48.859150" lon="2.006360">
						<ele>113</ele>
						<time>2026-04-14T07:30:18Z</time>
					</trkpt>
					<trkpt lat="48.859160" lon="2.006400">
						<ele>113</ele>
						<time>2026-04-14T07:30:18Z</time>
					</trkpt>
					<trkpt lat="48.859190" lon="2.006540">
						<ele>114</ele>
						<time>2026-04-14T07:30:20Z</time>
					</trkpt>
					<trkpt lat="48.859200" lon="2.006660">
						<ele>114</ele>
						<time>2026-04-14T07:30:21Z</time>
					</trkpt>
					<trkpt lat="48.859220" lon="2.006650">
						<ele>114</ele>
						<time>2026-04-14T07:30:22Z</time>
					</trkpt>
					<trkpt lat="48.859240" lon="2.006600">
						<ele>114</ele>
						<time>2026-04-14T07:30:22Z</time>
					</trkpt>
					<trkpt lat="48.859290" lon="2.006310">
						<ele>113</ele>
						<time>2026-04-14T07:30:26Z</time>
					</trkpt>
					<trkpt lat="48.859410" lon="2.005810">
						<ele>112</ele>
						<time>2026-04-14T07:30:32Z</time>
					</trkpt>
					<trkpt lat="48.859800" lon="2.004260">
						<ele>119</ele>
						<time>2026-04-14T07:30:52Z</time>
					</trkpt>
					<trkpt lat="48.859840" lon="2.004050">
						<ele>119</ele>
						<time>2026-04-14T07:30:54Z</time>
					</trkpt>
					<trkpt lat="48.860120" lon="2.003000">
						<ele>124</ele>
						<time>2026-04-14T07:31:07Z</time>
					</trkpt>
					<trkpt lat="48.860340" lon="2.002080">
						<ele>127</ele>
						<time>2026-04-14T07:31:19Z</time>
					</trkpt>
					<trkpt lat="48.861510" lon="1.997050">
						<ele>122</ele>
						<time>2026-04-14T07:32:21Z</time>
					</trkpt>
					<trkpt lat="48.861560" lon="1.996740">
						<ele>120</ele>
						<time>2026-04-14T07:32:25Z</time>
					</trkpt>
					<trkpt lat="48.861680" lon="1.996200">
						<ele>119</ele>
						<time>2026-04-14T07:32:32Z</time>
					</trkpt>
					<trkpt lat="48.862020" lon="1.994770">
						<ele>116</ele>
						<time>2026-04-14T07:32:49Z</time>
					</trkpt>
					<trkpt lat="48.862320" lon="1.993420">
						<ele>113</ele>
						<time>2026-04-14T07:33:06Z</time>
					</trkpt>
					<trkpt lat="48.862620" lon="1.991970">
						<ele>114</ele>
						<time>2026-04-14T07:33:24Z</time>
					</trkpt>
					<trkpt lat="48.863030" lon="1.990330">
						<ele>117</ele>
						<time>2026-04-14T07:33:45Z</time>
					</trkpt>
					<trkpt lat="48.863320" lon="1.989100">
						<ele>118</ele>
						<time>2026-04-14T07:34:00Z</time>
					</trkpt>
					<trkpt lat="48.863870" lon="1.986640">
						<ele>118</ele>
						<time>2026-04-14T07:34:30Z</time>
					</trkpt>
					<trkpt lat="48.864310" lon="1.984690">
						<ele>120</ele>
						<time>2026-04-14T07:34:54Z</time>
					</trkpt>
					<trkpt lat="48.864670" lon="1.983240">
						<ele>122</ele>
						<time>2026-04-14T07:35:12Z</time>
					</trkpt>
					<trkpt lat="48.864820" lon="1.982570">
						<ele>121</ele>
						<time>2026-04-14T07:35:21Z</time>
					</trkpt>
					<trkpt lat="48.864940" lon="1.981970">
						<ele>120</ele>
						<time>2026-04-14T07:35:28Z</time>
					</trkpt>
					<trkpt lat="48.864970" lon="1.981890">
						<ele>119</ele>
						<time>2026-04-14T07:35:29Z</time>
					</trkpt>
					<trkpt lat="48.865000" lon="1.981760">
						<ele>119</ele>
						<time>2026-04-14T07:35:31Z</time>
					</trkpt>
					<trkpt lat="48.865120" lon="1.980820">
						<ele>118</ele>
						<time>2026-04-14T07:35:42Z</time>
					</trkpt>
					<trkpt lat="48.865270" lon="1.979840">
						<ele>116</ele>
						<time>2026-04-14T07:35:54Z</time>
					</trkpt>
					<trkpt lat="48.865340" lon="1.979310">
						<ele>115</ele>
						<time>2026-04-14T07:36:00Z</time>
					</trkpt>
					<trkpt lat="48.865390" lon="1.978890">
						<ele>114</ele>
						<time>2026-04-14T07:36:05Z</time>
					</trkpt>
					<trkpt lat="48.865470" lon="1.978380">
						<ele>114</ele>
						<time>2026-04-14T07:36:11Z</time>
					</trkpt>
					<trkpt lat="48.865500" lon="1.978230">
						<ele>113</ele>
						<time>2026-04-14T07:36:13Z</time>
					</trkpt>
					<trkpt lat="48.865520" lon="1.978070">
						<ele>113</ele>
						<time>2026-04-14T07:36:15Z</time>
					</trkpt>
					<trkpt lat="48.865820" lon="1.976110">
						<ele>116</ele>
						<time>2026-04-14T07:36:39Z</time>
					</trkpt>
					<trkpt lat="48.865830" lon="1.976010">
						<ele>117</ele>
						<time>2026-04-14T07:36:40Z</time>
					</trkpt>
					<trkpt lat="48.865960" lon="1.975200">
						<ele>118</ele>
						<time>2026-04-14T07:36:49Z</time>
					</trkpt>
					<trkpt lat="48.866110" lon="1.974030">
						<ele>120</ele>
						<time>2026-04-14T07:37:03Z</time>
					</trkpt>
					<trkpt lat="48.866260" lon="1.973030">
						<ele>123</ele>
						<time>2026-04-14T07:37:15Z</time>
					</trkpt>
					<trkpt lat="48.866370" lon="1.972320">
						<ele>124</ele>
						<time>2026-04-14T07:37:24Z</time>
					</trkpt>
					<trkpt lat="48.866590" lon="1.972380">
						<ele>125</ele>
						<time>2026-04-14T07:37:28Z</time>
					</trkpt>
					<trkpt lat="48.866830" lon="1.970770">
						<ele>127</ele>
						<time>2026-04-14T07:37:47Z</time>
					</trkpt>
					<trkpt lat="48.866990" lon="1.970820">
						<ele>128</ele>
						<time>2026-04-14T07:37:50Z</time>
					</trkpt>
					<trkpt lat="48.867280" lon="1.970920">
						<ele>129</ele>
						<time>2026-04-14T07:37:55Z</time>
					</trkpt>
					<trkpt lat="48.867360" lon="1.970950">
						<ele>130</ele>
						<time>2026-04-14T07:37:57Z</time>
					</trkpt>
					<trkpt lat="48.867970" lon="1.971170">
						<ele>131</ele>
						<time>2026-04-14T07:38:08Z</time>
					</trkpt>
					<trkpt lat="48.868500" lon="1.971360">
						<ele>132</ele>
						<time>2026-04-14T07:38:18Z</time>
					</trkpt>
					<trkpt lat="48.869010" lon="1.971530">
						<ele>132</ele>
						<time>2026-04-14T07:38:27Z</time>
					</trkpt>
					<trkpt lat="48.869230" lon="1.971590">
						<ele>132</ele>
						<time>2026-04-14T07:38:31Z</time>
					</trkpt>
					<trkpt lat="48.869310" lon="1.971610">
						<ele>132</ele>
						<time>2026-04-14T07:38:32Z</time>
					</trkpt>
					<trkpt lat="48.869730" lon="1.971690">
						<ele>133</ele>
						<time>2026-04-14T07:38:40Z</time>
					</trkpt>
					<trkpt lat="48.870050" lon="1.971750">
						<ele>134</ele>
						<time>2026-04-14T07:38:46Z</time>
					</trkpt>
					<trkpt lat="48.870550" lon="1.971850">
						<ele>135</ele>
						<time>2026-04-14T07:38:55Z</time>
					</trkpt>
					<trkpt lat="48.870720" lon="1.971880">
						<ele>136</ele>
						<time>2026-04-14T07:38:58Z</time>
					</trkpt>
					<trkpt lat="48.871050" lon="1.971990">
						<ele>137</ele>
						<time>2026-04-14T07:39:04Z</time>
					</trkpt>
					<trkpt lat="48.871200" lon="1.972070">
						<ele>137</ele>
						<time>2026-04-14T07:39:07Z</time>
					</trkpt>
					<trkpt lat="48.871820" lon="1.972300">
						<ele>140</ele>
						<time>2026-04-14T07:39:18Z</time>
					</trkpt>
					<trkpt lat="48.872240" lon="1.972460">
						<ele>141</ele>
						<time>2026-04-14T07:39:26Z</time>
					</trkpt>
					<trkpt lat="48.872380" lon="1.972490">
						<ele>142</ele>
						<time>2026-04-14T07:39:28Z</time>
					</trkpt>
					<trkpt lat="48.872530" lon="1.972530">
						<ele>142</ele>
						<time>2026-04-14T07:39:31Z</time>
					</trkpt>
					<trkpt lat="48.872700" lon="1.972580">
						<ele>143</ele>
						<time>2026-04-14T07:39:34Z</time>
					</trkpt>
					<trkpt lat="48.872850" lon="1.972620">
						<ele>143</ele>
						<time>2026-04-14T07:39:37Z</time>
					</trkpt>
					<trkpt lat="48.872960" lon="1.972690">
						<ele>144</ele>
						<time>2026-04-14T07:39:39Z</time>
					</trkpt>
					<trkpt lat="48.873040" lon="1.972760">
						<ele>144</ele>
						<time>2026-04-14T07:39:40Z</time>
					</trkpt>
					<trkpt lat="48.873120" lon="1.972830">
						<ele>144</ele>
						<time>2026-04-14T07:39:42Z</time>
					</trkpt>
					<trkpt lat="48.873370" lon="1.973060">
						<ele>145</ele>
						<time>2026-04-14T07:39:47Z</time>
					</trkpt>
					<trkpt lat="48.874020" lon="1.973670">
						<ele>149</ele>
						<time>2026-04-14T07:40:01Z</time>
					</trkpt>
					<trkpt lat="48.874110" lon="1.973740">
						<ele>150</ele>
						<time>2026-04-14T07:40:03Z</time>
					</trkpt>
					<trkpt lat="48.874260" lon="1.973900">
						<ele>152</ele>
						<time>2026-04-14T07:40:06Z</time>
					</trkpt>
					<trkpt lat="48.874370" lon="1.974010">
						<ele>153</ele>
						<time>2026-04-14T07:40:08Z</time>
					</trkpt>
					<trkpt lat="48.874490" lon="1.974170">
						<ele>156</ele>
						<time>2026-04-14T07:40:11Z</time>
					</trkpt>
					<trkpt lat="48.874520" lon="1.974200">
						<ele>156</ele>
						<time>2026-04-14T07:40:12Z</time>
					</trkpt>
					<trkpt lat="48.874570" lon="1.974260">
						<ele>157</ele>
						<time>2026-04-14T07:40:13Z</time>
					</trkpt>
					<trkpt lat="48.874620" lon="1.974330">
						<ele>158</ele>
						<time>2026-04-14T07:40:14Z</time>
					</trkpt>
					<trkpt lat="48.874650" lon="1.974420">
						<ele>159</ele>
						<time>2026-04-14T07:40:15Z</time>
					</trkpt>
					<trkpt lat="48.874670" lon="1.974500">
						<ele>160</ele>
						<time>2026-04-14T07:40:16Z</time>
					</trkpt>
					<trkpt lat="48.874670" lon="1.974590">
						<ele>161</ele>
						<time>2026-04-14T07:40:17Z</time>
					</trkpt>
					<trkpt lat="48.874670" lon="1.974660">
						<ele>161</ele>
						<time>2026-04-14T07:40:18Z</time>
					</trkpt>
					<trkpt lat="48.874650" lon="1.974740">
						<ele>161</ele>
						<time>2026-04-14T07:40:19Z</time>
					</trkpt>
					<trkpt lat="48.874510" lon="1.975110">
						<ele>161</ele>
						<time>2026-04-14T07:40:24Z</time>
					</trkpt>
					<trkpt lat="48.874440" lon="1.975300">
						<ele>161</ele>
						<time>2026-04-14T07:40:27Z</time>
					</trkpt>
					<trkpt lat="48.874410" lon="1.975380">
						<ele>160</ele>
						<time>2026-04-14T07:40:28Z</time>
					</trkpt>
					<trkpt lat="48.874300" lon="1.975690">
						<ele>160</ele>
						<time>2026-04-14T07:40:32Z</time>
					</trkpt>
					<trkpt lat="48.874260" lon="1.975870">
						<ele>160</ele>
						<time>2026-04-14T07:40:34Z</time>
					</trkpt>
					<trkpt lat="48.874240" lon="1.976040">
						<ele>160</ele>
						<time>2026-04-14T07:40:36Z</time>
					</trkpt>
					<trkpt lat="48.874240" lon="1.976200">
						<ele>160</ele>
						<time>2026-04-14T07:40:38Z</time>
					</trkpt>
					<trkpt lat="48.874260" lon="1.976330">
						<ele>161</ele>
						<time>2026-04-14T07:40:40Z</time>
					</trkpt>
					<trkpt lat="48.874300" lon="1.976480">
						<ele>162</ele>
						<time>2026-04-14T07:40:41Z</time>
					</trkpt>
					<trkpt lat="48.874350" lon="1.976630">
						<ele>163</ele>
						<time>2026-04-14T07:40:43Z</time>
					</trkpt>
					<trkpt lat="48.874620" lon="1.977220">
						<ele>167</ele>
						<time>2026-04-14T07:40:52Z</time>
					</trkpt>
					<trkpt lat="48.874680" lon="1.977420">
						<ele>168</ele>
						<time>2026-04-14T07:40:54Z</time>
					</trkpt>
					<trkpt lat="48.874720" lon="1.977640">
						<ele>168</ele>
						<time>2026-04-14T07:40:57Z</time>
					</trkpt>
					<trkpt lat="48.874720" lon="1.978130">
						<ele>165</ele>
						<time>2026-04-14T07:41:03Z</time>
					</trkpt>
					<trkpt lat="48.874730" lon="1.978210">
						<ele>165</ele>
						<time>2026-04-14T07:41:04Z</time>
					</trkpt>
					<trkpt lat="48.874750" lon="1.978270">
						<ele>165</ele>
						<time>2026-04-14T07:41:05Z</time>
					</trkpt>
					<trkpt lat="48.874790" lon="1.978320">
						<ele>166</ele>
						<time>2026-04-14T07:41:05Z</time>
					</trkpt>
					<trkpt lat="48.874840" lon="1.978350">
						<ele>167</ele>
						<time>2026-04-14T07:41:06Z</time>
					</trkpt>
					<trkpt lat="48.874900" lon="1.978370">
						<ele>168</ele>
						<time>2026-04-14T07:41:08Z</time>
					</trkpt>
					<trkpt lat="48.874930" lon="1.978360">
						<ele>168</ele>
						<time>2026-04-14T07:41:08Z</time>
					</trkpt>
					<trkpt lat="48.875010" lon="1.978320">
						<ele>170</ele>
						<time>2026-04-14T07:41:10Z</time>
					</trkpt>
					<trkpt lat="48.875290" lon="1.978070">
						<ele>173</ele>
						<time>2026-04-14T07:41:15Z</time>
					</trkpt>
					<trkpt lat="48.875400" lon="1.978010">
						<ele>174</ele>
						<time>2026-04-14T07:41:17Z</time>
					</trkpt>
					<trkpt lat="48.875550" lon="1.977960">
						<ele>175</ele>
						<time>2026-04-14T07:41:20Z</time>
					</trkpt>
					<trkpt lat="48.875950" lon="1.977920">
						<ele>177</ele>
						<time>2026-04-14T07:41:27Z</time>
					</trkpt>
					<trkpt lat="48.876260" lon="1.977860">
						<ele>179</ele>
						<time>2026-04-14T07:41:33Z</time>
					</trkpt>
					<trkpt lat="48.876300" lon="1.977850">
						<ele>179</ele>
						<time>2026-04-14T07:41:34Z</time>
					</trkpt>
					<trkpt lat="48.876420" lon="1.977890">
						<ele>179</ele>
						<time>2026-04-14T07:41:36Z</time>
					</trkpt>
					<trkpt lat="48.876440" lon="1.977920">
						<ele>179</ele>
						<time>2026-04-14T07:41:36Z</time>
					</trkpt>
					<trkpt lat="48.876620" lon="1.978150">
						<ele>178</ele>
						<time>2026-04-14T07:41:40Z</time>
					</trkpt>
					<trkpt lat="48.877130" lon="1.978910">
						<ele>177</ele>
						<time>2026-04-14T07:41:53Z</time>
					</trkpt>
					<trkpt lat="48.877220" lon="1.979060">
						<ele>176</ele>
						<time>2026-04-14T07:41:56Z</time>
					</trkpt>
					<trkpt lat="48.877380" lon="1.979280">
						<ele>177</ele>
						<time>2026-04-14T07:41:59Z</time>
					</trkpt>
					<trkpt lat="48.877450" lon="1.979370">
						<ele>177</ele>
						<time>2026-04-14T07:42:01Z</time>
					</trkpt>
					<trkpt lat="48.877620" lon="1.979520">
						<ele>178</ele>
						<time>2026-04-14T07:42:05Z</time>
					</trkpt>
					<trkpt lat="48.877740" lon="1.979610">
						<ele>178</ele>
						<time>2026-04-14T07:42:07Z</time>
					</trkpt>
					<trkpt lat="48.877990" lon="1.979750">
						<ele>179</ele>
						<time>2026-04-14T07:42:12Z</time>
					</trkpt>
					<trkpt lat="48.879270" lon="1.980260">
						<ele>180</ele>
						<time>2026-04-14T07:42:35Z</time>
					</trkpt>
					<trkpt lat="48.879330" lon="1.980280">
						<ele>180</ele>
						<time>2026-04-14T07:42:36Z</time>
					</trkpt>
					<trkpt lat="48.880360" lon="1.980710">
						<ele>177</ele>
						<time>2026-04-14T07:42:55Z</time>
					</trkpt>
					<trkpt lat="48.880640" lon="1.980820">
						<ele>176</ele>
						<time>2026-04-14T07:43:00Z</time>
					</trkpt>
					<trkpt lat="48.881200" lon="1.981090">
						<ele>178</ele>
						<time>2026-04-14T07:43:11Z</time>
					</trkpt>
					<trkpt lat="48.882030" lon="1.981570">
						<ele>178</ele>
						<time>2026-04-14T07:43:27Z</time>
					</trkpt>
					<trkpt lat="48.882110" lon="1.981620">
						<ele>179</ele>
						<time>2026-04-14T07:43:28Z</time>
					</trkpt>
					<trkpt lat="48.882610" lon="1.981900">
						<ele>178</ele>
						<time>2026-04-14T07:43:38Z</time>
					</trkpt>
					<trkpt lat="48.882790" lon="1.982000">
						<ele>179</ele>
						<time>2026-04-14T07:43:41Z</time>
					</trkpt>
					<trkpt lat="48.883630" lon="1.982530">
						<ele>178</ele>
						<time>2026-04-14T07:43:57Z</time>
					</trkpt>
					<trkpt lat="48.883730" lon="1.982590">
						<ele>177</ele>
						<time>2026-04-14T07:43:59Z</time>
					</trkpt>
					<trkpt lat="48.883790" lon="1.982640">
						<ele>177</ele>
						<time>2026-04-14T07:44:00Z</time>
					</trkpt>
					<trkpt lat="48.883880" lon="1.982720">
						<ele>176</ele>
						<time>2026-04-14T07:44:02Z</time>
					</trkpt>
					<trkpt lat="48.883950" lon="1.982750">
						<ele>176</ele>
						<time>2026-04-14T07:44:04Z</time>
					</trkpt>
					<trkpt lat="48.884000" lon="1.982760">
						<ele>176</ele>
						<time>2026-04-14T07:44:04Z</time>
					</trkpt>
					<trkpt lat="48.884060" lon="1.982730">
						<ele>175</ele>
						<time>2026-04-14T07:44:06Z</time>
					</trkpt>
					<trkpt lat="48.884130" lon="1.982730">
						<ele>175</ele>
						<time>2026-04-14T07:44:07Z</time>
					</trkpt>
					<trkpt lat="48.884180" lon="1.982740">
						<ele>175</ele>
						<time>2026-04-14T07:44:08Z</time>
					</trkpt>
					<trkpt lat="48.884210" lon="1.982740">
						<ele>175</ele>
						<time>2026-04-14T07:44:08Z</time>
					</trkpt>
					<trkpt lat="48.884260" lon="1.982710">
						<ele>175</ele>
						<time>2026-04-14T07:44:09Z</time>
					</trkpt>
					<trkpt lat="48.884290" lon="1.982660">
						<ele>175</ele>
						<time>2026-04-14T07:44:10Z</time>
					</trkpt>
					<trkpt lat="48.884320" lon="1.982610">
						<ele>174</ele>
						<time>2026-04-14T07:44:11Z</time>
					</trkpt>
					<trkpt lat="48.884330" lon="1.982540">
						<ele>174</ele>
						<time>2026-04-14T07:44:12Z</time>
					</trkpt>
					<trkpt lat="48.884330" lon="1.982520">
						<ele>174</ele>
						<time>2026-04-14T07:44:12Z</time>
					</trkpt>
					<trkpt lat="48.884360" lon="1.982420">
						<ele>174</ele>
						<time>2026-04-14T07:44:13Z</time>
					</trkpt>
					<trkpt lat="48.884390" lon="1.982370">
						<ele>174</ele>
						<time>2026-04-14T07:44:14Z</time>
					</trkpt>
					<trkpt lat="48.884460" lon="1.982290">
						<ele>174</ele>
						<time>2026-04-14T07:44:16Z</time>
					</trkpt>
					<trkpt lat="48.884540" lon="1.982250">
						<ele>174</ele>
						<time>2026-04-14T07:44:17Z</time>
					</trkpt>
					<trkpt lat="48.884610" lon="1.982260">
						<ele>174</ele>
						<time>2026-04-14T07:44:18Z</time>
					</trkpt>
					<trkpt lat="48.884650" lon="1.982280">
						<ele>173</ele>
						<time>2026-04-14T07:44:19Z</time>
					</trkpt>
					<trkpt lat="48.884680" lon="1.982310">
						<ele>173</ele>
						<time>2026-04-14T07:44:20Z</time>
					</trkpt>
					<trkpt lat="48.884740" lon="1.982400">
						<ele>173</ele>
						<time>2026-04-14T07:44:21Z</time>
					</trkpt>
					<trkpt lat="48.884900" lon="1.982800">
						<ele>173</ele>
						<time>2026-04-14T07:44:27Z</time>
					</trkpt>
					<trkpt lat="48.885030" lon="1.983120">
						<ele>173</ele>
						<time>2026-04-14T07:44:31Z</time>
					</trkpt>
					<trkpt lat="48.885090" lon="1.983220">
						<ele>173</ele>
						<time>2026-04-14T07:44:33Z</time>
					</trkpt>
					<trkpt lat="48.885150" lon="1.983290">
						<ele>173</ele>
						<time>2026-04-14T07:44:34Z</time>
					</trkpt>
					<trkpt lat="48.885220" lon="1.983340">
						<ele>172</ele>
						<time>2026-04-14T07:44:35Z</time>
					</trkpt>
					<trkpt lat="48.885290" lon="1.983380">
						<ele>172</ele>
						<time>2026-04-14T07:44:37Z</time>
					</trkpt>
					<trkpt lat="48.885370" lon="1.983390">
						<ele>172</ele>
						<time>2026-04-14T07:44:38Z</time>
					</trkpt>
					<trkpt lat="48.885450" lon="1.983390">
						<ele>172</ele>
						<time>2026-04-14T07:44:40Z</time>
					</trkpt>
					<trkpt lat="48.885570" lon="1.983330">
						<ele>172</ele>
						<time>2026-04-14T07:44:42Z</time>
					</trkpt>
					<trkpt lat="48.885690" lon="1.983210">
						<ele>171</ele>
						<time>2026-04-14T07:44:44Z</time>
					</trkpt>
					<trkpt lat="48.885750" lon="1.983120">
						<ele>171</ele>
						<time>2026-04-14T07:44:46Z</time>
					</trkpt>
					<trkpt lat="48.885790" lon="1.983020">
						<ele>171</ele>
						<time>2026-04-14T07:44:47Z</time>
					</trkpt>
					<trkpt lat="48.889000" lon="1.973430">
						<ele>171</ele>
						<time>2026-04-14T07:46:53Z</time>
					</trkpt>
					<trkpt lat="48.890260" lon="1.969650">
						<ele>173</ele>
						<time>2026-04-14T07:47:43Z</time>
					</trkpt>
					<trkpt lat="48.890450" lon="1.969090">
						<ele>174</ele>
						<time>2026-04-14T07:47:50Z</time>
					</trkpt>
					<trkpt lat="48.890920" lon="1.967680">
						<ele>174</ele>
						<time>2026-04-14T07:48:09Z</time>
					</trkpt>
					<trkpt lat="48.891120" lon="1.967080">
						<ele>174</ele>
						<time>2026-04-14T07:48:16Z</time>
					</trkpt>
					<trkpt lat="48.892810" lon="1.961980">
						<ele>175</ele>
						<time>2026-04-14T07:49:23Z</time>
					</trkpt>
					<trkpt lat="48.892830" lon="1.961950">
						<ele>175</ele>
						<time>2026-04-14T07:49:24Z</time>
					</trkpt>
					<trkpt lat="48.892880" lon="1.961920">
						<ele>175</ele>
						<time>2026-04-14T07:49:25Z</time>
					</trkpt>
					<trkpt lat="48.892880" lon="1.961880">
						<ele>175</ele>
						<time>2026-04-14T07:49:25Z</time>
					</trkpt>
					<trkpt lat="48.892910" lon="1.961710">
						<ele>175</ele>
						<time>2026-04-14T07:49:27Z</time>
					</trkpt>
					<trkpt lat="48.892940" lon="1.961600">
						<ele>175</ele>
						<time>2026-04-14T07:49:29Z</time>
					</trkpt>
					<trkpt lat="48.893970" lon="1.958500">
						<ele>177</ele>
						<time>2026-04-14T07:50:09Z</time>
					</trkpt>
					<trkpt lat="48.894470" lon="1.956970">
						<ele>178</ele>
						<time>2026-04-14T07:50:29Z</time>
					</trkpt>
					<trkpt lat="48.895370" lon="1.954320">
						<ele>178</ele>
						<time>2026-04-14T07:51:04Z</time>
					</trkpt>
					<trkpt lat="48.895550" lon="1.953890">
						<ele>178</ele>
						<time>2026-04-14T07:51:10Z</time>
					</trkpt>
					<trkpt lat="48.896280" lon="1.952550">
						<ele>179</ele>
						<time>2026-04-14T07:51:30Z</time>
					</trkpt>
					<trkpt lat="48.896710" lon="1.951780">
						<ele>179</ele>
						<time>2026-04-14T07:51:42Z</time>
					</trkpt>
					<trkpt lat="48.897080" lon="1.951100">
						<ele>179</ele>
						<time>2026-04-14T07:51:53Z</time>
					</trkpt>
					<trkpt lat="48.897730" lon="1.949900">
						<ele>178</ele>
						<time>2026-04-14T07:52:11Z</time>
					</trkpt>
					<trkpt lat="48.898390" lon="1.948690">
						<ele>177</ele>
						<time>2026-04-14T07:52:29Z</time>
					</trkpt>
					<trkpt lat="48.899250" lon="1.947110">
						<ele>177</ele>
						<time>2026-04-14T07:52:53Z</time>
					</trkpt>
					<trkpt lat="48.899980" lon="1.945780">
						<ele>177</ele>
						<time>2026-04-14T07:53:13Z</time>
					</trkpt>
					<trkpt lat="48.900510" lon="1.944830">
						<ele>178</ele>
						<time>2026-04-14T07:53:28Z</time>
					</trkpt>
					<trkpt lat="48.901110" lon="1.943730">
						<ele>177</ele>
						<time>2026-04-14T07:53:45Z</time>
					</trkpt>
					<trkpt lat="48.902080" lon="1.942000">
						<ele>177</ele>
						<time>2026-04-14T07:54:11Z</time>
					</trkpt>
					<trkpt lat="48.902260" lon="1.941580">
						<ele>176</ele>
						<time>2026-04-14T07:54:17Z</time>
					</trkpt>
					<trkpt lat="48.902880" lon="1.939430">
						<ele>173</ele>
						<time>2026-04-14T07:54:45Z</time>
					</trkpt>
					<trkpt lat="48.903380" lon="1.937710">
						<ele>173</ele>
						<time>2026-04-14T07:55:07Z</time>
					</trkpt>
					<trkpt lat="48.903760" lon="1.936310">
						<ele>172</ele>
						<time>2026-04-14T07:55:24Z</time>
					</trkpt>
					<trkpt lat="48.904170" lon="1.934950">
						<ele>172</ele>
						<time>2026-04-14T07:55:42Z</time>
					</trkpt>
					<trkpt lat="48.904240" lon="1.934740">
						<ele>172</ele>
						<time>2026-04-14T07:55:45Z</time>
					</trkpt>
					<trkpt lat="48.904310" lon="1.934570">
						<ele>173</ele>
						<time>2026-04-14T07:55:47Z</time>
					</trkpt>
					<trkpt lat="48.904400" lon="1.934410">
						<ele>173</ele>
						<time>2026-04-14T07:55:49Z</time>
					</trkpt>
					<trkpt lat="48.904570" lon="1.934180">
						<ele>173</ele>
						<time>2026-04-14T07:55:53Z</time>
					</trkpt>
					<trkpt lat="48.908800" lon="1.929480">
						<ele>178</ele>
						<time>2026-04-14T07:57:27Z</time>
					</trkpt>
					<trkpt lat="48.908830" lon="1.929440">
						<ele>178</ele>
						<time>2026-04-14T07:57:27Z</time>
					</trkpt>
					<trkpt lat="48.909090" lon="1.929150">
						<ele>177</ele>
						<time>2026-04-14T07:57:33Z</time>
					</trkpt>
					<trkpt lat="48.909110" lon="1.929130">
						<ele>177</ele>
						<time>2026-04-14T07:57:34Z</time>
					</trkpt>
					<trkpt lat="48.909420" lon="1.928780">
						<ele>177</ele>
						<time>2026-04-14T07:57:40Z</time>
					</trkpt>
					<trkpt lat="48.909660" lon="1.928510">
						<ele>177</ele>
						<time>2026-04-14T07:57:46Z</time>
					</trkpt>
					<trkpt lat="48.910410" lon="1.927670">
						<ele>177</ele>
						<time>2026-04-14T07:58:02Z</time>
					</trkpt>
					<trkpt lat="48.910790" lon="1.927250">
						<ele>178</ele>
						<time>2026-04-14T07:58:11Z</time>
					</trkpt>
					<trkpt lat="48.911230" lon="1.926760">
						<ele>179</ele>
						<time>2026-04-14T07:58:20Z</time>
					</trkpt>
					<trkpt lat="48.911750" lon="1.926180">
						<ele>179</ele>
						<time>2026-04-14T07:58:32Z</time>
					</trkpt>
					<trkpt lat="48.911860" lon="1.926060">
						<ele>179</ele>
						<time>2026-04-14T07:58:34Z</time>
					</trkpt>
					<trkpt lat="48.912340" lon="1.925510">
						<ele>179</ele>
						<time>2026-04-14T07:58:45Z</time>
					</trkpt>
					<trkpt lat="48.912940" lon="1.924850">
						<ele>180</ele>
						<time>2026-04-14T07:58:58Z</time>
					</trkpt>
					<trkpt lat="48.913380" lon="1.924400">
						<ele>181</ele>
						<time>2026-04-14T07:59:07Z</time>
					</trkpt>
					<trkpt lat="48.913450" lon="1.924320">
						<ele>181</ele>
						<time>2026-04-14T07:59:09Z</time>
					</trkpt>
					<trkpt lat="48.913280" lon="1.923050">
						<ele>182</ele>
						<time>2026-04-14T07:59:24Z</time>
					</trkpt>
					<trkpt lat="48.913270" lon="1.922750">
						<ele>181</ele>
						<time>2026-04-14T07:59:28Z</time>
					</trkpt>
					<trkpt lat="48.913250" lon="1.922640">
						<ele>181</ele>
						<time>2026-04-14T07:59:29Z</time>
					</trkpt>
					<trkpt lat="48.913210" lon="1.922470">
						<ele>181</ele>
						<time>2026-04-14T07:59:31Z</time>
					</trkpt>
					<trkpt lat="48.913150" lon="1.921970">
						<ele>182</ele>
						<time>2026-04-14T07:59:37Z</time>
					</trkpt>
					<trkpt lat="48.913160" lon="1.921780">
						<ele>183</ele>
						<time>2026-04-14T07:59:39Z</time>
					</trkpt>
					<trkpt lat="48.913490" lon="1.920650">
						<ele>183</ele>
						<time>2026-04-14T07:59:54Z</time>
					</trkpt>
					<trkpt lat="48.913740" lon="1.919580">
						<ele>184</ele>
						<time>2026-04-14T08:00:07Z</time>
					</trkpt>
					<trkpt lat="48.913770" lon="1.919480">
						<ele>184</ele>
						<time>2026-04-14T08:00:08Z</time>
					</trkpt>
					<trkpt lat="48.914070" lon="1.918760">
						<ele>184</ele>
						<time>2026-04-14T08:00:18Z</time>
					</trkpt>
					<trkpt lat="48.914090" lon="1.918650">
						<ele>183</ele>
						<time>2026-04-14T08:00:20Z</time>
					</trkpt>
					<trkpt lat="48.914080" lon="1.918590">
						<ele>183</ele>
						<time>2026-04-14T08:00:20Z</time>
					</trkpt>
					<trkpt lat="48.914060" lon="1.918550">
						<ele>183</ele>
						<time>2026-04-14T08:00:21Z</time>
					</trkpt>
					<trkpt lat="48.913900" lon="1.918250">
						<ele>183</ele>
						<time>2026-04-14T08:00:25Z</time>
					</trkpt>
					<trkpt lat="48.913890" lon="1.918230">
						<ele>183</ele>
						<time>2026-04-14T08:00:26Z</time>
					</trkpt>
					<trkpt lat="48.913500" lon="1.917740">
						<ele>184</ele>
						<time>2026-04-14T08:00:35Z</time>
					</trkpt>
					<trkpt lat="48.913230" lon="1.917390">
						<ele>184</ele>
						<time>2026-04-14T08:00:41Z</time>
					</trkpt>
					<trkpt lat="48.913600" lon="1.916780">
						<ele>183</ele>
						<time>2026-04-14T08:00:51Z</time>
					</trkpt>
					<trkpt lat="48.913680" lon="1.916610">
						<ele>183</ele>
						<time>2026-04-14T08:00:53Z</time>
					</trkpt>
					<trkpt lat="48.913740" lon="1.916400">
						<ele>183</ele>
						<time>2026-04-14T08:00:56Z</time>
					</trkpt>
					<trkpt lat="48.913780" lon="1.916160">
						<ele>184</ele>
						<time>2026-04-14T08:00:59Z</time>
					</trkpt>
					<trkpt lat="48.913810" lon="1.915970">
						<ele>184</ele>
						<time>2026-04-14T08:01:01Z</time>
					</trkpt>
					<trkpt lat="48.913810" lon="1.915690">
						<ele>185</ele>
						<time>2026-04-14T08:01:04Z</time>
					</trkpt>
					<trkpt lat="48.913800" lon="1.915560">
						<ele>185</ele>
						<time>2026-04-14T08:01:06Z</time>
					</trkpt>
					<trkpt lat="48.913780" lon="1.914600">
						<ele>184</ele>
						<time>2026-04-14T08:01:17Z</time>
					</trkpt>
					<trkpt lat="48.913710" lon="1.911860">
						<ele>183</ele>
						<time>2026-04-14T08:01:49Z</time>
					</trkpt>
					<trkpt lat="48.913760" lon="1.910950">
						<ele>183</ele>
						<time>2026-04-14T08:02:00Z</time>
					</trkpt>
					<trkpt lat="48.913820" lon="1.910940">
						<ele>182</ele>
						<time>2026-04-14T08:02:01Z</time>
					</trkpt>
					<trkpt lat="48.913860" lon="1.910900">
						<ele>182</ele>
						<time>2026-04-14T08:02:02Z</time>
					</trkpt>
					<trkpt lat="48.913890" lon="1.910810">
						<ele>182</ele>
						<time>2026-04-14T08:02:03Z</time>
					</trkpt>
					<trkpt lat="48.913890" lon="1.910730">
						<ele>182</ele>
						<time>2026-04-14T08:02:04Z</time>
					</trkpt>
					<trkpt lat="48.913870" lon="1.910660">
						<ele>182</ele>
						<time>2026-04-14T08:02:05Z</time>
					</trkpt>
					<trkpt lat="48.913820" lon="1.910610">
						<ele>182</ele>
						<time>2026-04-14T08:02:06Z</time>
					</trkpt>
					<trkpt lat="48.913760" lon="1.910600">
						<ele>182</ele>
						<time>2026-04-14T08:02:07Z</time>
					</trkpt>
					<trkpt lat="48.913690" lon="1.909810">
						<ele>182</ele>
						<time>2026-04-14T08:02:16Z</time>
					</trkpt>
					<trkpt lat="48.913650" lon="1.909380">
						<ele>182</ele>
						<time>2026-04-14T08:02:21Z</time>
					</trkpt>
					<trkpt lat="48.913640" lon="1.908740">
						<ele>182</ele>
						<time>2026-04-14T08:02:29Z</time>
					</trkpt>
					<trkpt lat="48.913690" lon="1.908140">
						<ele>182</ele>
						<time>2026-04-14T08:02:36Z</time>
					</trkpt>
					<trkpt lat="48.914550" lon="1.903930">
						<ele>181</ele>
						<time>2026-04-14T08:03:27Z</time>
					</trkpt>
					<trkpt lat="48.914820" lon="1.902640">
						<ele>180</ele>
						<time>2026-04-14T08:03:43Z</time>
					</trkpt>
					<trkpt lat="48.915250" lon="1.900590">
						<ele>178</ele>
						<time>2026-04-14T08:04:08Z</time>
					</trkpt>
					<trkpt lat="48.915740" lon="1.898310">
						<ele>177</ele>
						<time>2026-04-14T08:04:37Z</time>
					</trkpt>
					<trkpt lat="48.915830" lon="1.897860">
						<ele>178</ele>
						<time>2026-04-14T08:04:42Z</time>
					</trkpt>
					<trkpt lat="48.915860" lon="1.897510">
						<ele>179</ele>
						<time>2026-04-14T08:04:46Z</time>
					</trkpt>
					<trkpt lat="48.915870" lon="1.897370">
						<ele>179</ele>
						<time>2026-04-14T08:04:48Z</time>
					</trkpt>
					<trkpt lat="48.915870" lon="1.897130">
						<ele>178</ele>
						<time>2026-04-14T08:04:51Z</time>
					</trkpt>
					<trkpt lat="48.915840" lon="1.896770">
						<ele>177</ele>
						<time>2026-04-14T08:04:55Z</time>
					</trkpt>
					<trkpt lat="48.914940" lon="1.890640">
						<ele>177</ele>
						<time>2026-04-14T08:06:08Z</time>
					</trkpt>
					<trkpt lat="48.914900" lon="1.890180">
						<ele>178</ele>
						<time>2026-04-14T08:06:14Z</time>
					</trkpt>
					<trkpt lat="48.914760" lon="1.887280">
						<ele>180</ele>
						<time>2026-04-14T08:06:48Z</time>
					</trkpt>
					<trkpt lat="48.914650" lon="1.884550">
						<ele>181</ele>
						<time>2026-04-14T08:07:20Z</time>
					</trkpt>
					<trkpt lat="48.914570" lon="1.882400">
						<ele>182</ele>
						<time>2026-04-14T08:07:45Z</time>
					</trkpt>
					<trkpt lat="48.914570" lon="1.882130">
						<ele>182</ele>
						<time>2026-04-14T08:07:48Z</time>
					</trkpt>
					<trkpt lat="48.914620" lon="1.881750">
						<ele>183</ele>
						<time>2026-04-14T08:07:53Z</time>
					</trkpt>
					<trkpt lat="48.914680" lon="1.881540">
						<ele>183</ele>
						<time>2026-04-14T08:07:55Z</time>
					</trkpt>
					<trkpt lat="48.914730" lon="1.881410">
						<ele>183</ele>
						<time>2026-04-14T08:07:57Z</time>
					</trkpt>
					<trkpt lat="48.914850" lon="1.881140">
						<ele>184</ele>
						<time>2026-04-14T08:08:01Z</time>
					</trkpt>
					<trkpt lat="48.915010" lon="1.880940">
						<ele>185</ele>
						<time>2026-04-14T08:08:04Z</time>
					</trkpt>
					<trkpt lat="48.915210" lon="1.880750">
						<ele>185</ele>
						<time>2026-04-14T08:08:09Z</time>
					</trkpt>
					<trkpt lat="48.915450" lon="1.880600">
						<ele>185</ele>
						<time>2026-04-14T08:08:13Z</time>
					</trkpt>
					<trkpt lat="48.917560" lon="1.879200">
						<ele>183</ele>
						<time>2026-04-14T08:08:54Z</time>
					</trkpt>
					<trkpt lat="48.919150" lon="1.878130">
						<ele>175</ele>
						<time>2026-04-14T08:09:25Z</time>
					</trkpt>
					<trkpt lat="48.919400" lon="1.877900">
						<ele>174</ele>
						<time>2026-04-14T08:09:30Z</time>
					</trkpt>
					<trkpt lat="48.919840" lon="1.877320">
						<ele>172</ele>
						<time>2026-04-14T08:09:41Z</time>
					</trkpt>
					<trkpt lat="48.920530" lon="1.876370">
						<ele>168</ele>
						<time>2026-04-14T08:09:57Z</time>
					</trkpt>
					<trkpt lat="48.921040" lon="1.875690">
						<ele>164</ele>
						<time>2026-04-14T08:10:09Z</time>
					</trkpt>
					<trkpt lat="48.921370" lon="1.875240">
						<ele>161</ele>
						<time>2026-04-14T08:10:17Z</time>
					</trkpt>
					<trkpt lat="48.921760" lon="1.874730">
						<ele>159</ele>
						<time>2026-04-14T08:10:26Z</time>
					</trkpt>
					<trkpt lat="48.921900" lon="1.874500">
						<ele>158</ele>
						<time>2026-04-14T08:10:30Z</time>
					</trkpt>
					<trkpt lat="48.921940" lon="1.874420">
						<ele>158</ele>
						<time>2026-04-14T08:10:31Z</time>
					</trkpt>
					<trkpt lat="48.922230" lon="1.873900">
						<ele>156</ele>
						<time>2026-04-14T08:10:39Z</time>
					</trkpt>
					<trkpt lat="48.922540" lon="1.873530">
						<ele>155</ele>
						<time>2026-04-14T08:10:46Z</time>
					</trkpt>
					<trkpt lat="48.922660" lon="1.873350">
						<ele>154</ele>
						<time>2026-04-14T08:10:49Z</time>
					</trkpt>
					<trkpt lat="48.922680" lon="1.873320">
						<ele>154</ele>
						<time>2026-04-14T08:10:50Z</time>
					</trkpt>
					<trkpt lat="48.922700" lon="1.873290">
						<ele>154</ele>
						<time>2026-04-14T08:10:50Z</time>
					</trkpt>
					<trkpt lat="48.922800" lon="1.873020">
						<ele>153</ele>
						<time>2026-04-14T08:10:54Z</time>
					</trkpt>
					<trkpt lat="48.922840" lon="1.872760">
						<ele>152</ele>
						<time>2026-04-14T08:10:57Z</time>
					</trkpt>
					<trkpt lat="48.922840" lon="1.872540">
						<ele>152</ele>
						<time>2026-04-14T08:11:00Z</time>
					</trkpt>
					<trkpt lat="48.922790" lon="1.872350">
						<ele>151</ele>
						<time>2026-04-14T08:11:02Z</time>
					</trkpt>
					<trkpt lat="48.922680" lon="1.872090">
						<ele>150</ele>
						<time>2026-04-14T08:11:06Z</time>
					</trkpt>
					<trkpt lat="48.922520" lon="1.871960">
						<ele>149</ele>
						<time>2026-04-14T08:11:09Z</time>
					</trkpt>
					<trkpt lat="48.922380" lon="1.871900">
						<ele>148</ele>
						<time>2026-04-14T08:11:11Z</time>
					</trkpt>
					<trkpt lat="48.922240" lon="1.871900">
						<ele>147</ele>
						<time>2026-04-14T08:11:14Z</time>
					</trkpt>
					<trkpt lat="48.921540" lon="1.872200">
						<ele>144</ele>
						<time>2026-04-14T08:11:27Z</time>
					</trkpt>
					<trkpt lat="48.921430" lon="1.872160">
						<ele>144</ele>
						<time>2026-04-14T08:11:29Z</time>
					</trkpt>
					<trkpt lat="48.921410" lon="1.872130">
						<ele>143</ele>
						<time>2026-04-14T08:11:29Z</time>
					</trkpt>
					<trkpt lat="48.921370" lon="1.872110">
						<ele>143</ele>
						<time>2026-04-14T08:11:30Z</time>
					</trkpt>
					<trkpt lat="48.921260" lon="1.871980">
						<ele>142</ele>
						<time>2026-04-14T08:11:33Z</time>
					</trkpt>
					<trkpt lat="48.921220" lon="1.871930">
						<ele>141</ele>
						<time>2026-04-14T08:11:33Z</time>
					</trkpt>
					<trkpt lat="48.918870" lon="1.867620">
						<ele>112</ele>
						<time>2026-04-14T08:12:39Z</time>
					</trkpt>
					<trkpt lat="48.918180" lon="1.866340">
						<ele>108</ele>
						<time>2026-04-14T08:12:58Z</time>
					</trkpt>
					<trkpt lat="48.917080" lon="1.864300">
						<ele>99</ele>
						<time>2026-04-14T08:13:29Z</time>
					</trkpt>
					<trkpt lat="48.916870" lon="1.863960">
						<ele>96</ele>
						<time>2026-04-14T08:13:35Z</time>
					</trkpt>
					<trkpt lat="48.916620" lon="1.863600">
						<ele>94</ele>
						<time>2026-04-14T08:13:41Z</time>
					</trkpt>
					<trkpt lat="48.915760" lon="1.862650">
						<ele>86</ele>
						<time>2026-04-14T08:14:00Z</time>
					</trkpt>
					<trkpt lat="48.915550" lon="1.862350">
						<ele>85</ele>
						<time>2026-04-14T08:14:05Z</time>
					</trkpt>
					<trkpt lat="48.915390" lon="1.862080">
						<ele>83</ele>
						<time>2026-04-14T08:14:09Z</time>
					</trkpt>
					<trkpt lat="48.915270" lon="1.861840">
						<ele>82</ele>
						<time>2026-04-14T08:14:13Z</time>
					</trkpt>
					<trkpt lat="48.914940" lon="1.861030">
						<ele>79</ele>
						<time>2026-04-14T08:14:24Z</time>
					</trkpt>
					<trkpt lat="48.914800" lon="1.860750">
						<ele>77</ele>
						<time>2026-04-14T08:14:28Z</time>
					</trkpt>
					<trkpt lat="48.913960" lon="1.859500">
						<ele>71</ele>
						<time>2026-04-14T08:14:49Z</time>
					</trkpt>
					<trkpt lat="48.913460" lon="1.858740">
						<ele>69</ele>
						<time>2026-04-14T08:15:01Z</time>
					</trkpt>
					<trkpt lat="48.913290" lon="1.858520">
						<ele>67</ele>
						<time>2026-04-14T08:15:05Z</time>
					</trkpt>
					<trkpt lat="48.913160" lon="1.858410">
						<ele>66</ele>
						<time>2026-04-14T08:15:08Z</time>
					</trkpt>
					<trkpt lat="48.912920" lon="1.858270">
						<ele>64</ele>
						<time>2026-04-14T08:15:12Z</time>
					</trkpt>
					<trkpt lat="48.911810" lon="1.857710">
						<ele>55</ele>
						<time>2026-04-14T08:15:33Z</time>
					</trkpt>
					<trkpt lat="48.911500" lon="1.857490">
						<ele>52</ele>
						<time>2026-04-14T08:15:39Z</time>
					</trkpt>
					<trkpt lat="48.911360" lon="1.857330">
						<ele>51</ele>
						<time>2026-04-14T08:15:42Z</time>
					</trkpt>
					<trkpt lat="48.911230" lon="1.857160">
						<ele>50</ele>
						<time>2026-04-14T08:15:46Z</time>
					</trkpt>
					<trkpt lat="48.911150" lon="1.857020">
						<ele>49</ele>
						<time>2026-04-14T08:15:48Z</time>
					</trkpt>
					<trkpt lat="48.911070" lon="1.856860">
						<ele>48</ele>
						<time>2026-04-14T08:15:50Z</time>
					</trkpt>
					<trkpt lat="48.911030" lon="1.856740">
						<ele>47</ele>
						<time>2026-04-14T08:15:52Z</time>
					</trkpt>
					<trkpt lat="48.911000" lon="1.856600">
						<ele>47</ele>
						<time>2026-04-14T08:15:53Z</time>
					</trkpt>
					<trkpt lat="48.910980" lon="1.856390">
						<ele>46</ele>
						<time>2026-04-14T08:15:56Z</time>
					</trkpt>
					<trkpt lat="48.910970" lon="1.856240">
						<ele>45</ele>
						<time>2026-04-14T08:15:58Z</time>
					</trkpt>
					<trkpt lat="48.911000" lon="1.856000">
						<ele>45</ele>
						<time>2026-04-14T08:16:00Z</time>
					</trkpt>
					<trkpt lat="48.911050" lon="1.855820">
						<ele>44</ele>
						<time>2026-04-14T08:16:03Z</time>
					</trkpt>
					<trkpt lat="48.911190" lon="1.855380">
						<ele>43</ele>
						<time>2026-04-14T08:16:08Z</time>
					</trkpt>
					<trkpt lat="48.911240" lon="1.855250">
						<ele>43</ele>
						<time>2026-04-14T08:16:10Z</time>
					</trkpt>
					<trkpt lat="48.911310" lon="1.855100">
						<ele>42</ele>
						<time>2026-04-14T08:16:12Z</time>
					</trkpt>
					<trkpt lat="48.911410" lon="1.854980">
						<ele>42</ele>
						<time>2026-04-14T08:16:15Z</time>
					</trkpt>
					<trkpt lat="48.911870" lon="1.854640">
						<ele>44</ele>
						<time>2026-04-14T08:16:24Z</time>
					</trkpt>
					<trkpt lat="48.912010" lon="1.854490">
						<ele>44</ele>
						<time>2026-04-14T08:16:27Z</time>
					</trkpt>
					<trkpt lat="48.912030" lon="1.854440">
						<ele>44</ele>
						<time>2026-04-14T08:16:27Z</time>
					</trkpt>
					<trkpt lat="48.912040" lon="1.854390">
						<ele>43</ele>
						<time>2026-04-14T08:16:28Z</time>
					</trkpt>
					<trkpt lat="48.912030" lon="1.854290">
						<ele>43</ele>
						<time>2026-04-14T08:16:29Z</time>
					</trkpt>
					<trkpt lat="48.911780" lon="1.853460">
						<ele>36</ele>
						<time>2026-04-14T08:16:40Z</time>
					</trkpt>
					<trkpt lat="48.911140" lon="1.853820">
						<ele>36</ele>
						<time>2026-04-14T08:16:52Z</time>
					</trkpt>
					<trkpt lat="48.910860" lon="1.853980">
						<ele>36</ele>
						<time>2026-04-14T08:16:57Z</time>
					</trkpt>
					<trkpt lat="48.910740" lon="1.854100">
						<ele>37</ele>
						<time>2026-04-14T08:17:00Z</time>
					</trkpt>
					<trkpt lat="48.910680" lon="1.853930">
						<ele>36</ele>
						<time>2026-04-14T08:17:02Z</time>
					</trkpt>
					<trkpt lat="48.910520" lon="1.853700">
						<ele>35</ele>
						<time>2026-04-14T08:17:06Z</time>
					</trkpt>
					<trkpt lat="48.910240" lon="1.853370">
						<ele>34</ele>
						<time>2026-04-14T08:17:12Z</time>
					</trkpt>
					<trkpt lat="48.910140" lon="1.853250">
						<ele>34</ele>
						<time>2026-04-14T08:17:15Z</time>
					</trkpt>
					<trkpt lat="48.910050" lon="1.853150">
						<ele>34</ele>
						<time>2026-04-14T08:17:17Z</time>
					</trkpt>
					<trkpt lat="48.909830" lon="1.852870">
						<ele>35</ele>
						<time>2026-04-14T08:17:22Z</time>
					</trkpt>
					<trkpt lat="48.909740" lon="1.852760">
						<ele>35</ele>
						<time>2026-04-14T08:17:24Z</time>
					</trkpt>
					<trkpt lat="48.909600" lon="1.852590">
						<ele>35</ele>
						<time>2026-04-14T08:17:27Z</time>
					</trkpt>
					<trkpt lat="48.909530" lon="1.852490">
						<ele>35</ele>
						<time>2026-04-14T08:17:29Z</time>
					</trkpt>
					<trkpt lat="48.909480" lon="1.852400">
						<ele>35</ele>
						<time>2026-04-14T08:17:30Z</time>
					</trkpt>
					<trkpt lat="48.909460" lon="1.852350">
						<ele>35</ele>
						<time>2026-04-14T08:17:31Z</time>
					</trkpt>
					<trkpt lat="48.909140" lon="1.851800">
						<ele>35</ele>
						<time>2026-04-14T08:17:39Z</time>
					</trkpt>
					<trkpt lat="48.909090" lon="1.851730">
						<ele>35</ele>
						<time>2026-04-14T08:17:41Z</time>
					</trkpt>
					<trkpt lat="48.908920" lon="1.851480">
						<ele>35</ele>
						<time>2026-04-14T08:17:45Z</time>
					</trkpt>
					<trkpt lat="48.908780" lon="1.851320">
						<ele>36</ele>
						<time>2026-04-14T08:17:48Z</time>
					</trkpt>
					<trkpt lat="48.908720" lon="1.851240">
						<ele>36</ele>
						<time>2026-04-14T08:17:49Z</time>
					</trkpt>
					<trkpt lat="48.908560" lon="1.851110">
						<ele>36</ele>
						<time>2026-04-14T08:17:53Z</time>
					</trkpt>
					<trkpt lat="48.908400" lon="1.850910">
						<ele>37</ele>
						<time>2026-04-14T08:17:56Z</time>
					</trkpt>
					<trkpt lat="48.908130" lon="1.850450">
						<ele>39</ele>
						<time>2026-04-14T08:18:03Z</time>
					</trkpt>
					<trkpt lat="48.907980" lon="1.850240">
						<ele>41</ele>
						<time>2026-04-14T08:18:07Z</time>
					</trkpt>
					<trkpt lat="48.907860" lon="1.850040">
						<ele>42</ele>
						<time>2026-04-14T08:18:10Z</time>
					</trkpt>
					<trkpt lat="48.907670" lon="1.849740">
						<ele>44</ele>
						<time>2026-04-14T08:18:15Z</time>
					</trkpt>
					<trkpt lat="48.907470" lon="1.849460">
						<ele>45</ele>
						<time>2026-04-14T08:18:20Z</time>
					</trkpt>
					<trkpt lat="48.907180" lon="1.849070">
						<ele>47</ele>
						<time>2026-04-14T08:18:27Z</time>
					</trkpt>
					<trkpt lat="48.907120" lon="1.849010">
						<ele>48</ele>
						<time>2026-04-14T08:18:28Z</time>
					</trkpt>
					<trkpt lat="48.906840" lon="1.848740">
						<ele>49</ele>
						<time>2026-04-14T08:18:34Z</time>
					</trkpt>
					<trkpt lat="48.906790" lon="1.848690">
						<ele>49</ele>
						<time>2026-04-14T08:18:35Z</time>
					</trkpt>
					<trkpt lat="48.906690" lon="1.848610">
						<ele>50</ele>
						<time>2026-04-14T08:18:37Z</time>
					</trkpt>
					<trkpt lat="48.906620" lon="1.848540">
						<ele>50</ele>
						<time>2026-04-14T08:18:39Z</time>
					</trkpt>
					<trkpt lat="48.906550" lon="1.848470">
						<ele>51</ele>
						<time>2026-04-14T08:18:40Z</time>
					</trkpt>
					<trkpt lat="48.906360" lon="1.848270">
						<ele>54</ele>
						<time>2026-04-14T08:18:44Z</time>
					</trkpt>
					<trkpt lat="48.906140" lon="1.848080">
						<ele>57</ele>
						<time>2026-04-14T08:18:49Z</time>
					</trkpt>
					<trkpt lat="48.906080" lon="1.848040">
						<ele>58</ele>
						<time>2026-04-14T08:18:50Z</time>
					</trkpt>
					<trkpt lat="48.905970" lon="1.847960">
						<ele>59</ele>
						<time>2026-04-14T08:18:52Z</time>
					</trkpt>
					<trkpt lat="48.905890" lon="1.847930">
						<ele>60</ele>
						<time>2026-04-14T08:18:53Z</time>
					</trkpt>
					<trkpt lat="48.905570" lon="1.847800">
						<ele>61</ele>
						<time>2026-04-14T08:18:59Z</time>
					</trkpt>
					<trkpt lat="48.905370" lon="1.847750">
						<ele>62</ele>
						<time>2026-04-14T08:19:03Z</time>
					</trkpt>
					<trkpt lat="48.905000" lon="1.847670">
						<ele>62</ele>
						<time>2026-04-14T08:19:10Z</time>
					</trkpt>
					<trkpt lat="48.904600" lon="1.847650">
						<ele>64</ele>
						<time>2026-04-14T08:19:17Z</time>
					</trkpt>
					<trkpt lat="48.903940" lon="1.847580">
						<ele>66</ele>
						<time>2026-04-14T08:19:29Z</time>
					</trkpt>
					<trkpt lat="48.903690" lon="1.847490">
						<ele>65</ele>
						<time>2026-04-14T08:19:33Z</time>
					</trkpt>
					<trkpt lat="48.903310" lon="1.847310">
						<ele>66</ele>
						<time>2026-04-14T08:19:40Z</time>
					</trkpt>
					<trkpt lat="48.903160" lon="1.847250">
						<ele>67</ele>
						<time>2026-04-14T08:19:43Z</time>
					</trkpt>
					<trkpt lat="48.903050" lon="1.847200">
						<ele>67</ele>
						<time>2026-04-14T08:19:45Z</time>
					</trkpt>
					<trkpt lat="48.902420" lon="1.846940">
						<ele>69</ele>
						<time>2026-04-14T08:19:57Z</time>
					</trkpt>
					<trkpt lat="48.902170" lon="1.846820">
						<ele>70</ele>
						<time>2026-04-14T08:20:01Z</time>
					</trkpt>
					<trkpt lat="48.901580" lon="1.846380">
						<ele>72</ele>
						<time>2026-04-14T08:20:13Z</time>
					</trkpt>
					<trkpt lat="48.901220" lon="1.846150">
						<ele>73</ele>
						<time>2026-04-14T08:20:20Z</time>
					</trkpt>
					<trkpt lat="48.900620" lon="1.845840">
						<ele>71</ele>
						<time>2026-04-14T08:20:31Z</time>
					</trkpt>
					<trkpt lat="48.899870" lon="1.845570">
						<ele>73</ele>
						<time>2026-04-14T08:20:45Z</time>
					</trkpt>
					<trkpt lat="48.899200" lon="1.845380">
						<ele>76</ele>
						<time>2026-04-14T08:20:57Z</time>
					</trkpt>
					<trkpt lat="48.898040" lon="1.845050">
						<ele>80</ele>
						<time>2026-04-14T08:21:18Z</time>
					</trkpt>
					<trkpt lat="48.897960" lon="1.845020">
						<ele>80</ele>
						<time>2026-04-14T08:21:19Z</time>
					</trkpt>
					<trkpt lat="48.897830" lon="1.844960">
						<ele>81</ele>
						<time>2026-04-14T08:21:22Z</time>
					</trkpt>
					<trkpt lat="48.896310" lon="1.843830">
						<ele>88</ele>
						<time>2026-04-14T08:21:52Z</time>
					</trkpt>
					<trkpt lat="48.896080" lon="1.843570">
						<ele>90</ele>
						<time>2026-04-14T08:21:57Z</time>
					</trkpt>
					<trkpt lat="48.895120" lon="1.842070">
						<ele>99</ele>
						<time>2026-04-14T08:22:22Z</time>
					</trkpt>
					<trkpt lat="48.894250" lon="1.840810">
						<ele>97</ele>
						<time>2026-04-14T08:22:43Z</time>
					</trkpt>
					<trkpt lat="48.893040" lon="1.839070">
						<ele>102</ele>
						<time>2026-04-14T08:23:13Z</time>
					</trkpt>
					<trkpt lat="48.892930" lon="1.838910">
						<ele>102</ele>
						<time>2026-04-14T08:23:15Z</time>
					</trkpt>
					<trkpt lat="48.892660" lon="1.838640">
						<ele>103</ele>
						<time>2026-04-14T08:23:21Z</time>
					</trkpt>
					<trkpt lat="48.891300" lon="1.837350">
						<ele>106</ele>
						<time>2026-04-14T08:23:50Z</time>
					</trkpt>
					<trkpt lat="48.891020" lon="1.837050">
						<ele>106</ele>
						<time>2026-04-14T08:23:56Z</time>
					</trkpt>
					<trkpt lat="48.890640" lon="1.836470">
						<ele>107</ele>
						<time>2026-04-14T08:24:05Z</time>
					</trkpt>
					<trkpt lat="48.888450" lon="1.832990">
						<ele>114</ele>
						<time>2026-04-14T08:25:02Z</time>
					</trkpt>
					<trkpt lat="48.888180" lon="1.832530">
						<ele>114</ele>
						<time>2026-04-14T08:25:09Z</time>
					</trkpt>
					<trkpt lat="48.887490" lon="1.831040">
						<ele>117</ele>
						<time>2026-04-14T08:25:30Z</time>
					</trkpt>
					<trkpt lat="48.887000" lon="1.830010">
						<ele>118</ele>
						<time>2026-04-14T08:25:45Z</time>
					</trkpt>
					<trkpt lat="48.886740" lon="1.829520">
						<ele>118</ele>
						<time>2026-04-14T08:25:52Z</time>
					</trkpt>
					<trkpt lat="48.886420" lon="1.829030">
						<ele>119</ele>
						<time>2026-04-14T08:26:00Z</time>
					</trkpt>
					<trkpt lat="48.886100" lon="1.828630">
						<ele>120</ele>
						<time>2026-04-14T08:26:08Z</time>
					</trkpt>
					<trkpt lat="48.885750" lon="1.828280">
						<ele>120</ele>
						<time>2026-04-14T08:26:15Z</time>
					</trkpt>
					<trkpt lat="48.885370" lon="1.827960">
						<ele>121</ele>
						<time>2026-04-14T08:26:23Z</time>
					</trkpt>
					<trkpt lat="48.885110" lon="1.827790">
						<ele>122</ele>
						<time>2026-04-14T08:26:28Z</time>
					</trkpt>
					<trkpt lat="48.884160" lon="1.827250">
						<ele>123</ele>
						<time>2026-04-14T08:26:46Z</time>
					</trkpt>
					<trkpt lat="48.883550" lon="1.826930">
						<ele>122</ele>
						<time>2026-04-14T08:26:58Z</time>
					</trkpt>
					<trkpt lat="48.883200" lon="1.826780">
						<ele>122</ele>
						<time>2026-04-14T08:27:04Z</time>
					</trkpt>
					<trkpt lat="48.883080" lon="1.826720">
						<ele>122</ele>
						<time>2026-04-14T08:27:06Z</time>
					</trkpt>
					<trkpt lat="48.883010" lon="1.826630">
						<ele>122</ele>
						<time>2026-04-14T08:27:08Z</time>
					</trkpt>
					<trkpt lat="48.882870" lon="1.826540">
						<ele>122</ele>
						<time>2026-04-14T08:27:11Z</time>
					</trkpt>
					<trkpt lat="48.882480" lon="1.826320">
						<ele>122</ele>
						<time>2026-04-14T08:27:18Z</time>
					</trkpt>
					<trkpt lat="48.881560" lon="1.825810">
						<ele>120</ele>
						<time>2026-04-14T08:27:35Z</time>
					</trkpt>
					<trkpt lat="48.881490" lon="1.825680">
						<ele>120</ele>
						<time>2026-04-14T08:27:37Z</time>
					</trkpt>
					<trkpt lat="48.881900" lon="1.825150">
						<ele>120</ele>
						<time>2026-04-14T08:27:47Z</time>
					</trkpt>
					<trkpt lat="48.882160" lon="1.824820">
						<ele>119</ele>
						<time>2026-04-14T08:27:53Z</time>
					</trkpt>
					<trkpt lat="48.882440" lon="1.824520">
						<ele>118</ele>
						<time>2026-04-14T08:27:59Z</time>
					</trkpt>
					<trkpt lat="48.882520" lon="1.824440">
						<ele>118</ele>
						<time>2026-04-14T08:28:01Z</time>
					</trkpt>
					<trkpt lat="48.885530" lon="1.821560">
						<ele>115</ele>
						<time>2026-04-14T08:29:04Z</time>
					</trkpt>
					<trkpt lat="48.885680" lon="1.821350">
						<ele>115</ele>
						<time>2026-04-14T08:29:08Z</time>
					</trkpt>
					<trkpt lat="48.885780" lon="1.821150">
						<ele>114</ele>
						<time>2026-04-14T08:29:11Z</time>
					</trkpt>
					<trkpt lat="48.885820" lon="1.821000">
						<ele>114</ele>
						<time>2026-04-14T08:29:13Z</time>
					</trkpt>
					<trkpt lat="48.885870" lon="1.820810">
						<ele>114</ele>
						<time>2026-04-14T08:29:15Z</time>
					</trkpt>
					<trkpt lat="48.886030" lon="1.819410">
						<ele>115</ele>
						<time>2026-04-14T08:29:32Z</time>
					</trkpt>
					<trkpt lat="48.886110" lon="1.818990">
						<ele>116</ele>
						<time>2026-04-14T08:29:37Z</time>
					</trkpt>
					<trkpt lat="48.886300" lon="1.818590">
						<ele>116</ele>
						<time>2026-04-14T08:29:42Z</time>
					</trkpt>
					<trkpt lat="48.887540" lon="1.816490">
						<ele>114</ele>
						<time>2026-04-14T08:30:15Z</time>
					</trkpt>
					<trkpt lat="48.887850" lon="1.816020">
						<ele>113</ele>
						<time>2026-04-14T08:30:23Z</time>
					</trkpt>
					<trkpt lat="48.888450" lon="1.815260">
						<ele>112</ele>
						<time>2026-04-14T08:30:37Z</time>
					</trkpt>
					<trkpt lat="48.888880" lon="1.814770">
						<ele>112</ele>
						<time>2026-04-14T08:30:47Z</time>
					</trkpt>
					<trkpt lat="48.889260" lon="1.814390">
						<ele>113</ele>
						<time>2026-04-14T08:30:55Z</time>
					</trkpt>
					<trkpt lat="48.889630" lon="1.814070">
						<ele>114</ele>
						<time>2026-04-14T08:31:02Z</time>
					</trkpt>
					<trkpt lat="48.890010" lon="1.813770">
						<ele>115</ele>
						<time>2026-04-14T08:31:10Z</time>
					</trkpt>
					<trkpt lat="48.890360" lon="1.813500">
						<ele>116</ele>
						<time>2026-04-14T08:31:17Z</time>
					</trkpt>
					<trkpt lat="48.890620" lon="1.813250">
						<ele>116</ele>
						<time>2026-04-14T08:31:22Z</time>
					</trkpt>
					<trkpt lat="48.891280" lon="1.812490">
						<ele>115</ele>
						<time>2026-04-14T08:31:37Z</time>
					</trkpt>
					<trkpt lat="48.891940" lon="1.811690">
						<ele>115</ele>
						<time>2026-04-14T08:31:52Z</time>
					</trkpt>
					<trkpt lat="48.892910" lon="1.810580">
						<ele>116</ele>
						<time>2026-04-14T08:32:14Z</time>
					</trkpt>
					<trkpt lat="48.894020" lon="1.809280">
						<ele>118</ele>
						<time>2026-04-14T08:32:39Z</time>
					</trkpt>
					<trkpt lat="48.894310" lon="1.809010">
						<ele>118</ele>
						<time>2026-04-14T08:32:45Z</time>
					</trkpt>
					<trkpt lat="48.895480" lon="1.808080">
						<ele>118</ele>
						<time>2026-04-14T08:33:08Z</time>
					</trkpt>
					<trkpt lat="48.898710" lon="1.805630">
						<ele>115</ele>
						<time>2026-04-14T08:34:12Z</time>
					</trkpt>
					<trkpt lat="48.898920" lon="1.805480">
						<ele>116</ele>
						<time>2026-04-14T08:34:17Z</time>
					</trkpt>
					<trkpt lat="48.899700" lon="1.804800">
						<ele>117</ele>
						<time>2026-04-14T08:34:33Z</time>
					</trkpt>
					<trkpt lat="48.900350" lon="1.804050">
						<ele>116</ele>
						<time>2026-04-14T08:34:47Z</time>
					</trkpt>
					<trkpt lat="48.901130" lon="1.802740">
						<ele>113</ele>
						<time>2026-04-14T08:35:08Z</time>
					</trkpt>
					<trkpt lat="48.901580" lon="1.801900">
						<ele>114</ele>
						<time>2026-04-14T08:35:20Z</time>
					</trkpt>
					<trkpt lat="48.901890" lon="1.801450">
						<ele>114</ele>
						<time>2026-04-14T08:35:28Z</time>
					</trkpt>
					<trkpt lat="48.902770" lon="1.800390">
						<ele>115</ele>
						<time>2026-04-14T08:35:48Z</time>
					</trkpt>
					<trkpt lat="48.903730" lon="1.799320">
						<ele>115</ele>
						<time>2026-04-14T08:36:09Z</time>
					</trkpt>
					<trkpt lat="48.904000" lon="1.799100">
						<ele>114</ele>
						<time>2026-04-14T08:36:15Z</time>
					</trkpt>
					<trkpt lat="48.904880" lon="1.798640">
						<ele>112</ele>
						<time>2026-04-14T08:36:31Z</time>
					</trkpt>
					<trkpt lat="48.905390" lon="1.798300">
						<ele>111</ele>
						<time>2026-04-14T08:36:41Z</time>
					</trkpt>
					<trkpt lat="48.905820" lon="1.797890">
						<ele>111</ele>
						<time>2026-04-14T08:36:50Z</time>
					</trkpt>
					<trkpt lat="48.906480" lon="1.797200">
						<ele>109</ele>
						<time>2026-04-14T08:37:04Z</time>
					</trkpt>
					<trkpt lat="48.907010" lon="1.796590">
						<ele>104</ele>
						<time>2026-04-14T08:37:16Z</time>
					</trkpt>
					<trkpt lat="48.907720" lon="1.795560">
						<ele>101</ele>
						<time>2026-04-14T08:37:34Z</time>
					</trkpt>
					<trkpt lat="48.907810" lon="1.795430">
						<ele>101</ele>
						<time>2026-04-14T08:37:36Z</time>
					</trkpt>
					<trkpt lat="48.907940" lon="1.795270">
						<ele>101</ele>
						<time>2026-04-14T08:37:39Z</time>
					</trkpt>
					<trkpt lat="48.908140" lon="1.795050">
						<ele>101</ele>
						<time>2026-04-14T08:37:43Z</time>
					</trkpt>
					<trkpt lat="48.908260" lon="1.794940">
						<ele>102</ele>
						<time>2026-04-14T08:37:46Z</time>
					</trkpt>
					<trkpt lat="48.908750" lon="1.794680">
						<ele>103</ele>
						<time>2026-04-14T08:37:55Z</time>
					</trkpt>
					<trkpt lat="48.908930" lon="1.794580">
						<ele>103</ele>
						<time>2026-04-14T08:37:58Z</time>
					</trkpt>
					<trkpt lat="48.909100" lon="1.794440">
						<ele>102</ele>
						<time>2026-04-14T08:38:02Z</time>
					</trkpt>
					<trkpt lat="48.909170" lon="1.794370">
						<ele>102</ele>
						<time>2026-04-14T08:38:03Z</time>
					</trkpt>
					<trkpt lat="48.909240" lon="1.794270">
						<ele>102</ele>
						<time>2026-04-14T08:38:05Z</time>
					</trkpt>
					<trkpt lat="48.909360" lon="1.794090">
						<ele>102</ele>
						<time>2026-04-14T08:38:08Z</time>
					</trkpt>
					<trkpt lat="48.909420" lon="1.793940">
						<ele>102</ele>
						<time>2026-04-14T08:38:10Z</time>
					</trkpt>
					<trkpt lat="48.909560" lon="1.793600">
						<ele>103</ele>
						<time>2026-04-14T08:38:15Z</time>
					</trkpt>
					<trkpt lat="48.909640" lon="1.793260">
						<ele>103</ele>
						<time>2026-04-14T08:38:19Z</time>
					</trkpt>
					<trkpt lat="48.909740" lon="1.792720">
						<ele>102</ele>
						<time>2026-04-14T08:38:26Z</time>
					</trkpt>
					<trkpt lat="48.909820" lon="1.792090">
						<ele>100</ele>
						<time>2026-04-14T08:38:33Z</time>
					</trkpt>
					<trkpt lat="48.909910" lon="1.791310">
						<ele>99</ele>
						<time>2026-04-14T08:38:42Z</time>
					</trkpt>
					<trkpt lat="48.909950" lon="1.791060">
						<ele>99</ele>
						<time>2026-04-14T08:38:45Z</time>
					</trkpt>
					<trkpt lat="48.910030" lon="1.790790">
						<ele>99</ele>
						<time>2026-04-14T08:38:49Z</time>
					</trkpt>
					<trkpt lat="48.910210" lon="1.790340">
						<ele>99</ele>
						<time>2026-04-14T08:38:55Z</time>
					</trkpt>
					<trkpt lat="48.910420" lon="1.789910">
						<ele>99</ele>
						<time>2026-04-14T08:39:01Z</time>
					</trkpt>
					<trkpt lat="48.910490" lon="1.789730">
						<ele>99</ele>
						<time>2026-04-14T08:39:04Z</time>
					</trkpt>
					<trkpt lat="48.910540" lon="1.789570">
						<ele>99</ele>
						<time>2026-04-14T08:39:06Z</time>
					</trkpt>
					<trkpt lat="48.910570" lon="1.789430">
						<ele>99</ele>
						<time>2026-04-14T08:39:07Z</time>
					</trkpt>
					<trkpt lat="48.910590" lon="1.789280">
						<ele>99</ele>
						<time>2026-04-14T08:39:09Z</time>
					</trkpt>
					<trkpt lat="48.910590" lon="1.789160">
						<ele>99</ele>
						<time>2026-04-14T08:39:11Z</time>
					</trkpt>
					<trkpt lat="48.910570" lon="1.789080">
						<ele>99</ele>
						<time>2026-04-14T08:39:12Z</time>
					</trkpt>
					<trkpt lat="48.910520" lon="1.788940">
						<ele>99</ele>
						<time>2026-04-14T08:39:14Z</time>
					</trkpt>
					<trkpt lat="48.910490" lon="1.788850">
						<ele>99</ele>
						<time>2026-04-14T08:39:15Z</time>
					</trkpt>
					<trkpt lat="48.910420" lon="1.788640">
						<ele>99</ele>
						<time>2026-04-14T08:39:17Z</time>
					</trkpt>
					<trkpt lat="48.910390" lon="1.788510">
						<ele>99</ele>
						<time>2026-04-14T08:39:19Z</time>
					</trkpt>
					<trkpt lat="48.910380" lon="1.788320">
						<ele>99</ele>
						<time>2026-04-14T08:39:21Z</time>
					</trkpt>
					<trkpt lat="48.910390" lon="1.788130">
						<ele>99</ele>
						<time>2026-04-14T08:39:24Z</time>
					</trkpt>
					<trkpt lat="48.910410" lon="1.788050">
						<ele>99</ele>
						<time>2026-04-14T08:39:25Z</time>
					</trkpt>
					<trkpt lat="48.910460" lon="1.787930">
						<ele>98</ele>
						<time>2026-04-14T08:39:26Z</time>
					</trkpt>
					<trkpt lat="48.910490" lon="1.787880">
						<ele>98</ele>
						<time>2026-04-14T08:39:27Z</time>
					</trkpt>
					<trkpt lat="48.910560" lon="1.787810">
						<ele>98</ele>
						<time>2026-04-14T08:39:28Z</time>
					</trkpt>
					<trkpt lat="48.910750" lon="1.787640">
						<ele>97</ele>
						<time>2026-04-14T08:39:32Z</time>
					</trkpt>
					<trkpt lat="48.910960" lon="1.787450">
						<ele>97</ele>
						<time>2026-04-14T08:39:37Z</time>
					</trkpt>
					<trkpt lat="48.911040" lon="1.787130">
						<ele>97</ele>
						<time>2026-04-14T08:39:41Z</time>
					</trkpt>
					<trkpt lat="48.911060" lon="1.787070">
						<ele>97</ele>
						<time>2026-04-14T08:39:42Z</time>
					</trkpt>
					<trkpt lat="48.911100" lon="1.787020">
						<ele>97</ele>
						<time>2026-04-14T08:39:42Z</time>
					</trkpt>
					<trkpt lat="48.911270" lon="1.786830">
						<ele>97</ele>
						<time>2026-04-14T08:39:46Z</time>
					</trkpt>
					<trkpt lat="48.911350" lon="1.786770">
						<ele>97</ele>
						<time>2026-04-14T08:39:48Z</time>
					</trkpt>
					<trkpt lat="48.911420" lon="1.786730">
						<ele>97</ele>
						<time>2026-04-14T08:39:49Z</time>
					</trkpt>
					<trkpt lat="48.911650" lon="1.786660">
						<ele>97</ele>
						<time>2026-04-14T08:39:53Z</time>
					</trkpt>
					<trkpt lat="48.911780" lon="1.786650">
						<ele>97</ele>
						<time>2026-04-14T08:39:56Z</time>
					</trkpt>
					<trkpt lat="48.911910" lon="1.786670">
						<ele>97</ele>
						<time>2026-04-14T08:39:58Z</time>
					</trkpt>
					<trkpt lat="48.911980" lon="1.786690">
						<ele>97</ele>
						<time>2026-04-14T08:39:59Z</time>
					</trkpt>
					<trkpt lat="48.912330" lon="1.786840">
						<ele>97</ele>
						<time>2026-04-14T08:40:06Z</time>
					</trkpt>
					<trkpt lat="48.912470" lon="1.786900">
						<ele>97</ele>
						<time>2026-04-14T08:40:08Z</time>
					</trkpt>
					<trkpt lat="48.912690" lon="1.786900">
						<ele>97</ele>
						<time>2026-04-14T08:40:12Z</time>
					</trkpt>
					<trkpt lat="48.913000" lon="1.786820">
						<ele>97</ele>
						<time>2026-04-14T08:40:18Z</time>
					</trkpt>
					<trkpt lat="48.913500" lon="1.786640">
						<ele>96</ele>
						<time>2026-04-14T08:40:27Z</time>
					</trkpt>
					<trkpt lat="48.914150" lon="1.786310">
						<ele>95</ele>
						<time>2026-04-14T08:40:39Z</time>
					</trkpt>
					<trkpt lat="48.914960" lon="1.785910">
						<ele>95</ele>
						<time>2026-04-14T08:40:54Z</time>
					</trkpt>
					<trkpt lat="48.915380" lon="1.785770">
						<ele>94</ele>
						<time>2026-04-14T08:41:02Z</time>
					</trkpt>
					<trkpt lat="48.915610" lon="1.785730">
						<ele>94</ele>
						<time>2026-04-14T08:41:06Z</time>
					</trkpt>
					<trkpt lat="48.915900" lon="1.785700">
						<ele>94</ele>
						<time>2026-04-14T08:41:11Z</time>
					</trkpt>
					<trkpt lat="48.916020" lon="1.785720">
						<ele>94</ele>
						<time>2026-04-14T08:41:13Z</time>
					</trkpt>
					<trkpt lat="48.916250" lon="1.785710">
						<ele>94</ele>
						<time>2026-04-14T08:41:17Z</time>
					</trkpt>
					<trkpt lat="48.916460" lon="1.785740">
						<ele>93</ele>
						<time>2026-04-14T08:41:21Z</time>
					</trkpt>
					<trkpt lat="48.917080" lon="1.785820">
						<ele>92</ele>
						<time>2026-04-14T08:41:32Z</time>
					</trkpt>
					<trkpt lat="48.918240" lon="1.785740">
						<ele>89</ele>
						<time>2026-04-14T08:41:53Z</time>
					</trkpt>
					<trkpt lat="48.918620" lon="1.785700">
						<ele>89</ele>
						<time>2026-04-14T08:42:00Z</time>
					</trkpt>
					<trkpt lat="48.918810" lon="1.785610">
						<ele>90</ele>
						<time>2026-04-14T08:42:03Z</time>
					</trkpt>
					<trkpt lat="48.919050" lon="1.785390">
						<ele>90</ele>
						<time>2026-04-14T08:42:08Z</time>
					</trkpt>
					<trkpt lat="48.919190" lon="1.785180">
						<ele>90</ele>
						<time>2026-04-14T08:42:12Z</time>
					</trkpt>
					<trkpt lat="48.919500" lon="1.784570">
						<ele>91</ele>
						<time>2026-04-14T08:42:21Z</time>
					</trkpt>
					<trkpt lat="48.920190" lon="1.783110">
						<ele>89</ele>
						<time>2026-04-14T08:42:42Z</time>
					</trkpt>
					<trkpt lat="48.920400" lon="1.782730">
						<ele>88</ele>
						<time>2026-04-14T08:42:48Z</time>
					</trkpt>
					<trkpt lat="48.920710" lon="1.782420">
						<ele>88</ele>
						<time>2026-04-14T08:42:54Z</time>
					</trkpt>
					<trkpt lat="48.921010" lon="1.782240">
						<ele>88</ele>
						<time>2026-04-14T08:43:00Z</time>
					</trkpt>
					<trkpt lat="48.921260" lon="1.782150">
						<ele>88</ele>
						<time>2026-04-14T08:43:04Z</time>
					</trkpt>
					<trkpt lat="48.922340" lon="1.781770">
						<ele>89</ele>
						<time>2026-04-14T08:43:24Z</time>
					</trkpt>
					<trkpt lat="48.922870" lon="1.781480">
						<ele>88</ele>
						<time>2026-04-14T08:43:34Z</time>
					</trkpt>
					<trkpt lat="48.922940" lon="1.781380">
						<ele>87</ele>
						<time>2026-04-14T08:43:36Z</time>
					</trkpt>
					<trkpt lat="48.923130" lon="1.781100">
						<ele>86</ele>
						<time>2026-04-14T08:43:41Z</time>
					</trkpt>
					<trkpt lat="48.923310" lon="1.780790">
						<ele>84</ele>
						<time>2026-04-14T08:43:45Z</time>
					</trkpt>
					<trkpt lat="48.923440" lon="1.780530">
						<ele>84</ele>
						<time>2026-04-14T08:43:49Z</time>
					</trkpt>
					<trkpt lat="48.923720" lon="1.779690">
						<ele>84</ele>
						<time>2026-04-14T08:44:00Z</time>
					</trkpt>
					<trkpt lat="48.923910" lon="1.779040">
						<ele>83</ele>
						<time>2026-04-14T08:44:09Z</time>
					</trkpt>
					<trkpt lat="48.923950" lon="1.778850">
						<ele>82</ele>
						<time>2026-04-14T08:44:11Z</time>
					</trkpt>
					<trkpt lat="48.923960" lon="1.778640">
						<ele>81</ele>
						<time>2026-04-14T08:44:13Z</time>
					</trkpt>
					<trkpt lat="48.923950" lon="1.778400">
						<ele>80</ele>
						<time>2026-04-14T08:44:16Z</time>
					</trkpt>
					<trkpt lat="48.923970" lon="1.778270">
						<ele>80</ele>
						<time>2026-04-14T08:44:18Z</time>
					</trkpt>
					<trkpt lat="48.924000" lon="1.778160">
						<ele>80</ele>
						<time>2026-04-14T08:44:19Z</time>
					</trkpt>
					<trkpt lat="48.924060" lon="1.778100">
						<ele>80</ele>
						<time>2026-04-14T08:44:20Z</time>
					</trkpt>
					<trkpt lat="48.924180" lon="1.778020">
						<ele>79</ele>
						<time>2026-04-14T08:44:23Z</time>
					</trkpt>
					<trkpt lat="48.924180" lon="1.777910">
						<ele>79</ele>
						<time>2026-04-14T08:44:24Z</time>
					</trkpt>
					<trkpt lat="48.924150" lon="1.777520">
						<ele>79</ele>
						<time>2026-04-14T08:44:29Z</time>
					</trkpt>
					<trkpt lat="48.924090" lon="1.777050">
						<ele>81</ele>
						<time>2026-04-14T08:44:34Z</time>
					</trkpt>
					<trkpt lat="48.923950" lon="1.776160">
						<ele>86</ele>
						<time>2026-04-14T08:44:45Z</time>
					</trkpt>
					<trkpt lat="48.923900" lon="1.775350">
						<ele>90</ele>
						<time>2026-04-14T08:44:54Z</time>
					</trkpt>
					<trkpt lat="48.923950" lon="1.774600">
						<ele>92</ele>
						<time>2026-04-14T08:45:03Z</time>
					</trkpt>
					<trkpt lat="48.923940" lon="1.774160">
						<ele>92</ele>
						<time>2026-04-14T08:45:08Z</time>
					</trkpt>
					<trkpt lat="48.923890" lon="1.773830">
						<ele>94</ele>
						<time>2026-04-14T08:45:12Z</time>
					</trkpt>
					<trkpt lat="48.923780" lon="1.773420">
						<ele>94</ele>
						<time>2026-04-14T08:45:18Z</time>
					</trkpt>
					<trkpt lat="48.923600" lon="1.773050">
						<ele>94</ele>
						<time>2026-04-14T08:45:23Z</time>
					</trkpt>
					<trkpt lat="48.923310" lon="1.772640">
						<ele>93</ele>
						<time>2026-04-14T08:45:30Z</time>
					</trkpt>
					<trkpt lat="48.922670" lon="1.771610">
						<ele>98</ele>
						<time>2026-04-14T08:45:47Z</time>
					</trkpt>
					<trkpt lat="48.922440" lon="1.771210">
						<ele>97</ele>
						<time>2026-04-14T08:45:53Z</time>
					</trkpt>
					<trkpt lat="48.921960" lon="1.770240">
						<ele>94</ele>
						<time>2026-04-14T08:46:07Z</time>
					</trkpt>
					<trkpt lat="48.921650" lon="1.769590">
						<ele>93</ele>
						<time>2026-04-14T08:46:16Z</time>
					</trkpt>
					<trkpt lat="48.921420" lon="1.769090">
						<ele>93</ele>
						<time>2026-04-14T08:46:24Z</time>
					</trkpt>
					<trkpt lat="48.921160" lon="1.768520">
						<ele>95</ele>
						<time>2026-04-14T08:46:32Z</time>
					</trkpt>
					<trkpt lat="48.921060" lon="1.768270">
						<ele>95</ele>
						<time>2026-04-14T08:46:35Z</time>
					</trkpt>
					<trkpt lat="48.920990" lon="1.768030">
						<ele>94</ele>
						<time>2026-04-14T08:46:38Z</time>
					</trkpt>
					<trkpt lat="48.920960" lon="1.767790">
						<ele>94</ele>
						<time>2026-04-14T08:46:41Z</time>
					</trkpt>
					<trkpt lat="48.920870" lon="1.766920">
						<ele>93</ele>
						<time>2026-04-14T08:46:51Z</time>
					</trkpt>
					<trkpt lat="48.920830" lon="1.766690">
						<ele>93</ele>
						<time>2026-04-14T08:46:54Z</time>
					</trkpt>
					<trkpt lat="48.920780" lon="1.766430">
						<ele>93</ele>
						<time>2026-04-14T08:46:57Z</time>
					</trkpt>
					<trkpt lat="48.920670" lon="1.766080">
						<ele>94</ele>
						<time>2026-04-14T08:47:02Z</time>
					</trkpt>
					<trkpt lat="48.920420" lon="1.765670">
						<ele>95</ele>
						<time>2026-04-14T08:47:08Z</time>
					</trkpt>
					<trkpt lat="48.920140" lon="1.765310">
						<ele>95</ele>
						<time>2026-04-14T08:47:15Z</time>
					</trkpt>
					<trkpt lat="48.920040" lon="1.765150">
						<ele>94</ele>
						<time>2026-04-14T08:47:17Z</time>
					</trkpt>
					<trkpt lat="48.920050" lon="1.765120">
						<ele>94</ele>
						<time>2026-04-14T08:47:18Z</time>
					</trkpt>
					<trkpt lat="48.920040" lon="1.765060">
						<ele>94</ele>
						<time>2026-04-14T08:47:19Z</time>
					</trkpt>
					<trkpt lat="48.920010" lon="1.765010">
						<ele>94</ele>
						<time>2026-04-14T08:47:19Z</time>
					</trkpt>
					<trkpt lat="48.919980" lon="1.765000">
						<ele>94</ele>
						<time>2026-04-14T08:47:20Z</time>
					</trkpt>
					<trkpt lat="48.919960" lon="1.765000">
						<ele>94</ele>
						<time>2026-04-14T08:47:20Z</time>
					</trkpt>
					<trkpt lat="48.919930" lon="1.765030">
						<ele>94</ele>
						<time>2026-04-14T08:47:21Z</time>
					</trkpt>
					<trkpt lat="48.919800" lon="1.764850">
						<ele>95</ele>
						<time>2026-04-14T08:47:24Z</time>
					</trkpt>
					<trkpt lat="48.919550" lon="1.764570">
						<ele>97</ele>
						<time>2026-04-14T08:47:30Z</time>
					</trkpt>
					<trkpt lat="48.919060" lon="1.763900">
						<ele>98</ele>
						<time>2026-04-14T08:47:41Z</time>
					</trkpt>
					<trkpt lat="48.918880" lon="1.763320">
						<ele>100</ele>
						<time>2026-04-14T08:47:49Z</time>
					</trkpt>
					<trkpt lat="48.918830" lon="1.763130">
						<ele>101</ele>
						<time>2026-04-14T08:47:51Z</time>
					</trkpt>
					<trkpt lat="48.918790" lon="1.762870">
						<ele>101</ele>
						<time>2026-04-14T08:47:54Z</time>
					</trkpt>
					<trkpt lat="48.918750" lon="1.762480">
						<ele>101</ele>
						<time>2026-04-14T08:47:59Z</time>
					</trkpt>
					<trkpt lat="48.918750" lon="1.761630">
						<ele>103</ele>
						<time>2026-04-14T08:48:09Z</time>
					</trkpt>
					<trkpt lat="48.918790" lon="1.759340">
						<ele>110</ele>
						<time>2026-04-14T08:48:36Z</time>
					</trkpt>
					<trkpt lat="48.918800" lon="1.758530">
						<ele>114</ele>
						<time>2026-04-14T08:48:45Z</time>
					</trkpt>
					<trkpt lat="48.918800" lon="1.758380">
						<ele>114</ele>
						<time>2026-04-14T08:48:47Z</time>
					</trkpt>
					<trkpt lat="48.918710" lon="1.757370">
						<ele>118</ele>
						<time>2026-04-14T08:48:59Z</time>
					</trkpt>
					<trkpt lat="48.918220" lon="1.753490">
						<ele>131</ele>
						<time>2026-04-14T08:49:45Z</time>
					</trkpt>
					<trkpt lat="48.918060" lon="1.752800">
						<ele>133</ele>
						<time>2026-04-14T08:49:53Z</time>
					</trkpt>
					<trkpt lat="48.917890" lon="1.752190">
						<ele>134</ele>
						<time>2026-04-14T08:50:01Z</time>
					</trkpt>
					<trkpt lat="48.917790" lon="1.751860">
						<ele>134</ele>
						<time>2026-04-14T08:50:05Z</time>
					</trkpt>
					<trkpt lat="48.917770" lon="1.751800">
						<ele>134</ele>
						<time>2026-04-14T08:50:06Z</time>
					</trkpt>
					<trkpt lat="48.917610" lon="1.751410">
						<ele>134</ele>
						<time>2026-04-14T08:50:12Z</time>
					</trkpt>
					<trkpt lat="48.916970" lon="1.750110">
						<ele>133</ele>
						<time>2026-04-14T08:50:31Z</time>
					</trkpt>
					<trkpt lat="48.916350" lon="1.748860">
						<ele>130</ele>
						<time>2026-04-14T08:50:49Z</time>
					</trkpt>
					<trkpt lat="48.915840" lon="1.748000">
						<ele>126</ele>
						<time>2026-04-14T08:51:02Z</time>
					</trkpt>
					<trkpt lat="48.915040" lon="1.746710">
						<ele>121</ele>
						<time>2026-04-14T08:51:23Z</time>
					</trkpt>
					<trkpt lat="48.914860" lon="1.746390">
						<ele>121</ele>
						<time>2026-04-14T08:51:28Z</time>
					</trkpt>
					<trkpt lat="48.914160" lon="1.745090">
						<ele>122</ele>
						<time>2026-04-14T08:51:48Z</time>
					</trkpt>
					<trkpt lat="48.913520" lon="1.744180">
						<ele>122</ele>
						<time>2026-04-14T08:52:03Z</time>
					</trkpt>
					<trkpt lat="48.912770" lon="1.743380">
						<ele>122</ele>
						<time>2026-04-14T08:52:20Z</time>
					</trkpt>
					<trkpt lat="48.912350" lon="1.742820">
						<ele>122</ele>
						<time>2026-04-14T08:52:30Z</time>
					</trkpt>
					<trkpt lat="48.911700" lon="1.741850">
						<ele>123</ele>
						<time>2026-04-14T08:52:46Z</time>
					</trkpt>
					<trkpt lat="48.911430" lon="1.741300">
						<ele>122</ele>
						<time>2026-04-14T08:52:54Z</time>
					</trkpt>
					<trkpt lat="48.911180" lon="1.740530">
						<ele>123</ele>
						<time>2026-04-14T08:53:04Z</time>
					</trkpt>
					<trkpt lat="48.910920" lon="1.739250">
						<ele>125</ele>
						<time>2026-04-14T08:53:20Z</time>
					</trkpt>
					<trkpt lat="48.910690" lon="1.738310">
						<ele>125</ele>
						<time>2026-04-14T08:53:31Z</time>
					</trkpt>
					<trkpt lat="48.910170" lon="1.736450">
						<ele>126</ele>
						<time>2026-04-14T08:53:55Z</time>
					</trkpt>
					<trkpt lat="48.909980" lon="1.735530">
						<ele>127</ele>
						<time>2026-04-14T08:54:06Z</time>
					</trkpt>
					<trkpt lat="48.909950" lon="1.735350">
						<ele>127</ele>
						<time>2026-04-14T08:54:08Z</time>
					</trkpt>
					<trkpt lat="48.909950" lon="1.735160">
						<ele>128</ele>
						<time>2026-04-14T08:54:11Z</time>
					</trkpt>
					<trkpt lat="48.909980" lon="1.734950">
						<ele>128</ele>
						<time>2026-04-14T08:54:13Z</time>
					</trkpt>
					<trkpt lat="48.910110" lon="1.734520">
						<ele>128</ele>
						<time>2026-04-14T08:54:19Z</time>
					</trkpt>
					<trkpt lat="48.910220" lon="1.734250">
						<ele>129</ele>
						<time>2026-04-14T08:54:22Z</time>
					</trkpt>
					<trkpt lat="48.910340" lon="1.734030">
						<ele>129</ele>
						<time>2026-04-14T08:54:26Z</time>
					</trkpt>
					<trkpt lat="48.910480" lon="1.733830">
						<ele>130</ele>
						<time>2026-04-14T08:54:29Z</time>
					</trkpt>
					<trkpt lat="48.910850" lon="1.733360">
						<ele>131</ele>
						<time>2026-04-14T08:54:38Z</time>
					</trkpt>
					<trkpt lat="48.911040" lon="1.733070">
						<ele>131</ele>
						<time>2026-04-14T08:54:42Z</time>
					</trkpt>
					<trkpt lat="48.911090" lon="1.733010">
						<ele>131</ele>
						<time>2026-04-14T08:54:44Z</time>
					</trkpt>
					<trkpt lat="48.910880" lon="1.732330">
						<ele>131</ele>
						<time>2026-04-14T08:54:52Z</time>
					</trkpt>
					<trkpt lat="48.910800" lon="1.732200">
						<ele>131</ele>
						<time>2026-04-14T08:54:54Z</time>
					</trkpt>
					<trkpt lat="48.910780" lon="1.732160">
						<ele>131</ele>
						<time>2026-04-14T08:54:55Z</time>
					</trkpt>
					<trkpt lat="48.910720" lon="1.732120">
						<ele>131</ele>
						<time>2026-04-14T08:54:56Z</time>
					</trkpt>
					<trkpt lat="48.910580" lon="1.732060">
						<ele>131</ele>
						<time>2026-04-14T08:54:59Z</time>
					</trkpt>
					<trkpt lat="48.910400" lon="1.732030">
						<ele>130</ele>
						<time>2026-04-14T08:55:02Z</time>
					</trkpt>
					<trkpt lat="48.910050" lon="1.731960">
						<ele>130</ele>
						<time>2026-04-14T08:55:08Z</time>
					</trkpt>
					<trkpt lat="48.909810" lon="1.731910">
						<ele>130</ele>
						<time>2026-04-14T08:55:13Z</time>
					</trkpt>
					<trkpt lat="48.909460" lon="1.731830">
						<ele>130</ele>
						<time>2026-04-14T08:55:19Z</time>
					</trkpt>
					<trkpt lat="48.909340" lon="1.731830">
						<ele>130</ele>
						<time>2026-04-14T08:55:21Z</time>
					</trkpt>
					<trkpt lat="48.909050" lon="1.731880">
						<ele>130</ele>
						<time>2026-04-14T08:55:26Z</time>
					</trkpt>
					<trkpt lat="48.908460" lon="1.731980">
						<ele>131</ele>
						<time>2026-04-14T08:55:37Z</time>
					</trkpt>
					<trkpt lat="48.908250" lon="1.732000">
						<ele>131</ele>
						<time>2026-04-14T08:55:41Z</time>
					</trkpt>
					<trkpt lat="48.908090" lon="1.731950">
						<ele>131</ele>
						<time>2026-04-14T08:55:43Z</time>
					</trkpt>
					<trkpt lat="48.907850" lon="1.731970">
						<ele>131</ele>
						<time>2026-04-14T08:55:48Z</time>
					</trkpt>
					<trkpt lat="48.907670" lon="1.731950">
						<ele>131</ele>
						<time>2026-04-14T08:55:51Z</time>
					</trkpt>
					<trkpt lat="48.907460" lon="1.731910">
						<ele>131</ele>
						<time>2026-04-14T08:55:55Z</time>
					</trkpt>
					<trkpt lat="48.907090" lon="1.731860">
						<ele>131</ele>
						<time>2026-04-14T08:56:01Z</time>
					</trkpt>
					<trkpt lat="48.906940" lon="1.731810">
						<ele>131</ele>
						<time>2026-04-14T08:56:04Z</time>
					</trkpt>
					<trkpt lat="48.906350" lon="1.731720">
						<ele>131</ele>
						<time>2026-04-14T08:56:15Z</time>
					</trkpt>
					<trkpt lat="48.906170" lon="1.731720">
						<ele>130</ele>
						<time>2026-04-14T08:56:18Z</time>
					</trkpt>
					<trkpt lat="48.905970" lon="1.731710">
						<ele>130</ele>
						<time>2026-04-14T08:56:21Z</time>
					</trkpt>
					<trkpt lat="48.905840" lon="1.731720">
						<ele>130</ele>
						<time>2026-04-14T08:56:24Z</time>
					</trkpt>
					<trkpt lat="48.905690" lon="1.731750">
						<ele>130</ele>
						<time>2026-04-14T08:56:26Z</time>
					</trkpt>
					<trkpt lat="48.905490" lon="1.731830">
						<ele>130</ele>
						<time>2026-04-14T08:56:30Z</time>
					</trkpt>
					<trkpt lat="48.905390" lon="1.731890">
						<ele>130</ele>
						<time>2026-04-14T08:56:32Z</time>
					</trkpt>
					<trkpt lat="48.905260" lon="1.732000">
						<ele>130</ele>
						<time>2026-04-14T08:56:35Z</time>
					</trkpt>
					<trkpt lat="48.905120" lon="1.732150">
						<ele>129</ele>
						<time>2026-04-14T08:56:38Z</time>
					</trkpt>
					<trkpt lat="48.905010" lon="1.732290">
						<ele>129</ele>
						<time>2026-04-14T08:56:40Z</time>
					</trkpt>
					<trkpt lat="48.904910" lon="1.732440">
						<ele>129</ele>
						<time>2026-04-14T08:56:43Z</time>
					</trkpt>
					<trkpt lat="48.904570" lon="1.733080">
						<ele>131</ele>
						<time>2026-04-14T08:56:52Z</time>
					</trkpt>
					<trkpt lat="48.904420" lon="1.733300">
						<ele>132</ele>
						<time>2026-04-14T08:56:56Z</time>
					</trkpt>
					<trkpt lat="48.904240" lon="1.733530">
						<ele>132</ele>
						<time>2026-04-14T08:57:00Z</time>
					</trkpt>
					<trkpt lat="48.904040" lon="1.733740">
						<ele>132</ele>
						<time>2026-04-14T08:57:05Z</time>
					</trkpt>
					<trkpt lat="48.901580" lon="1.735960">
						<ele>136</ele>
						<time>2026-04-14T08:57:55Z</time>
					</trkpt>
					<trkpt lat="48.901280" lon="1.736220">
						<ele>138</ele>
						<time>2026-04-14T08:58:02Z</time>
					</trkpt>
					<trkpt lat="48.901030" lon="1.736400">
						<ele>138</ele>
						<time>2026-04-14T08:58:07Z</time>
					</trkpt>
					<trkpt lat="48.900690" lon="1.736540">
						<ele>139</ele>
						<time>2026-04-14T08:58:13Z</time>
					</trkpt>
					<trkpt lat="48.900580" lon="1.736580">
						<ele>139</ele>
						<time>2026-04-14T08:58:15Z</time>
					</trkpt>
					<trkpt lat="48.900240" lon="1.736660">
						<ele>138</ele>
						<time>2026-04-14T08:58:21Z</time>
					</trkpt>
					<trkpt lat="48.899390" lon="1.736850">
						<ele>137</ele>
						<time>2026-04-14T08:58:36Z</time>
					</trkpt>
					<trkpt lat="48.899120" lon="1.736930">
						<ele>137</ele>
						<time>2026-04-14T08:58:41Z</time>
					</trkpt>
					<trkpt lat="48.897980" lon="1.737320">
						<ele>139</ele>
						<time>2026-04-14T08:59:02Z</time>
					</trkpt>
					<trkpt lat="48.897400" lon="1.737510">
						<ele>139</ele>
						<time>2026-04-14T08:59:12Z</time>
					</trkpt>
					<trkpt lat="48.897180" lon="1.737620">
						<ele>139</ele>
						<time>2026-04-14T08:59:17Z</time>
					</trkpt>
					<trkpt lat="48.896940" lon="1.737770">
						<ele>139</ele>
						<time>2026-04-14T08:59:21Z</time>
					</trkpt>
					<trkpt lat="48.896310" lon="1.738250">
						<ele>138</ele>
						<time>2026-04-14T08:59:34Z</time>
					</trkpt>
					<trkpt lat="48.896130" lon="1.738350">
						<ele>137</ele>
						<time>2026-04-14T08:59:37Z</time>
					</trkpt>
					<trkpt lat="48.895910" lon="1.738440">
						<ele>137</ele>
						<time>2026-04-14T08:59:41Z</time>
					</trkpt>
					<trkpt lat="48.895820" lon="1.738470">
						<ele>137</ele>
						<time>2026-04-14T08:59:43Z</time>
					</trkpt>
					<trkpt lat="48.895670" lon="1.738500">
						<ele>137</ele>
						<time>2026-04-14T08:59:46Z</time>
					</trkpt>
					<trkpt lat="48.895510" lon="1.738520">
						<ele>137</ele>
						<time>2026-04-14T08:59:48Z</time>
					</trkpt>
					<trkpt lat="48.894580" lon="1.738570">
						<ele>136</ele>
						<time>2026-04-14T09:00:05Z</time>
					</trkpt>
					<trkpt lat="48.894320" lon="1.738600">
						<ele>136</ele>
						<time>2026-04-14T09:00:10Z</time>
					</trkpt>
					<trkpt lat="48.894150" lon="1.738630">
						<ele>136</ele>
						<time>2026-04-14T09:00:13Z</time>
					</trkpt>
					<trkpt lat="48.894070" lon="1.738650">
						<ele>137</ele>
						<time>2026-04-14T09:00:14Z</time>
					</trkpt>
					<trkpt lat="48.893650" lon="1.738820">
						<ele>137</ele>
						<time>2026-04-14T09:00:22Z</time>
					</trkpt>
					<trkpt lat="48.893370" lon="1.738890">
						<ele>138</ele>
						<time>2026-04-14T09:00:27Z</time>
					</trkpt>
					<trkpt lat="48.893190" lon="1.738910">
						<ele>139</ele>
						<time>2026-04-14T09:00:30Z</time>
					</trkpt>
					<trkpt lat="48.893090" lon="1.738940">
						<ele>139</ele>
						<time>2026-04-14T09:00:32Z</time>
					</trkpt>
					<trkpt lat="48.892840" lon="1.739140">
						<ele>140</ele>
						<time>2026-04-14T09:00:37Z</time>
					</trkpt>
					<trkpt lat="48.892730" lon="1.739220">
						<ele>140</ele>
						<time>2026-04-14T09:00:39Z</time>
					</trkpt>
					<trkpt lat="48.892460" lon="1.739330">
						<ele>141</ele>
						<time>2026-04-14T09:00:44Z</time>
					</trkpt>
					<trkpt lat="48.890720" lon="1.739960">
						<ele>145</ele>
						<time>2026-04-14T09:01:16Z</time>
					</trkpt>
					<trkpt lat="48.890540" lon="1.739980">
						<ele>146</ele>
						<time>2026-04-14T09:01:19Z</time>
					</trkpt>
					<trkpt lat="48.890390" lon="1.740030">
						<ele>147</ele>
						<time>2026-04-14T09:01:22Z</time>
					</trkpt>
					<trkpt lat="48.890350" lon="1.740040">
						<ele>147</ele>
						<time>2026-04-14T09:01:23Z</time>
					</trkpt>
					<trkpt lat="48.890340" lon="1.740120">
						<ele>147</ele>
						<time>2026-04-14T09:01:23Z</time>
					</trkpt>
					<trkpt lat="48.890340" lon="1.740280">
						<ele>146</ele>
						<time>2026-04-14T09:01:25Z</time>
					</trkpt>
					<trkpt lat="48.890360" lon="1.740400">
						<ele>146</ele>
						<time>2026-04-14T09:01:27Z</time>
					</trkpt>
					<trkpt lat="48.890420" lon="1.740490">
						<ele>146</ele>
						<time>2026-04-14T09:01:28Z</time>
					</trkpt>
					<trkpt lat="48.890570" lon="1.740820">
						<ele>145</ele>
						<time>2026-04-14T09:01:33Z</time>
					</trkpt>
					<trkpt lat="48.890630" lon="1.741010">
						<ele>145</ele>
						<time>2026-04-14T09:01:35Z</time>
					</trkpt>
					<trkpt lat="48.890650" lon="1.741100">
						<ele>144</ele>
						<time>2026-04-14T09:01:37Z</time>
					</trkpt>
					<trkpt lat="48.890710" lon="1.741650">
						<ele>144</ele>
						<time>2026-04-14T09:01:43Z</time>
					</trkpt>
					<trkpt lat="48.890770" lon="1.742200">
						<ele>143</ele>
						<time>2026-04-14T09:01:50Z</time>
					</trkpt>
					<trkpt lat="48.890750" lon="1.742480">
						<ele>143</ele>
						<time>2026-04-14T09:01:53Z</time>
					</trkpt>
					<trkpt lat="48.890660" lon="1.742700">
						<ele>144</ele>
						<time>2026-04-14T09:01:56Z</time>
					</trkpt>
					<trkpt lat="48.890540" lon="1.742790">
						<ele>145</ele>
						<time>2026-04-14T09:01:58Z</time>
					</trkpt>
					<trkpt lat="48.890150" lon="1.743060">
						<ele>146</ele>
						<time>2026-04-14T09:02:06Z</time>
					</trkpt>
					<trkpt lat="48.889280" lon="1.743760">
						<ele>145</ele>
						<time>2026-04-14T09:02:23Z</time>
					</trkpt>
					<trkpt lat="48.888440" lon="1.744400">
						<ele>145</ele>
						<time>2026-04-14T09:02:40Z</time>
					</trkpt>
					<trkpt lat="48.888320" lon="1.744500">
						<ele>145</ele>
						<time>2026-04-14T09:02:43Z</time>
					</trkpt>
					<trkpt lat="48.888240" lon="1.744590">
						<ele>145</ele>
						<time>2026-04-14T09:02:44Z</time>
					</trkpt>
					<trkpt lat="48.888090" lon="1.744840">
						<ele>145</ele>
						<time>2026-04-14T09:02:48Z</time>
					</trkpt>
					<trkpt lat="48.887870" lon="1.745310">
						<ele>146</ele>
						<time>2026-04-14T09:02:55Z</time>
					</trkpt>
					<trkpt lat="48.887630" lon="1.745900">
						<ele>147</ele>
						<time>2026-04-14T09:03:03Z</time>
					</trkpt>
					<trkpt lat="48.887320" lon="1.746900">
						<ele>148</ele>
						<time>2026-04-14T09:03:16Z</time>
					</trkpt>
					<trkpt lat="48.887030" lon="1.747540">
						<ele>149</ele>
						<time>2026-04-14T09:03:25Z</time>
					</trkpt>
					<trkpt lat="48.886830" lon="1.747910">
						<ele>149</ele>
						<time>2026-04-14T09:03:31Z</time>
					</trkpt>
					<trkpt lat="48.886680" lon="1.748260">
						<ele>148</ele>
						<time>2026-04-14T09:03:36Z</time>
					</trkpt>
					<trkpt lat="48.886610" lon="1.748530">
						<ele>148</ele>
						<time>2026-04-14T09:03:39Z</time>
					</trkpt>
					<trkpt lat="48.886570" lon="1.748960">
						<ele>147</ele>
						<time>2026-04-14T09:03:44Z</time>
					</trkpt>
					<trkpt lat="48.886450" lon="1.754440">
						<ele>139</ele>
						<time>2026-04-14T09:04:48Z</time>
					</trkpt>
					<trkpt lat="48.886420" lon="1.755100">
						<ele>138</ele>
						<time>2026-04-14T09:04:56Z</time>
					</trkpt>
					<trkpt lat="48.886340" lon="1.755510">
						<ele>138</ele>
						<time>2026-04-14T09:05:01Z</time>
					</trkpt>
					<trkpt lat="48.886260" lon="1.755780">
						<ele>137</ele>
						<time>2026-04-14T09:05:05Z</time>
					</trkpt>
					<trkpt lat="48.886130" lon="1.756050">
						<ele>137</ele>
						<time>2026-04-14T09:05:08Z</time>
					</trkpt>
					<trkpt lat="48.884930" lon="1.757970">
						<ele>136</ele>
						<time>2026-04-14T09:05:39Z</time>
					</trkpt>
					<trkpt lat="48.883140" lon="1.760580">
						<ele>132</ele>
						<time>2026-04-14T09:06:24Z</time>
					</trkpt>
					<trkpt lat="48.882670" lon="1.761330">
						<ele>131</ele>
						<time>2026-04-14T09:06:36Z</time>
					</trkpt>
					<trkpt lat="48.882260" lon="1.762050">
						<ele>132</ele>
						<time>2026-04-14T09:06:47Z</time>
					</trkpt>
					<trkpt lat="48.881920" lon="1.762730">
						<ele>133</ele>
						<time>2026-04-14T09:06:57Z</time>
					</trkpt>
					<trkpt lat="48.881680" lon="1.763180">
						<ele>135</ele>
						<time>2026-04-14T09:07:04Z</time>
					</trkpt>
					<trkpt lat="48.881160" lon="1.764300">
						<ele>135</ele>
						<time>2026-04-14T09:07:20Z</time>
					</trkpt>
					<trkpt lat="48.881140" lon="1.764390">
						<ele>135</ele>
						<time>2026-04-14T09:07:21Z</time>
					</trkpt>
					<trkpt lat="48.881130" lon="1.764420">
						<ele>135</ele>
						<time>2026-04-14T09:07:21Z</time>
					</trkpt>
					<trkpt lat="48.881100" lon="1.764540">
						<ele>135</ele>
						<time>2026-04-14T09:07:23Z</time>
					</trkpt>
					<trkpt lat="48.880950" lon="1.764990">
						<ele>135</ele>
						<time>2026-04-14T09:07:29Z</time>
					</trkpt>
					<trkpt lat="48.880820" lon="1.765320">
						<ele>135</ele>
						<time>2026-04-14T09:07:33Z</time>
					</trkpt>
					<trkpt lat="48.880750" lon="1.765420">
						<ele>135</ele>
						<time>2026-04-14T09:07:35Z</time>
					</trkpt>
					<trkpt lat="48.880290" lon="1.766010">
						<ele>138</ele>
						<time>2026-04-14T09:07:46Z</time>
					</trkpt>
					<trkpt lat="48.880070" lon="1.766320">
						<ele>139</ele>
						<time>2026-04-14T09:07:51Z</time>
					</trkpt>
					<trkpt lat="48.879990" lon="1.766450">
						<ele>139</ele>
						<time>2026-04-14T09:07:53Z</time>
					</trkpt>
					<trkpt lat="48.879820" lon="1.766910">
						<ele>140</ele>
						<time>2026-04-14T09:07:59Z</time>
					</trkpt>
					<trkpt lat="48.879440" lon="1.767970">
						<ele>141</ele>
						<time>2026-04-14T09:08:13Z</time>
					</trkpt>
					<trkpt lat="48.879290" lon="1.768340">
						<ele>141</ele>
						<time>2026-04-14T09:08:18Z</time>
					</trkpt>
					<trkpt lat="48.879190" lon="1.768530">
						<ele>141</ele>
						<time>2026-04-14T09:08:21Z</time>
					</trkpt>
					<trkpt lat="48.877000" lon="1.773070">
						<ele>138</ele>
						<time>2026-04-14T09:09:27Z</time>
					</trkpt>
					<trkpt lat="48.876090" lon="1.775080">
						<ele>140</ele>
						<time>2026-04-14T09:09:56Z</time>
					</trkpt>
					<trkpt lat="48.875650" lon="1.775990">
						<ele>140</ele>
						<time>2026-04-14T09:10:09Z</time>
					</trkpt>
					<trkpt lat="48.875360" lon="1.776520">
						<ele>138</ele>
						<time>2026-04-14T09:10:17Z</time>
					</trkpt>
					<trkpt lat="48.874830" lon="1.777350">
						<ele>136</ele>
						<time>2026-04-14T09:10:30Z</time>
					</trkpt>
					<trkpt lat="48.874170" lon="1.778440">
						<ele>134</ele>
						<time>2026-04-14T09:10:48Z</time>
					</trkpt>
					<trkpt lat="48.873680" lon="1.779300">
						<ele>133</ele>
						<time>2026-04-14T09:11:01Z</time>
					</trkpt>
					<trkpt lat="48.873460" lon="1.779740">
						<ele>134</ele>
						<time>2026-04-14T09:11:08Z</time>
					</trkpt>
					<trkpt lat="48.873360" lon="1.779990">
						<ele>135</ele>
						<time>2026-04-14T09:11:11Z</time>
					</trkpt>
					<trkpt lat="48.873270" lon="1.780330">
						<ele>134</ele>
						<time>2026-04-14T09:11:15Z</time>
					</trkpt>
					<trkpt lat="48.873230" lon="1.780610">
						<ele>134</ele>
						<time>2026-04-14T09:11:19Z</time>
					</trkpt>
					<trkpt lat="48.873220" lon="1.780750">
						<ele>134</ele>
						<time>2026-04-14T09:11:20Z</time>
					</trkpt>
					<trkpt lat="48.873200" lon="1.781200">
						<ele>133</ele>
						<time>2026-04-14T09:11:26Z</time>
					</trkpt>
					<trkpt lat="48.873150" lon="1.782840">
						<ele>134</ele>
						<time>2026-04-14T09:11:45Z</time>
					</trkpt>
					<trkpt lat="48.873150" lon="1.782970">
						<ele>134</ele>
						<time>2026-04-14T09:11:46Z</time>
					</trkpt>
					<trkpt lat="48.873140" lon="1.783220">
						<ele>134</ele>
						<time>2026-04-14T09:11:49Z</time>
					</trkpt>
					<trkpt lat="48.873120" lon="1.784410">
						<ele>134</ele>
						<time>2026-04-14T09:12:03Z</time>
					</trkpt>
					<trkpt lat="48.873100" lon="1.784940">
						<ele>134</ele>
						<time>2026-04-14T09:12:09Z</time>
					</trkpt>
					<trkpt lat="48.872560" lon="1.787850">
						<ele>133</ele>
						<time>2026-04-14T09:12:45Z</time>
					</trkpt>
					<trkpt lat="48.872190" lon="1.788030">
						<ele>134</ele>
						<time>2026-04-14T09:12:52Z</time>
					</trkpt>
					<trkpt lat="48.872230" lon="1.788280">
						<ele>134</ele>
						<time>2026-04-14T09:12:55Z</time>
					</trkpt>
					<trkpt lat="48.872250" lon="1.788730">
						<ele>135</ele>
						<time>2026-04-14T09:13:00Z</time>
					</trkpt>
					<trkpt lat="48.872240" lon="1.789010">
						<ele>135</ele>
						<time>2026-04-14T09:13:03Z</time>
					</trkpt>
					<trkpt lat="48.872200" lon="1.789270">
						<ele>135</ele>
						<time>2026-04-14T09:13:06Z</time>
					</trkpt>
					<trkpt lat="48.872140" lon="1.789500">
						<ele>135</ele>
						<time>2026-04-14T09:13:09Z</time>
					</trkpt>
					<trkpt lat="48.871980" lon="1.789960">
						<ele>134</ele>
						<time>2026-04-14T09:13:15Z</time>
					</trkpt>
					<trkpt lat="48.871750" lon="1.790520">
						<ele>134</ele>
						<time>2026-04-14T09:13:23Z</time>
					</trkpt>
					<trkpt lat="48.871370" lon="1.791380">
						<ele>133</ele>
						<time>2026-04-14T09:13:35Z</time>
					</trkpt>
					<trkpt lat="48.870890" lon="1.792170">
						<ele>133</ele>
						<time>2026-04-14T09:13:48Z</time>
					</trkpt>
					<trkpt lat="48.870720" lon="1.792540">
						<ele>132</ele>
						<time>2026-04-14T09:13:53Z</time>
					</trkpt>
					<trkpt lat="48.870650" lon="1.792750">
						<ele>132</ele>
						<time>2026-04-14T09:13:56Z</time>
					</trkpt>
					<trkpt lat="48.870590" lon="1.793010">
						<ele>132</ele>
						<time>2026-04-14T09:13:59Z</time>
					</trkpt>
					<trkpt lat="48.870550" lon="1.793250">
						<ele>132</ele>
						<time>2026-04-14T09:14:02Z</time>
					</trkpt>
					<trkpt lat="48.870540" lon="1.793430">
						<ele>132</ele>
						<time>2026-04-14T09:14:04Z</time>
					</trkpt>
					<trkpt lat="48.870510" lon="1.794080">
						<ele>132</ele>
						<time>2026-04-14T09:14:12Z</time>
					</trkpt>
					<trkpt lat="48.870500" lon="1.794540">
						<ele>133</ele>
						<time>2026-04-14T09:14:17Z</time>
					</trkpt>
					<trkpt lat="48.870490" lon="1.794620">
						<ele>133</ele>
						<time>2026-04-14T09:14:18Z</time>
					</trkpt>
					<trkpt lat="48.870410" lon="1.794750">
						<ele>133</ele>
						<time>2026-04-14T09:14:20Z</time>
					</trkpt>
					<trkpt lat="48.870390" lon="1.794820">
						<ele>133</ele>
						<time>2026-04-14T09:14:21Z</time>
					</trkpt>
					<trkpt lat="48.870350" lon="1.794960">
						<ele>134</ele>
						<time>2026-04-14T09:14:23Z</time>
					</trkpt>
					<trkpt lat="48.870320" lon="1.795020">
						<ele>134</ele>
						<time>2026-04-14T09:14:24Z</time>
					</trkpt>
					<trkpt lat="48.870310" lon="1.794990">
						<ele>134</ele>
						<time>2026-04-14T09:14:24Z</time>
					</trkpt>
					<trkpt lat="48.870260" lon="1.794960">
						<ele>134</ele>
						<time>2026-04-14T09:14:25Z</time>
					</trkpt>
					<trkpt lat="48.870240" lon="1.794970">
						<ele>134</ele>
						<time>2026-04-14T09:14:25Z</time>
					</trkpt>
					<trkpt lat="48.870220" lon="1.795000">
						<ele>134</ele>
						<time>2026-04-14T09:14:26Z</time>
					</trkpt>
					<trkpt lat="48.869880" lon="1.796020">
						<ele>136</ele>
						<time>2026-04-14T09:14:39Z</time>
					</trkpt>
					<trkpt lat="48.869970" lon="1.796160">
						<ele>135</ele>
						<time>2026-04-14T09:14:42Z</time>
					</trkpt>
					<trkpt lat="48.870100" lon="1.796360">
						<ele>135</ele>
						<time>2026-04-14T09:14:45Z</time>
					</trkpt>
					<trkpt lat="48.870040" lon="1.796520">
						<ele>136</ele>
						<time>2026-04-14T09:14:47Z</time>
					</trkpt>
					<trkpt lat="48.869900" lon="1.796790">
						<ele>136</ele>
						<time>2026-04-14T09:14:51Z</time>
					</trkpt>
					<trkpt lat="48.869780" lon="1.796970">
						<ele>137</ele>
						<time>2026-04-14T09:14:54Z</time>
					</trkpt>
					<trkpt lat="48.869740" lon="1.797050">
						<ele>137</ele>
						<time>2026-04-14T09:14:55Z</time>
					</trkpt>
					<trkpt lat="48.869680" lon="1.797180">
						<ele>137</ele>
						<time>2026-04-14T09:14:57Z</time>
					</trkpt>
					<trkpt lat="48.869610" lon="1.797390">
						<ele>138</ele>
						<time>2026-04-14T09:15:00Z</time>
					</trkpt>
					<trkpt lat="48.869460" lon="1.797940">
						<ele>138</ele>
						<time>2026-04-14T09:15:07Z</time>
					</trkpt>
					<trkpt lat="48.869440" lon="1.798050">
						<ele>138</ele>
						<time>2026-04-14T09:15:08Z</time>
					</trkpt>
					<trkpt lat="48.869400" lon="1.798350">
						<ele>137</ele>
						<time>2026-04-14T09:15:12Z</time>
					</trkpt>
					<trkpt lat="48.869400" lon="1.798560">
						<ele>137</ele>
						<time>2026-04-14T09:15:14Z</time>
					</trkpt>
					<trkpt lat="48.869380" lon="1.799240">
						<ele>135</ele>
						<time>2026-04-14T09:15:22Z</time>
					</trkpt>
					<trkpt lat="48.869360" lon="1.799570">
						<ele>134</ele>
						<time>2026-04-14T09:15:26Z</time>
					</trkpt>
					<trkpt lat="48.869320" lon="1.800050">
						<ele>132</ele>
						<time>2026-04-14T09:15:32Z</time>
					</trkpt>
					<trkpt lat="48.869270" lon="1.800030">
						<ele>133</ele>
						<time>2026-04-14T09:15:33Z</time>
					</trkpt>
					<trkpt lat="48.869250" lon="1.800040">
						<ele>133</ele>
						<time>2026-04-14T09:15:33Z</time>
					</trkpt>
					<trkpt lat="48.869220" lon="1.800060">
						<ele>133</ele>
						<time>2026-04-14T09:15:34Z</time>
					</trkpt>
					<trkpt lat="48.869200" lon="1.800110">
						<ele>133</ele>
						<time>2026-04-14T09:15:34Z</time>
					</trkpt>
					<trkpt lat="48.869200" lon="1.800150">
						<ele>132</ele>
						<time>2026-04-14T09:15:35Z</time>
					</trkpt>
					<trkpt lat="48.869210" lon="1.800220">
						<ele>132</ele>
						<time>2026-04-14T09:15:36Z</time>
					</trkpt>
					<trkpt lat="48.869220" lon="1.800240">
						<ele>132</ele>
						<time>2026-04-14T09:15:36Z</time>
					</trkpt>
					<trkpt lat="48.868950" lon="1.800940">
						<ele>131</ele>
						<time>2026-04-14T09:15:45Z</time>
					</trkpt>
					<trkpt lat="48.868730" lon="1.801490">
						<ele>132</ele>
						<time>2026-04-14T09:15:53Z</time>
					</trkpt>
					<trkpt lat="48.868660" lon="1.801680">
						<ele>132</ele>
						<time>2026-04-14T09:15:55Z</time>
					</trkpt>
					<trkpt lat="48.868520" lon="1.802140">
						<ele>131</ele>
						<time>2026-04-14T09:16:01Z</time>
					</trkpt>
					<trkpt lat="48.868360" lon="1.802770">
						<ele>130</ele>
						<time>2026-04-14T09:16:09Z</time>
					</trkpt>
					<trkpt lat="48.868170" lon="1.803800">
						<ele>128</ele>
						<time>2026-04-14T09:16:22Z</time>
					</trkpt>
					<trkpt lat="48.868080" lon="1.804220">
						<ele>129</ele>
						<time>2026-04-14T09:16:27Z</time>
					</trkpt>
					<trkpt lat="48.867920" lon="1.804900">
						<ele>128</ele>
						<time>2026-04-14T09:16:35Z</time>
					</trkpt>
					<trkpt lat="48.867740" lon="1.805480">
						<ele>127</ele>
						<time>2026-04-14T09:16:43Z</time>
					</trkpt>
					<trkpt lat="48.867580" lon="1.806270">
						<ele>126</ele>
						<time>2026-04-14T09:16:53Z</time>
					</trkpt>
					<trkpt lat="48.867500" lon="1.807270">
						<ele>125</ele>
						<time>2026-04-14T09:17:04Z</time>
					</trkpt>
					<trkpt lat="48.867440" lon="1.807900">
						<ele>125</ele>
						<time>2026-04-14T09:17:12Z</time>
					</trkpt>
					<trkpt lat="48.867380" lon="1.808430">
						<ele>125</ele>
						<time>2026-04-14T09:17:18Z</time>
					</trkpt>
					<trkpt lat="48.867270" lon="1.808930">
						<ele>125</ele>
						<time>2026-04-14T09:17:24Z</time>
					</trkpt>
					<trkpt lat="48.866860" lon="1.810000">
						<ele>127</ele>
						<time>2026-04-14T09:17:39Z</time>
					</trkpt>
					<trkpt lat="48.866650" lon="1.810450">
						<ele>127</ele>
						<time>2026-04-14T09:17:45Z</time>
					</trkpt>
					<trkpt lat="48.866290" lon="1.811100">
						<ele>128</ele>
						<time>2026-04-14T09:17:55Z</time>
					</trkpt>
					<trkpt lat="48.865540" lon="1.812220">
						<ele>128</ele>
						<time>2026-04-14T09:18:14Z</time>
					</trkpt>
					<trkpt lat="48.865180" lon="1.812730">
						<ele>128</ele>
						<time>2026-04-14T09:18:23Z</time>
					</trkpt>
					<trkpt lat="48.864830" lon="1.813090">
						<ele>128</ele>
						<time>2026-04-14T09:18:30Z</time>
					</trkpt>
					<trkpt lat="48.864130" lon="1.813650">
						<ele>130</ele>
						<time>2026-04-14T09:18:44Z</time>
					</trkpt>
					<trkpt lat="48.863290" lon="1.814350">
						<ele>136</ele>
						<time>2026-04-14T09:19:01Z</time>
					</trkpt>
					<trkpt lat="48.863240" lon="1.814380">
						<ele>136</ele>
						<time>2026-04-14T09:19:02Z</time>
					</trkpt>
					<trkpt lat="48.863110" lon="1.814410">
						<ele>136</ele>
						<time>2026-04-14T09:19:05Z</time>
					</trkpt>
					<trkpt lat="48.862930" lon="1.814350">
						<ele>137</ele>
						<time>2026-04-14T09:19:08Z</time>
					</trkpt>
					<trkpt lat="48.862530" lon="1.814130">
						<ele>138</ele>
						<time>2026-04-14T09:19:15Z</time>
					</trkpt>
					<trkpt lat="48.862370" lon="1.814120">
						<ele>139</ele>
						<time>2026-04-14T09:19:18Z</time>
					</trkpt>
					<trkpt lat="48.862230" lon="1.814220">
						<ele>140</ele>
						<time>2026-04-14T09:19:21Z</time>
					</trkpt>
					<trkpt lat="48.862140" lon="1.814320">
						<ele>140</ele>
						<time>2026-04-14T09:19:23Z</time>
					</trkpt>
					<trkpt lat="48.861800" lon="1.814820">
						<ele>142</ele>
						<time>2026-04-14T09:19:31Z</time>
					</trkpt>
					<trkpt lat="48.861430" lon="1.815500">
						<ele>142</ele>
						<time>2026-04-14T09:19:42Z</time>
					</trkpt>
					<trkpt lat="48.861400" lon="1.815640">
						<ele>142</ele>
						<time>2026-04-14T09:19:43Z</time>
					</trkpt>
					<trkpt lat="48.861380" lon="1.816390">
						<ele>139</ele>
						<time>2026-04-14T09:19:52Z</time>
					</trkpt>
					<trkpt lat="48.861350" lon="1.816740">
						<ele>138</ele>
						<time>2026-04-14T09:19:56Z</time>
					</trkpt>
					<trkpt lat="48.861300" lon="1.817240">
						<ele>138</ele>
						<time>2026-04-14T09:20:02Z</time>
					</trkpt>
					<trkpt lat="48.861130" lon="1.817600">
						<ele>138</ele>
						<time>2026-04-14T09:20:07Z</time>
					</trkpt>
					<trkpt lat="48.861090" lon="1.817660">
						<ele>138</ele>
						<time>2026-04-14T09:20:08Z</time>
					</trkpt>
					<trkpt lat="48.861040" lon="1.817740">
						<ele>138</ele>
						<time>2026-04-14T09:20:10Z</time>
					</trkpt>
					<trkpt lat="48.860870" lon="1.817940">
						<ele>139</ele>
						<time>2026-04-14T09:20:14Z</time>
					</trkpt>
					<trkpt lat="48.860400" lon="1.818430">
						<ele>139</ele>
						<time>2026-04-14T09:20:24Z</time>
					</trkpt>
					<trkpt lat="48.860080" lon="1.818710">
						<ele>140</ele>
						<time>2026-04-14T09:20:30Z</time>
					</trkpt>
					<trkpt lat="48.859970" lon="1.818860">
						<ele>140</ele>
						<time>2026-04-14T09:20:33Z</time>
					</trkpt>
					<trkpt lat="48.859930" lon="1.818910">
						<ele>140</ele>
						<time>2026-04-14T09:20:34Z</time>
					</trkpt>
					<trkpt lat="48.859790" lon="1.819320">
						<ele>139</ele>
						<time>2026-04-14T09:20:39Z</time>
					</trkpt>
					<trkpt lat="48.859670" lon="1.819590">
						<ele>138</ele>
						<time>2026-04-14T09:20:43Z</time>
					</trkpt>
					<trkpt lat="48.859280" lon="1.820090">
						<ele>138</ele>
						<time>2026-04-14T09:20:52Z</time>
					</trkpt>
					<trkpt lat="48.859130" lon="1.820430">
						<ele>138</ele>
						<time>2026-04-14T09:20:57Z</time>
					</trkpt>
					<trkpt lat="48.859080" lon="1.820760">
						<ele>137</ele>
						<time>2026-04-14T09:21:01Z</time>
					</trkpt>
					<trkpt lat="48.859130" lon="1.821560">
						<ele>135</ele>
						<time>2026-04-14T09:21:10Z</time>
					</trkpt>
					<trkpt lat="48.859080" lon="1.821960">
						<ele>135</ele>
						<time>2026-04-14T09:21:15Z</time>
					</trkpt>
					<trkpt lat="48.859010" lon="1.822390">
						<ele>134</ele>
						<time>2026-04-14T09:21:20Z</time>
					</trkpt>
					<trkpt lat="48.858900" lon="1.822800">
						<ele>134</ele>
						<time>2026-04-14T09:21:25Z</time>
					</trkpt>
					<trkpt lat="48.858770" lon="1.823180">
						<ele>135</ele>
						<time>2026-04-14T09:21:30Z</time>
					</trkpt>
					<trkpt lat="48.858640" lon="1.823600">
						<ele>135</ele>
						<time>2026-04-14T09:21:36Z</time>
					</trkpt>
					<trkpt lat="48.858380" lon="1.824360">
						<ele>134</ele>
						<time>2026-04-14T09:21:46Z</time>
					</trkpt>
					<trkpt lat="48.858240" lon="1.824800">
						<ele>134</ele>
						<time>2026-04-14T09:21:52Z</time>
					</trkpt>
					<trkpt lat="48.858200" lon="1.825020">
						<ele>134</ele>
						<time>2026-04-14T09:21:54Z</time>
					</trkpt>
					<trkpt lat="48.858220" lon="1.825220">
						<ele>134</ele>
						<time>2026-04-14T09:21:57Z</time>
					</trkpt>
					<trkpt lat="48.858260" lon="1.826150">
						<ele>135</ele>
						<time>2026-04-14T09:22:08Z</time>
					</trkpt>
					<trkpt lat="48.858240" lon="1.826420">
						<ele>135</ele>
						<time>2026-04-14T09:22:11Z</time>
					</trkpt>
					<trkpt lat="48.858140" lon="1.826850">
						<ele>135</ele>
						<time>2026-04-14T09:22:16Z</time>
					</trkpt>
					<trkpt lat="48.857900" lon="1.827740">
						<ele>136</ele>
						<time>2026-04-14T09:22:27Z</time>
					</trkpt>
					<trkpt lat="48.857740" lon="1.828470">
						<ele>135</ele>
						<time>2026-04-14T09:22:36Z</time>
					</trkpt>
					<trkpt lat="48.857710" lon="1.828630">
						<ele>134</ele>
						<time>2026-04-14T09:22:38Z</time>
					</trkpt>
					<trkpt lat="48.857680" lon="1.828770">
						<ele>134</ele>
						<time>2026-04-14T09:22:40Z</time>
					</trkpt>
					<trkpt lat="48.857600" lon="1.829280">
						<ele>133</ele>
						<time>2026-04-14T09:22:46Z</time>
					</trkpt>
					<trkpt lat="48.857470" lon="1.830110">
						<ele>131</ele>
						<time>2026-04-14T09:22:56Z</time>
					</trkpt>
					<trkpt lat="48.857430" lon="1.830480">
						<ele>130</ele>
						<time>2026-04-14T09:23:01Z</time>
					</trkpt>
					<trkpt lat="48.857420" lon="1.830790">
						<ele>129</ele>
						<time>2026-04-14T09:23:04Z</time>
					</trkpt>
					<trkpt lat="48.857360" lon="1.831390">
						<ele>128</ele>
						<time>2026-04-14T09:23:11Z</time>
					</trkpt>
					<trkpt lat="48.857010" lon="1.834370">
						<ele>127</ele>
						<time>2026-04-14T09:23:47Z</time>
					</trkpt>
					<trkpt lat="48.856770" lon="1.836830">
						<ele>126</ele>
						<time>2026-04-14T09:24:16Z</time>
					</trkpt>
					<trkpt lat="48.856720" lon="1.837900">
						<ele>127</ele>
						<time>2026-04-14T09:24:28Z</time>
					</trkpt>
					<trkpt lat="48.856710" lon="1.838160">
						<ele>127</ele>
						<time>2026-04-14T09:24:31Z</time>
					</trkpt>
					<trkpt lat="48.856720" lon="1.838460">
						<ele>127</ele>
						<time>2026-04-14T09:24:35Z</time>
					</trkpt>
					<trkpt lat="48.856770" lon="1.838880">
						<ele>128</ele>
						<time>2026-04-14T09:24:40Z</time>
					</trkpt>
					<trkpt lat="48.856840" lon="1.841510">
						<ele>125</ele>
						<time>2026-04-14T09:25:11Z</time>
					</trkpt>
					<trkpt lat="48.856870" lon="1.842240">
						<ele>125</ele>
						<time>2026-04-14T09:25:19Z</time>
					</trkpt>
					<trkpt lat="48.856970" lon="1.843130">
						<ele>125</ele>
						<time>2026-04-14T09:25:30Z</time>
					</trkpt>
					<trkpt lat="48.857020" lon="1.843960">
						<ele>125</ele>
						<time>2026-04-14T09:25:40Z</time>
					</trkpt>
					<trkpt lat="48.857030" lon="1.844080">
						<ele>125</ele>
						<time>2026-04-14T09:25:41Z</time>
					</trkpt>
					<trkpt lat="48.857050" lon="1.846210">
						<ele>126</ele>
						<time>2026-04-14T09:26:06Z</time>
					</trkpt>
					<trkpt lat="48.857010" lon="1.846880">
						<ele>124</ele>
						<time>2026-04-14T09:26:14Z</time>
					</trkpt>
					<trkpt lat="48.856860" lon="1.848770">
						<ele>124</ele>
						<time>2026-04-14T09:26:36Z</time>
					</trkpt>
					<trkpt lat="48.856860" lon="1.849040">
						<ele>124</ele>
						<time>2026-04-14T09:26:39Z</time>
					</trkpt>
					<trkpt lat="48.856940" lon="1.849560">
						<ele>124</ele>
						<time>2026-04-14T09:26:46Z</time>
					</trkpt>
					<trkpt lat="48.856960" lon="1.849650">
						<ele>123</ele>
						<time>2026-04-14T09:26:47Z</time>
					</trkpt>
					<trkpt lat="48.857430" lon="1.851300">
						<ele>122</ele>
						<time>2026-04-14T09:27:08Z</time>
					</trkpt>
					<trkpt lat="48.857740" lon="1.852340">
						<ele>121</ele>
						<time>2026-04-14T09:27:21Z</time>
					</trkpt>
					<trkpt lat="48.857760" lon="1.852420">
						<ele>121</ele>
						<time>2026-04-14T09:27:22Z</time>
					</trkpt>
					<trkpt lat="48.857980" lon="1.853160">
						<ele>120</ele>
						<time>2026-04-14T09:27:32Z</time>
					</trkpt>
					<trkpt lat="48.858140" lon="1.853830">
						<ele>119</ele>
						<time>2026-04-14T09:27:40Z</time>
					</trkpt>
					<trkpt lat="48.858220" lon="1.854220">
						<ele>118</ele>
						<time>2026-04-14T09:27:45Z</time>
					</trkpt>
					<trkpt lat="48.858310" lon="1.854800">
						<ele>118</ele>
						<time>2026-04-14T09:27:52Z</time>
					</trkpt>
					<trkpt lat="48.858380" lon="1.855480">
						<ele>117</ele>
						<time>2026-04-14T09:28:00Z</time>
					</trkpt>
					<trkpt lat="48.858370" lon="1.856510">
						<ele>114</ele>
						<time>2026-04-14T09:28:12Z</time>
					</trkpt>
					<trkpt lat="48.858330" lon="1.857090">
						<ele>112</ele>
						<time>2026-04-14T09:28:19Z</time>
					</trkpt>
					<trkpt lat="48.858140" lon="1.858750">
						<ele>108</ele>
						<time>2026-04-14T09:28:38Z</time>
					</trkpt>
					<trkpt lat="48.858070" lon="1.859580">
						<ele>108</ele>
						<time>2026-04-14T09:28:48Z</time>
					</trkpt>
					<trkpt lat="48.858100" lon="1.860220">
						<ele>108</ele>
						<time>2026-04-14T09:28:56Z</time>
					</trkpt>
					<trkpt lat="48.858220" lon="1.861190">
						<ele>107</ele>
						<time>2026-04-14T09:29:07Z</time>
					</trkpt>
					<trkpt lat="48.858410" lon="1.863050">
						<ele>93</ele>
						<time>2026-04-14T09:29:29Z</time>
					</trkpt>
					<trkpt lat="48.858440" lon="1.864030">
						<ele>90</ele>
						<time>2026-04-14T09:29:41Z</time>
					</trkpt>
					<trkpt lat="48.858400" lon="1.864810">
						<ele>87</ele>
						<time>2026-04-14T09:29:50Z</time>
					</trkpt>
					<trkpt lat="48.858330" lon="1.865370">
						<ele>84</ele>
						<time>2026-04-14T09:29:57Z</time>
					</trkpt>
					<trkpt lat="48.858240" lon="1.865820">
						<ele>82</ele>
						<time>2026-04-14T09:30:02Z</time>
					</trkpt>
					<trkpt lat="48.858110" lon="1.866350">
						<ele>80</ele>
						<time>2026-04-14T09:30:09Z</time>
					</trkpt>
					<trkpt lat="48.857990" lon="1.866800">
						<ele>77</ele>
						<time>2026-04-14T09:30:14Z</time>
					</trkpt>
					<trkpt lat="48.856600" lon="1.870480">
						<ele>57</ele>
						<time>2026-04-14T09:31:04Z</time>
					</trkpt>
					<trkpt lat="48.856570" lon="1.870570">
						<ele>57</ele>
						<time>2026-04-14T09:31:05Z</time>
					</trkpt>
					<trkpt lat="48.856520" lon="1.870790">
						<ele>57</ele>
						<time>2026-04-14T09:31:08Z</time>
					</trkpt>
					<trkpt lat="48.856500" lon="1.870910">
						<ele>57</ele>
						<time>2026-04-14T09:31:09Z</time>
					</trkpt>
					<trkpt lat="48.856510" lon="1.871290">
						<ele>56</ele>
						<time>2026-04-14T09:31:14Z</time>
					</trkpt>
					<trkpt lat="48.856530" lon="1.871490">
						<ele>56</ele>
						<time>2026-04-14T09:31:16Z</time>
					</trkpt>
					<trkpt lat="48.856570" lon="1.871670">
						<ele>56</ele>
						<time>2026-04-14T09:31:19Z</time>
					</trkpt>
					<trkpt lat="48.856620" lon="1.872010">
						<ele>55</ele>
						<time>2026-04-14T09:31:23Z</time>
					</trkpt>
					<trkpt lat="48.856630" lon="1.872230">
						<ele>55</ele>
						<time>2026-04-14T09:31:25Z</time>
					</trkpt>
					<trkpt lat="48.856620" lon="1.872330">
						<ele>54</ele>
						<time>2026-04-14T09:31:26Z</time>
					</trkpt>
					<trkpt lat="48.856590" lon="1.872410">
						<ele>54</ele>
						<time>2026-04-14T09:31:27Z</time>
					</trkpt>
					<trkpt lat="48.856480" lon="1.872810">
						<ele>54</ele>
						<time>2026-04-14T09:31:33Z</time>
					</trkpt>
					<trkpt lat="48.856430" lon="1.872990">
						<ele>54</ele>
						<time>2026-04-14T09:31:35Z</time>
					</trkpt>
					<trkpt lat="48.856400" lon="1.873110">
						<ele>53</ele>
						<time>2026-04-14T09:31:36Z</time>
					</trkpt>
					<trkpt lat="48.856350" lon="1.873230">
						<ele>53</ele>
						<time>2026-04-14T09:31:38Z</time>
					</trkpt>
					<trkpt lat="48.856290" lon="1.873310">
						<ele>53</ele>
						<time>2026-04-14T09:31:39Z</time>
					</trkpt>
					<trkpt lat="48.856320" lon="1.873380">
						<ele>53</ele>
						<time>2026-04-14T09:31:40Z</time>
					</trkpt>
					<trkpt lat="48.856640" lon="1.874000">
						<ele>51</ele>
						<time>2026-04-14T09:31:50Z</time>
					</trkpt>
					<trkpt lat="48.856860" lon="1.874400">
						<ele>50</ele>
						<time>2026-04-14T09:31:56Z</time>
					</trkpt>
					<trkpt lat="48.857190" lon="1.874990">
						<ele>50</ele>
						<time>2026-04-14T09:32:05Z</time>
					</trkpt>
					<trkpt lat="48.857200" lon="1.875000">
						<ele>50</ele>
						<time>2026-04-14T09:32:05Z</time>
					</trkpt>
					<trkpt lat="48.857290" lon="1.875240">
						<ele>50</ele>
						<time>2026-04-14T09:32:08Z</time>
					</trkpt>
					<trkpt lat="48.857320" lon="1.875320">
						<ele>50</ele>
						<time>2026-04-14T09:32:09Z</time>
					</trkpt>
					<trkpt lat="48.857390" lon="1.875500">
						<ele>51</ele>
						<time>2026-04-14T09:32:12Z</time>
					</trkpt>
					<trkpt lat="48.857470" lon="1.875700">
						<ele>52</ele>
						<time>2026-04-14T09:32:14Z</time>
					</trkpt>
					<trkpt lat="48.857530" lon="1.875880">
						<ele>52</ele>
						<time>2026-04-14T09:32:17Z</time>
					</trkpt>
					<trkpt lat="48.857610" lon="1.876020">
						<ele>53</ele>
						<time>2026-04-14T09:32:19Z</time>
					</trkpt>
					<trkpt lat="48.857700" lon="1.876070">
						<ele>54</ele>
						<time>2026-04-14T09:32:21Z</time>
					</trkpt>
					<trkpt lat="48.857820" lon="1.876060">
						<ele>54</ele>
						<time>2026-04-14T09:32:23Z</time>
					</trkpt>
					<trkpt lat="48.858070" lon="1.876010">
						<ele>55</ele>
						<time>2026-04-14T09:32:27Z</time>
					</trkpt>
					<trkpt lat="48.858450" lon="1.875880">
						<ele>54</ele>
						<time>2026-04-14T09:32:34Z</time>
					</trkpt>
					<trkpt lat="48.859170" lon="1.875520">
						<ele>55</ele>
						<time>2026-04-14T09:32:48Z</time>
					</trkpt>
					<trkpt lat="48.859390" lon="1.875470">
						<ele>54</ele>
						<time>2026-04-14T09:32:52Z</time>
					</trkpt>
					<trkpt lat="48.859560" lon="1.875420">
						<ele>54</ele>
						<time>2026-04-14T09:32:55Z</time>
					</trkpt>
					<trkpt lat="48.860670" lon="1.875130">
						<ele>53</ele>
						<time>2026-04-14T09:33:15Z</time>
					</trkpt>
					<trkpt lat="48.860710" lon="1.875110">
						<ele>53</ele>
						<time>2026-04-14T09:33:16Z</time>
					</trkpt>
					<trkpt lat="48.861390" lon="1.874910">
						<ele>53</ele>
						<time>2026-04-14T09:33:28Z</time>
					</trkpt>
					<trkpt lat="48.861460" lon="1.875440">
						<ele>57</ele>
						<time>2026-04-14T09:33:34Z</time>
					</trkpt>
					<trkpt lat="48.862070" lon="1.875210">
						<ele>56</ele>
						<time>2026-04-14T09:33:45Z</time>
					</trkpt>
					<trkpt lat="48.862660" lon="1.875020">
						<ele>56</ele>
						<time>2026-04-14T09:33:56Z</time>
					</trkpt>
					<trkpt lat="48.863160" lon="1.874890">
						<ele>56</ele>
						<time>2026-04-14T09:34:05Z</time>
					</trkpt>
					<trkpt lat="48.863740" lon="1.874750">
						<ele>56</ele>
						<time>2026-04-14T09:34:16Z</time>
					</trkpt>
					<trkpt lat="48.864300" lon="1.874630">
						<ele>56</ele>
						<time>2026-04-14T09:34:26Z</time>
					</trkpt>
					<trkpt lat="48.865020" lon="1.874450">
						<ele>57</ele>
						<time>2026-04-14T09:34:39Z</time>
					</trkpt>
					<trkpt lat="48.865390" lon="1.874380">
						<ele>56</ele>
						<time>2026-04-14T09:34:45Z</time>
					</trkpt>
					<trkpt lat="48.865690" lon="1.874360">
						<ele>56</ele>
						<time>2026-04-14T09:34:51Z</time>
					</trkpt>
					<trkpt lat="48.865800" lon="1.874350">
						<ele>56</ele>
						<time>2026-04-14T09:34:53Z</time>
					</trkpt>
					<trkpt lat="48.866430" lon="1.874310">
						<ele>54</ele>
						<time>2026-04-14T09:35:04Z</time>
					</trkpt>
					<trkpt lat="48.866740" lon="1.874350">
						<ele>54</ele>
						<time>2026-04-14T09:35:09Z</time>
					</trkpt>
					<trkpt lat="48.867550" lon="1.874610">
						<ele>51</ele>
						<time>2026-04-14T09:35:24Z</time>
					</trkpt>
					<trkpt lat="48.867980" lon="1.874850">
						<ele>50</ele>
						<time>2026-04-14T09:35:32Z</time>
					</trkpt>
					<trkpt lat="48.868400" lon="1.875110">
						<ele>50</ele>
						<time>2026-04-14T09:35:40Z</time>
					</trkpt>
					<trkpt lat="48.869670" lon="1.875830">
						<ele>49</ele>
						<time>2026-04-14T09:36:04Z</time>
					</trkpt>
					<trkpt lat="48.870180" lon="1.876080">
						<ele>47</ele>
						<time>2026-04-14T09:36:14Z</time>
					</trkpt>
					<trkpt lat="48.870650" lon="1.876300">
						<ele>47</ele>
						<time>2026-04-14T09:36:23Z</time>
					</trkpt>
					<trkpt lat="48.871210" lon="1.876510">
						<ele>46</ele>
						<time>2026-04-14T09:36:33Z</time>
					</trkpt>
					<trkpt lat="48.871380" lon="1.876670">
						<ele>46</ele>
						<time>2026-04-14T09:36:37Z</time>
					</trkpt>
					<trkpt lat="48.871650" lon="1.877080">
						<ele>47</ele>
						<time>2026-04-14T09:36:43Z</time>
					</trkpt>
					<trkpt lat="48.872680" lon="1.878470">
						<ele>49</ele>
						<time>2026-04-14T09:37:08Z</time>
					</trkpt>
					<trkpt lat="48.872960" lon="1.878950">
						<ele>49</ele>
						<time>2026-04-14T09:37:15Z</time>
					</trkpt>
					<trkpt lat="48.873090" lon="1.879230">
						<ele>49</ele>
						<time>2026-04-14T09:37:19Z</time>
					</trkpt>
					<trkpt lat="48.873170" lon="1.879490">
						<ele>48</ele>
						<time>2026-04-14T09:37:23Z</time>
					</trkpt>
					<trkpt lat="48.873290" lon="1.880060">
						<ele>47</ele>
						<time>2026-04-14T09:37:30Z</time>
					</trkpt>
					<trkpt lat="48.873310" lon="1.880230">
						<ele>47</ele>
						<time>2026-04-14T09:37:32Z</time>
					</trkpt>
					<trkpt lat="48.873500" lon="1.880580">
						<ele>46</ele>
						<time>2026-04-14T09:37:37Z</time>
					</trkpt>
					<trkpt lat="48.873610" lon="1.880770">
						<ele>46</ele>
						<time>2026-04-14T09:37:40Z</time>
					</trkpt>
					<trkpt lat="48.873760" lon="1.881120">
						<ele>45</ele>
						<time>2026-04-14T09:37:45Z</time>
					</trkpt>
					<trkpt lat="48.873970" lon="1.881470">
						<ele>44</ele>
						<time>2026-04-14T09:37:50Z</time>
					</trkpt>
					<trkpt lat="48.874030" lon="1.881670">
						<ele>43</ele>
						<time>2026-04-14T09:37:53Z</time>
					</trkpt>
					<trkpt lat="48.874140" lon="1.882140">
						<ele>44</ele>
						<time>2026-04-14T09:37:59Z</time>
					</trkpt>
					<trkpt lat="48.874210" lon="1.882350">
						<ele>44</ele>
						<time>2026-04-14T09:38:02Z</time>
					</trkpt>
					<trkpt lat="48.874320" lon="1.882630">
						<ele>44</ele>
						<time>2026-04-14T09:38:05Z</time>
					</trkpt>
					<trkpt lat="48.874510" lon="1.883050">
						<ele>45</ele>
						<time>2026-04-14T09:38:11Z</time>
					</trkpt>
					<trkpt lat="48.874570" lon="1.883180">
						<ele>45</ele>
						<time>2026-04-14T09:38:13Z</time>
					</trkpt>
					<trkpt lat="48.874720" lon="1.883570">
						<ele>46</ele>
						<time>2026-04-14T09:38:19Z</time>
					</trkpt>
					<trkpt lat="48.874800" lon="1.883850">
						<ele>46</ele>
						<time>2026-04-14T09:38:22Z</time>
					</trkpt>
					<trkpt lat="48.874810" lon="1.883980">
						<ele>46</ele>
						<time>2026-04-14T09:38:24Z</time>
					</trkpt>
					<trkpt lat="48.874790" lon="1.884090">
						<ele>46</ele>
						<time>2026-04-14T09:38:25Z</time>
					</trkpt>
					<trkpt lat="48.874270" lon="1.885240">
						<ele>44</ele>
						<time>2026-04-14T09:38:41Z</time>
					</trkpt>
					<trkpt lat="48.873920" lon="1.885960">
						<ele>44</ele>
						<time>2026-04-14T09:38:52Z</time>
					</trkpt>
					<trkpt lat="48.873730" lon="1.886310">
						<ele>44</ele>
						<time>2026-04-14T09:38:57Z</time>
					</trkpt>
					<trkpt lat="48.873470" lon="1.886730">
						<ele>44</ele>
						<time>2026-04-14T09:39:04Z</time>
					</trkpt>
					<trkpt lat="48.873290" lon="1.887010">
						<ele>44</ele>
						<time>2026-04-14T09:39:08Z</time>
					</trkpt>
					<trkpt lat="48.873130" lon="1.887230">
						<ele>44</ele>
						<time>2026-04-14T09:39:12Z</time>
					</trkpt>
					<trkpt lat="48.873010" lon="1.887370">
						<ele>44</ele>
						<time>2026-04-14T09:39:15Z</time>
					</trkpt>
					<trkpt lat="48.872860" lon="1.887540">
						<ele>44</ele>
						<time>2026-04-14T09:39:18Z</time>
					</trkpt>
					<trkpt lat="48.872680" lon="1.887680">
						<ele>44</ele>
						<time>2026-04-14T09:39:22Z</time>
					</trkpt>
					<trkpt lat="48.872380" lon="1.887880">
						<ele>44</ele>
						<time>2026-04-14T09:39:28Z</time>
					</trkpt>
					<trkpt lat="48.871820" lon="1.888330">
						<ele>45</ele>
						<time>2026-04-14T09:39:39Z</time>
					</trkpt>
					<trkpt lat="48.871580" lon="1.888530">
						<ele>46</ele>
						<time>2026-04-14T09:39:44Z</time>
					</trkpt>
					<trkpt lat="48.871350" lon="1.888760">
						<ele>46</ele>
						<time>2026-04-14T09:39:49Z</time>
					</trkpt>
					<trkpt lat="48.871150" lon="1.888990">
						<ele>47</ele>
						<time>2026-04-14T09:39:53Z</time>
					</trkpt>
					<trkpt lat="48.870960" lon="1.889250">
						<ele>47</ele>
						<time>2026-04-14T09:39:58Z</time>
					</trkpt>
					<trkpt lat="48.870810" lon="1.889470">
						<ele>47</ele>
						<time>2026-04-14T09:40:01Z</time>
					</trkpt>
					<trkpt lat="48.870620" lon="1.889830">
						<ele>48</ele>
						<time>2026-04-14T09:40:07Z</time>
					</trkpt>
					<trkpt lat="48.870380" lon="1.890420">
						<ele>50</ele>
						<time>2026-04-14T09:40:15Z</time>
					</trkpt>
					<trkpt lat="48.869840" lon="1.891830">
						<ele>51</ele>
						<time>2026-04-14T09:40:34Z</time>
					</trkpt>
					<trkpt lat="48.869590" lon="1.892710">
						<ele>54</ele>
						<time>2026-04-14T09:40:45Z</time>
					</trkpt>
					<trkpt lat="48.868520" lon="1.896660">
						<ele>62</ele>
						<time>2026-04-14T09:41:35Z</time>
					</trkpt>
					<trkpt lat="48.867980" lon="1.899370">
						<ele>61</ele>
						<time>2026-04-14T09:42:08Z</time>
					</trkpt>
					<trkpt lat="48.867360" lon="1.902300">
						<ele>63</ele>
						<time>2026-04-14T09:42:44Z</time>
					</trkpt>
					<trkpt lat="48.867110" lon="1.903540">
						<ele>65</ele>
						<time>2026-04-14T09:43:00Z</time>
					</trkpt>
					<trkpt lat="48.866970" lon="1.904290">
						<ele>65</ele>
						<time>2026-04-14T09:43:09Z</time>
					</trkpt>
					<trkpt lat="48.866930" lon="1.904600">
						<ele>65</ele>
						<time>2026-04-14T09:43:12Z</time>
					</trkpt>
					<trkpt lat="48.866890" lon="1.904990">
						<ele>66</ele>
						<time>2026-04-14T09:43:17Z</time>
					</trkpt>
					<trkpt lat="48.866820" lon="1.906010">
						<ele>66</ele>
						<time>2026-04-14T09:43:29Z</time>
					</trkpt>
					<trkpt lat="48.866780" lon="1.906640">
						<ele>65</ele>
						<time>2026-04-14T09:43:36Z</time>
					</trkpt>
					<trkpt lat="48.866760" lon="1.907210">
						<ele>65</ele>
						<time>2026-04-14T09:43:43Z</time>
					</trkpt>
					<trkpt lat="48.866790" lon="1.908390">
						<ele>65</ele>
						<time>2026-04-14T09:43:57Z</time>
					</trkpt>
					<trkpt lat="48.866820" lon="1.909000">
						<ele>65</ele>
						<time>2026-04-14T09:44:04Z</time>
					</trkpt>
					<trkpt lat="48.866860" lon="1.909550">
						<ele>63</ele>
						<time>2026-04-14T09:44:11Z</time>
					</trkpt>
					<trkpt lat="48.866870" lon="1.909720">
						<ele>63</ele>
						<time>2026-04-14T09:44:13Z</time>
					</trkpt>
					<trkpt lat="48.866920" lon="1.910180">
						<ele>62</ele>
						<time>2026-04-14T09:44:18Z</time>
					</trkpt>
					<trkpt lat="48.867010" lon="1.910780">
						<ele>61</ele>
						<time>2026-04-14T09:44:25Z</time>
					</trkpt>
					<trkpt lat="48.867090" lon="1.911170">
						<ele>60</ele>
						<time>2026-04-14T09:44:30Z</time>
					</trkpt>
					<trkpt lat="48.867290" lon="1.912040">
						<ele>58</ele>
						<time>2026-04-14T09:44:41Z</time>
					</trkpt>
					<trkpt lat="48.867610" lon="1.913140">
						<ele>58</ele>
						<time>2026-04-14T09:44:55Z</time>
					</trkpt>
					<trkpt lat="48.867660" lon="1.913430">
						<ele>58</ele>
						<time>2026-04-14T09:44:58Z</time>
					</trkpt>
					<trkpt lat="48.867670" lon="1.913590">
						<ele>58</ele>
						<time>2026-04-14T09:45:00Z</time>
					</trkpt>
					<trkpt lat="48.867670" lon="1.913680">
						<ele>58</ele>
						<time>2026-04-14T09:45:01Z</time>
					</trkpt>
					<trkpt lat="48.867650" lon="1.913810">
						<ele>58</ele>
						<time>2026-04-14T09:45:03Z</time>
					</trkpt>
					<trkpt lat="48.867720" lon="1.913870">
						<ele>59</ele>
						<time>2026-04-14T09:45:04Z</time>
					</trkpt>
					<trkpt lat="48.868030" lon="1.914200">
						<ele>59</ele>
						<time>2026-04-14T09:45:11Z</time>
					</trkpt>
					<trkpt lat="48.868290" lon="1.914520">
						<ele>60</ele>
						<time>2026-04-14T09:45:17Z</time>
					</trkpt>
					<trkpt lat="48.868540" lon="1.914890">
						<ele>61</ele>
						<time>2026-04-14T09:45:23Z</time>
					</trkpt>
					<trkpt lat="48.868750" lon="1.915250">
						<ele>61</ele>
						<time>2026-04-14T09:45:29Z</time>
					</trkpt>
					<trkpt lat="48.869910" lon="1.917410">
						<ele>64</ele>
						<time>2026-04-14T09:46:02Z</time>
					</trkpt>
					<trkpt lat="48.870110" lon="1.917760">
						<ele>64</ele>
						<time>2026-04-14T09:46:07Z</time>
					</trkpt>
					<trkpt lat="48.870270" lon="1.918000">
						<ele>64</ele>
						<time>2026-04-14T09:46:11Z</time>
					</trkpt>
					<trkpt lat="48.870430" lon="1.918200">
						<ele>64</ele>
						<time>2026-04-14T09:46:15Z</time>
					</trkpt>
					<trkpt lat="48.870640" lon="1.918430">
						<ele>65</ele>
						<time>2026-04-14T09:46:19Z</time>
					</trkpt>
					<trkpt lat="48.871440" lon="1.919170">
						<ele>68</ele>
						<time>2026-04-14T09:46:36Z</time>
					</trkpt>
					<trkpt lat="48.871690" lon="1.919410">
						<ele>69</ele>
						<time>2026-04-14T09:46:41Z</time>
					</trkpt>
					<trkpt lat="48.871870" lon="1.919640">
						<ele>70</ele>
						<time>2026-04-14T09:46:45Z</time>
					</trkpt>
					<trkpt lat="48.871950" lon="1.919760">
						<ele>71</ele>
						<time>2026-04-14T09:46:47Z</time>
					</trkpt>
					<trkpt lat="48.872520" lon="1.920680">
						<ele>73</ele>
						<time>2026-04-14T09:47:02Z</time>
					</trkpt>
					<trkpt lat="48.872640" lon="1.920820">
						<ele>74</ele>
						<time>2026-04-14T09:47:05Z</time>
					</trkpt>
					<trkpt lat="48.872710" lon="1.920880">
						<ele>74</ele>
						<time>2026-04-14T09:47:06Z</time>
					</trkpt>
					<trkpt lat="48.872780" lon="1.920930">
						<ele>74</ele>
						<time>2026-04-14T09:47:08Z</time>
					</trkpt>
					<trkpt lat="48.872920" lon="1.920990">
						<ele>75</ele>
						<time>2026-04-14T09:47:10Z</time>
					</trkpt>
					<trkpt lat="48.873910" lon="1.921270">
						<ele>78</ele>
						<time>2026-04-14T09:47:28Z</time>
					</trkpt>
					<trkpt lat="48.874100" lon="1.921290">
						<ele>79</ele>
						<time>2026-04-14T09:47:32Z</time>
					</trkpt>
					<trkpt lat="48.874390" lon="1.921290">
						<ele>79</ele>
						<time>2026-04-14T09:47:37Z</time>
					</trkpt>
					<trkpt lat="48.874520" lon="1.921280">
						<ele>80</ele>
						<time>2026-04-14T09:47:39Z</time>
					</trkpt>
					<trkpt lat="48.874750" lon="1.921230">
						<ele>80</ele>
						<time>2026-04-14T09:47:43Z</time>
					</trkpt>
					<trkpt lat="48.875390" lon="1.921090">
						<ele>81</ele>
						<time>2026-04-14T09:47:55Z</time>
					</trkpt>
					<trkpt lat="48.875690" lon="1.921040">
						<ele>82</ele>
						<time>2026-04-14T09:48:00Z</time>
					</trkpt>
					<trkpt lat="48.875930" lon="1.921050">
						<ele>82</ele>
						<time>2026-04-14T09:48:04Z</time>
					</trkpt>
					<trkpt lat="48.876190" lon="1.921080">
						<ele>84</ele>
						<time>2026-04-14T09:48:09Z</time>
					</trkpt>
					<trkpt lat="48.877120" lon="1.921180">
						<ele>87</ele>
						<time>2026-04-14T09:48:26Z</time>
					</trkpt>
					<trkpt lat="48.877310" lon="1.921190">
						<ele>87</ele>
						<time>2026-04-14T09:48:29Z</time>
					</trkpt>
					<trkpt lat="48.877590" lon="1.921160">
						<ele>87</ele>
						<time>2026-04-14T09:48:34Z</time>
					</trkpt>
					<trkpt lat="48.877790" lon="1.921170">
						<ele>88</ele>
						<time>2026-04-14T09:48:37Z</time>
					</trkpt>
					<trkpt lat="48.877900" lon="1.921200">
						<ele>88</ele>
						<time>2026-04-14T09:48:39Z</time>
					</trkpt>
					<trkpt lat="48.877990" lon="1.921250">
						<ele>88</ele>
						<time>2026-04-14T09:48:41Z</time>
					</trkpt>
					<trkpt lat="48.878760" lon="1.921750">
						<ele>89</ele>
						<time>2026-04-14T09:48:56Z</time>
					</trkpt>
					<trkpt lat="48.879040" lon="1.921910">
						<ele>90</ele>
						<time>2026-04-14T09:49:01Z</time>
					</trkpt>
					<trkpt lat="48.879300" lon="1.922040">
						<ele>91</ele>
						<time>2026-04-14T09:49:06Z</time>
					</trkpt>
					<trkpt lat="48.879730" lon="1.922270">
						<ele>93</ele>
						<time>2026-04-14T09:49:14Z</time>
					</trkpt>
					<trkpt lat="48.880200" lon="1.922570">
						<ele>95</ele>
						<time>2026-04-14T09:49:23Z</time>
					</trkpt>
					<trkpt lat="48.880450" lon="1.922720">
						<ele>97</ele>
						<time>2026-04-14T09:49:28Z</time>
					</trkpt>
					<trkpt lat="48.880790" lon="1.922890">
						<ele>101</ele>
						<time>2026-04-14T09:49:35Z</time>
					</trkpt>
					<trkpt lat="48.881700" lon="1.923210">
						<ele>106</ele>
						<time>2026-04-14T09:49:51Z</time>
					</trkpt>
					<trkpt lat="48.881730" lon="1.923180">
						<ele>107</ele>
						<time>2026-04-14T09:49:52Z</time>
					</trkpt>
					<trkpt lat="48.881800" lon="1.923020">
						<ele>107</ele>
						<time>2026-04-14T09:49:54Z</time>
					</trkpt>
					<trkpt lat="48.881930" lon="1.922770">
						<ele>108</ele>
						<time>2026-04-14T09:49:58Z</time>
					</trkpt>
					<trkpt lat="48.881960" lon="1.922640">
						<ele>109</ele>
						<time>2026-04-14T09:49:59Z</time>
					</trkpt>
					<trkpt lat="48.881980" lon="1.922540">
						<ele>109</ele>
						<time>2026-04-14T09:50:01Z</time>
					</trkpt>
					<trkpt lat="48.882030" lon="1.921840">
						<ele>111</ele>
						<time>2026-04-14T09:50:09Z</time>
					</trkpt>
					<trkpt lat="48.882060" lon="1.921810">
						<ele>111</ele>
						<time>2026-04-14T09:50:10Z</time>
					</trkpt>
					<trkpt lat="48.882530" lon="1.921840">
						<ele>112</ele>
						<time>2026-04-14T09:50:18Z</time>
					</trkpt>
					<trkpt lat="48.882590" lon="1.921870">
						<ele>112</ele>
						<time>2026-04-14T09:50:19Z</time>
					</trkpt>
					<trkpt lat="48.883180" lon="1.922110">
						<ele>114</ele>
						<time>2026-04-14T09:50:30Z</time>
					</trkpt>
					<trkpt lat="48.883650" lon="1.922240">
						<ele>115</ele>
						<time>2026-04-14T09:50:38Z</time>
					</trkpt>
					<trkpt lat="48.884020" lon="1.922360">
						<ele>115</ele>
						<time>2026-04-14T09:50:45Z</time>
					</trkpt>
					<trkpt lat="48.884460" lon="1.922550">
						<ele>115</ele>
						<time>2026-04-14T09:50:53Z</time>
					</trkpt>
					<trkpt lat="48.884580" lon="1.922600">
						<ele>115</ele>
						<time>2026-04-14T09:50:55Z</time>
					</trkpt>
					<trkpt lat="48.884650" lon="1.922640">
						<ele>115</ele>
						<time>2026-04-14T09:50:57Z</time>
					</trkpt>
					<trkpt lat="48.885070" lon="1.922800">
						<ele>116</ele>
						<time>2026-04-14T09:51:05Z</time>
					</trkpt>
					<trkpt lat="48.885220" lon="1.922880">
						<ele>116</ele>
						<time>2026-04-14T09:51:07Z</time>
					</trkpt>
					<trkpt lat="48.885550" lon="1.922990">
						<ele>117</ele>
						<time>2026-04-14T09:51:13Z</time>
					</trkpt>
					<trkpt lat="48.886090" lon="1.923230">
						<ele>118</ele>
						<time>2026-04-14T09:51:23Z</time>
					</trkpt>
					<trkpt lat="48.886180" lon="1.923250">
						<ele>118</ele>
						<time>2026-04-14T09:51:25Z</time>
					</trkpt>
					<trkpt lat="48.886360" lon="1.923300">
						<ele>117</ele>
						<time>2026-04-14T09:51:28Z</time>
					</trkpt>
					<trkpt lat="48.886540" lon="1.923290">
						<ele>117</ele>
						<time>2026-04-14T09:51:31Z</time>
					</trkpt>
					<trkpt lat="48.887070" lon="1.923400">
						<ele>117</ele>
						<time>2026-04-14T09:51:41Z</time>
					</trkpt>
					<trkpt lat="48.888630" lon="1.923670">
						<ele>121</ele>
						<time>2026-04-14T09:52:09Z</time>
					</trkpt>
					<trkpt lat="48.889120" lon="1.923780">
						<ele>122</ele>
						<time>2026-04-14T09:52:18Z</time>
					</trkpt>
					<trkpt lat="48.889600" lon="1.923950">
						<ele>123</ele>
						<time>2026-04-14T09:52:26Z</time>
					</trkpt>
					<trkpt lat="48.890510" lon="1.924250">
						<ele>127</ele>
						<time>2026-04-14T09:52:43Z</time>
					</trkpt>
					<trkpt lat="48.890860" lon="1.924320">
						<ele>129</ele>
						<time>2026-04-14T09:52:49Z</time>
					</trkpt>
					<trkpt lat="48.891130" lon="1.924350">
						<ele>130</ele>
						<time>2026-04-14T09:52:54Z</time>
					</trkpt>
					<trkpt lat="48.892460" lon="1.924450">
						<ele>140</ele>
						<time>2026-04-14T09:53:18Z</time>
					</trkpt>
					<trkpt lat="48.893460" lon="1.924540">
						<ele>148</ele>
						<time>2026-04-14T09:53:36Z</time>
					</trkpt>
					<trkpt lat="48.893620" lon="1.924560">
						<ele>149</ele>
						<time>2026-04-14T09:53:39Z</time>
					</trkpt>
					<trkpt lat="48.893760" lon="1.924560">
						<ele>150</ele>
						<time>2026-04-14T09:53:41Z</time>
					</trkpt>
					<trkpt lat="48.894330" lon="1.924630">
						<ele>154</ele>
						<time>2026-04-14T09:53:51Z</time>
					</trkpt>
					<trkpt lat="48.894820" lon="1.924650">
						<ele>158</ele>
						<time>2026-04-14T09:54:00Z</time>
					</trkpt>
					<trkpt lat="48.895520" lon="1.924300">
						<ele>163</ele>
						<time>2026-04-14T09:54:13Z</time>
					</trkpt>
					<trkpt lat="48.896030" lon="1.924040">
						<ele>166</ele>
						<time>2026-04-14T09:54:23Z</time>
					</trkpt>
					<trkpt lat="48.896420" lon="1.923820">
						<ele>169</ele>
						<time>2026-04-14T09:54:30Z</time>
					</trkpt>
					<trkpt lat="48.896810" lon="1.923660">
						<ele>171</ele>
						<time>2026-04-14T09:54:37Z</time>
					</trkpt>
					<trkpt lat="48.897290" lon="1.923620">
						<ele>174</ele>
						<time>2026-04-14T09:54:46Z</time>
					</trkpt>
					<trkpt lat="48.897580" lon="1.923560">
						<ele>175</ele>
						<time>2026-04-14T09:54:51Z</time>
					</trkpt>
					<trkpt lat="48.897870" lon="1.923470">
						<ele>176</ele>
						<time>2026-04-14T09:54:56Z</time>
					</trkpt>
					<trkpt lat="48.898360" lon="1.923240">
						<ele>179</ele>
						<time>2026-04-14T09:55:05Z</time>
					</trkpt>
					<trkpt lat="48.898700" lon="1.922990">
						<ele>180</ele>
						<time>2026-04-14T09:55:12Z</time>
					</trkpt>
					<trkpt lat="48.899010" lon="1.922740">
						<ele>182</ele>
						<time>2026-04-14T09:55:18Z</time>
					</trkpt>
					<trkpt lat="48.899190" lon="1.922650">
						<ele>183</ele>
						<time>2026-04-14T09:55:22Z</time>
					</trkpt>
					<trkpt lat="48.899260" lon="1.922620">
						<ele>183</ele>
						<time>2026-04-14T09:55:23Z</time>
					</trkpt>
					<trkpt lat="48.899570" lon="1.922570">
						<ele>182</ele>
						<time>2026-04-14T09:55:28Z</time>
					</trkpt>
					<trkpt lat="48.899730" lon="1.922550">
						<ele>182</ele>
						<time>2026-04-14T09:55:31Z</time>
					</trkpt>
					<trkpt lat="48.900410" lon="1.922520">
						<ele>180</ele>
						<time>2026-04-14T09:55:43Z</time>
					</trkpt>
					<trkpt lat="48.900630" lon="1.922510">
						<ele>179</ele>
						<time>2026-04-14T09:55:47Z</time>
					</trkpt>
					<trkpt lat="48.904040" lon="1.922490">
						<ele>175</ele>
						<time>2026-04-14T09:56:48Z</time>
					</trkpt>
					<trkpt lat="48.905850" lon="1.922480">
						<ele>174</ele>
						<time>2026-04-14T09:57:20Z</time>
					</trkpt>
					<trkpt lat="48.906320" lon="1.922540">
						<ele>174</ele>
						<time>2026-04-14T09:57:29Z</time>
					</trkpt>
					<trkpt lat="48.907110" lon="1.922720">
						<ele>175</ele>
						<time>2026-04-14T09:57:43Z</time>
					</trkpt>
					<trkpt lat="48.907320" lon="1.922730">
						<ele>175</ele>
						<time>2026-04-14T09:57:47Z</time>
					</trkpt>
					<trkpt lat="48.907500" lon="1.922680">
						<ele>176</ele>
						<time>2026-04-14T09:57:50Z</time>
					</trkpt>
					<trkpt lat="48.907630" lon="1.922630">
						<ele>176</ele>
						<time>2026-04-14T09:57:52Z</time>
					</trkpt>
					<trkpt lat="48.908410" lon="1.922250">
						<ele>177</ele>
						<time>2026-04-14T09:58:07Z</time>
					</trkpt>
					<trkpt lat="48.908650" lon="1.922130">
						<ele>178</ele>
						<time>2026-04-14T09:58:11Z</time>
					</trkpt>
					<trkpt lat="48.908740" lon="1.922110">
						<ele>178</ele>
						<time>2026-04-14T09:58:13Z</time>
					</trkpt>
					<trkpt lat="48.908950" lon="1.922090">
						<ele>178</ele>
						<time>2026-04-14T09:58:17Z</time>
					</trkpt>
					<trkpt lat="48.909160" lon="1.922110">
						<ele>179</ele>
						<time>2026-04-14T09:58:20Z</time>
					</trkpt>
					<trkpt lat="48.909580" lon="1.922270">
						<ele>180</ele>
						<time>2026-04-14T09:58:28Z</time>
					</trkpt>
					<trkpt lat="48.909820" lon="1.922390">
						<ele>181</ele>
						<time>2026-04-14T09:58:33Z</time>
					</trkpt>
					<trkpt lat="48.910110" lon="1.922580">
						<ele>181</ele>
						<time>2026-04-14T09:58:38Z</time>
					</trkpt>
					<trkpt lat="48.910180" lon="1.922660">
						<ele>181</ele>
						<time>2026-04-14T09:58:40Z</time>
					</trkpt>
					<trkpt lat="48.910230" lon="1.922710">
						<ele>181</ele>
						<time>2026-04-14T09:58:41Z</time>
					</trkpt>
					<trkpt lat="48.910280" lon="1.922720">
						<ele>181</ele>
						<time>2026-04-14T09:58:42Z</time>
					</trkpt>
					<trkpt lat="48.910340" lon="1.922680">
						<ele>181</ele>
						<time>2026-04-14T09:58:43Z</time>
					</trkpt>
					<trkpt lat="48.910370" lon="1.922610">
						<ele>181</ele>
						<time>2026-04-14T09:58:44Z</time>
					</trkpt>
					<trkpt lat="48.910380" lon="1.922550">
						<ele>181</ele>
						<time>2026-04-14T09:58:45Z</time>
					</trkpt>
					<trkpt lat="48.910500" lon="1.922300">
						<ele>182</ele>
						<time>2026-04-14T09:58:48Z</time>
					</trkpt>
					<trkpt lat="48.910560" lon="1.922140">
						<ele>182</ele>
						<time>2026-04-14T09:58:50Z</time>
					</trkpt>
					<trkpt lat="48.910940" lon="1.920980">
						<ele>182</ele>
						<time>2026-04-14T09:59:06Z</time>
					</trkpt>
					<trkpt lat="48.911360" lon="1.919690">
						<ele>182</ele>
						<time>2026-04-14T09:59:22Z</time>
					</trkpt>
					<trkpt lat="48.911440" lon="1.919580">
						<ele>182</ele>
						<time>2026-04-14T09:59:24Z</time>
					</trkpt>
					<trkpt lat="48.911900" lon="1.920200">
						<ele>183</ele>
						<time>2026-04-14T09:59:35Z</time>
					</trkpt>
					<trkpt lat="48.912120" lon="1.920490">
						<ele>184</ele>
						<time>2026-04-14T09:59:40Z</time>
					</trkpt>
					<trkpt lat="48.912650" lon="1.921320">
						<ele>183</ele>
						<time>2026-04-14T09:59:54Z</time>
					</trkpt>
					<trkpt lat="48.913120" lon="1.921870">
						<ele>183</ele>
						<time>2026-04-14T10:00:04Z</time>
					</trkpt>
					<trkpt lat="48.913150" lon="1.921970">
						<ele>182</ele>
						<time>2026-04-14T10:00:06Z</time>
					</trkpt>
					<trkpt lat="48.913210" lon="1.922470">
						<ele>181</ele>
						<time>2026-04-14T10:00:12Z</time>
					</trkpt>
					<trkpt lat="48.913250" lon="1.922640">
						<ele>181</ele>
						<time>2026-04-14T10:00:14Z</time>
					</trkpt>
					<trkpt lat="48.913270" lon="1.922750">
						<ele>181</ele>
						<time>2026-04-14T10:00:15Z</time>
					</trkpt>
					<trkpt lat="48.913280" lon="1.923050">
						<ele>182</ele>
						<time>2026-04-14T10:00:19Z</time>
					</trkpt>
					<trkpt lat="48.913450" lon="1.924320">
						<ele>181</ele>
						<time>2026-04-14T10:00:34Z</time>
					</trkpt>
					<trkpt lat="48.913380" lon="1.924400">
						<ele>181</ele>
						<time>2026-04-14T10:00:35Z</time>
					</trkpt>
					<trkpt lat="48.912940" lon="1.924850">
						<ele>180</ele>
						<time>2026-04-14T10:00:45Z</time>
					</trkpt>
					<trkpt lat="48.912340" lon="1.925510">
						<ele>179</ele>
						<time>2026-04-14T10:00:58Z</time>
					</trkpt>
					<trkpt lat="48.911860" lon="1.926060">
						<ele>179</ele>
						<time>2026-04-14T10:01:09Z</time>
					</trkpt>
					<trkpt lat="48.911750" lon="1.926180">
						<ele>179</ele>
						<time>2026-04-14T10:01:11Z</time>
					</trkpt>
					<trkpt lat="48.911230" lon="1.926760">
						<ele>179</ele>
						<time>2026-04-14T10:01:23Z</time>
					</trkpt>
					<trkpt lat="48.910790" lon="1.927250">
						<ele>178</ele>
						<time>2026-04-14T10:01:32Z</time>
					</trkpt>
					<trkpt lat="48.910410" lon="1.927670">
						<ele>177</ele>
						<time>2026-04-14T10:01:41Z</time>
					</trkpt>
					<trkpt lat="48.909660" lon="1.928510">
						<ele>177</ele>
						<time>2026-04-14T10:01:57Z</time>
					</trkpt>
					<trkpt lat="48.909420" lon="1.928780">
						<ele>177</ele>
						<time>2026-04-14T10:02:03Z</time>
					</trkpt>
					<trkpt lat="48.909110" lon="1.929130">
						<ele>177</ele>
						<time>2026-04-14T10:02:09Z</time>
					</trkpt>
					<trkpt lat="48.909090" lon="1.929150">
						<ele>177</ele>
						<time>2026-04-14T10:02:10Z</time>
					</trkpt>
					<trkpt lat="48.908830" lon="1.929440">
						<ele>178</ele>
						<time>2026-04-14T10:02:16Z</time>
					</trkpt>
					<trkpt lat="48.908800" lon="1.929480">
						<ele>178</ele>
						<time>2026-04-14T10:02:16Z</time>
					</trkpt>
					<trkpt lat="48.904570" lon="1.934180">
						<ele>173</ele>
						<time>2026-04-14T10:03:49Z</time>
					</trkpt>
					<trkpt lat="48.904400" lon="1.934410">
						<ele>173</ele>
						<time>2026-04-14T10:03:53Z</time>
					</trkpt>
					<trkpt lat="48.904310" lon="1.934570">
						<ele>173</ele>
						<time>2026-04-14T10:03:56Z</time>
					</trkpt>
					<trkpt lat="48.904240" lon="1.934740">
						<ele>172</ele>
						<time>2026-04-14T10:03:58Z</time>
					</trkpt>
					<trkpt lat="48.904170" lon="1.934950">
						<ele>172</ele>
						<time>2026-04-14T10:04:01Z</time>
					</trkpt>
					<trkpt lat="48.903760" lon="1.936310">
						<ele>172</ele>
						<time>2026-04-14T10:04:19Z</time>
					</trkpt>
					<trkpt lat="48.903380" lon="1.937710">
						<ele>173</ele>
						<time>2026-04-14T10:04:36Z</time>
					</trkpt>
					<trkpt lat="48.902880" lon="1.939430">
						<ele>173</ele>
						<time>2026-04-14T10:04:58Z</time>
					</trkpt>
					<trkpt lat="48.902260" lon="1.941580">
						<ele>176</ele>
						<time>2026-04-14T10:05:26Z</time>
					</trkpt>
					<trkpt lat="48.902080" lon="1.942000">
						<ele>177</ele>
						<time>2026-04-14T10:05:32Z</time>
					</trkpt>
					<trkpt lat="48.901110" lon="1.943730">
						<ele>177</ele>
						<time>2026-04-14T10:05:58Z</time>
					</trkpt>
					<trkpt lat="48.900510" lon="1.944830">
						<ele>178</ele>
						<time>2026-04-14T10:06:15Z</time>
					</trkpt>
					<trkpt lat="48.899980" lon="1.945780">
						<ele>177</ele>
						<time>2026-04-14T10:06:29Z</time>
					</trkpt>
					<trkpt lat="48.899250" lon="1.947110">
						<ele>177</ele>
						<time>2026-04-14T10:06:50Z</time>
					</trkpt>
					<trkpt lat="48.898390" lon="1.948690">
						<ele>177</ele>
						<time>2026-04-14T10:07:14Z</time>
					</trkpt>
					<trkpt lat="48.897730" lon="1.949900">
						<ele>178</ele>
						<time>2026-04-14T10:07:32Z</time>
					</trkpt>
					<trkpt lat="48.897080" lon="1.951100">
						<ele>179</ele>
						<time>2026-04-14T10:07:50Z</time>
					</trkpt>
					<trkpt lat="48.896710" lon="1.951780">
						<ele>179</ele>
						<time>2026-04-14T10:08:01Z</time>
					</trkpt>
					<trkpt lat="48.896280" lon="1.952550">
						<ele>179</ele>
						<time>2026-04-14T10:08:12Z</time>
					</trkpt>
					<trkpt lat="48.895910" lon="1.953230">
						<ele>178</ele>
						<time>2026-04-14T10:08:23Z</time>
					</trkpt>
					<trkpt lat="48.895550" lon="1.953890">
						<ele>178</ele>
						<time>2026-04-14T10:08:33Z</time>
					</trkpt>
					<trkpt lat="48.895370" lon="1.954320">
						<ele>178</ele>
						<time>2026-04-14T10:08:39Z</time>
					</trkpt>
					<trkpt lat="48.894470" lon="1.956970">
						<ele>178</ele>
						<time>2026-04-14T10:09:14Z</time>
					</trkpt>
					<trkpt lat="48.893970" lon="1.958500">
						<ele>177</ele>
						<time>2026-04-14T10:09:34Z</time>
					</trkpt>
					<trkpt lat="48.892940" lon="1.961600">
						<ele>175</ele>
						<time>2026-04-14T10:10:14Z</time>
					</trkpt>
					<trkpt lat="48.892910" lon="1.961710">
						<ele>175</ele>
						<time>2026-04-14T10:10:16Z</time>
					</trkpt>
					<trkpt lat="48.892880" lon="1.961880">
						<ele>175</ele>
						<time>2026-04-14T10:10:18Z</time>
					</trkpt>
					<trkpt lat="48.892880" lon="1.961920">
						<ele>175</ele>
						<time>2026-04-14T10:10:18Z</time>
					</trkpt>
					<trkpt lat="48.892830" lon="1.961950">
						<ele>175</ele>
						<time>2026-04-14T10:10:19Z</time>
					</trkpt>
					<trkpt lat="48.892810" lon="1.961980">
						<ele>175</ele>
						<time>2026-04-14T10:10:20Z</time>
					</trkpt>
					<trkpt lat="48.891120" lon="1.967080">
						<ele>174</ele>
						<time>2026-04-14T10:11:26Z</time>
					</trkpt>
					<trkpt lat="48.890920" lon="1.967680">
						<ele>174</ele>
						<time>2026-04-14T10:11:34Z</time>
					</trkpt>
					<trkpt lat="48.890260" lon="1.969650">
						<ele>173</ele>
						<time>2026-04-14T10:12:00Z</time>
					</trkpt>
					<trkpt lat="48.889000" lon="1.973430">
						<ele>171</ele>
						<time>2026-04-14T10:12:50Z</time>
					</trkpt>
					<trkpt lat="48.885790" lon="1.983020">
						<ele>171</ele>
						<time>2026-04-14T10:14:56Z</time>
					</trkpt>
					<trkpt lat="48.885750" lon="1.983120">
						<ele>171</ele>
						<time>2026-04-14T10:14:57Z</time>
					</trkpt>
					<trkpt lat="48.885690" lon="1.983210">
						<ele>171</ele>
						<time>2026-04-14T10:14:59Z</time>
					</trkpt>
					<trkpt lat="48.885570" lon="1.983330">
						<ele>172</ele>
						<time>2026-04-14T10:15:01Z</time>
					</trkpt>
					<trkpt lat="48.885450" lon="1.983390">
						<ele>172</ele>
						<time>2026-04-14T10:15:03Z</time>
					</trkpt>
					<trkpt lat="48.885370" lon="1.983390">
						<ele>172</ele>
						<time>2026-04-14T10:15:05Z</time>
					</trkpt>
					<trkpt lat="48.885290" lon="1.983380">
						<ele>172</ele>
						<time>2026-04-14T10:15:06Z</time>
					</trkpt>
					<trkpt lat="48.885220" lon="1.983340">
						<ele>172</ele>
						<time>2026-04-14T10:15:08Z</time>
					</trkpt>
					<trkpt lat="48.885150" lon="1.983290">
						<ele>173</ele>
						<time>2026-04-14T10:15:09Z</time>
					</trkpt>
					<trkpt lat="48.885090" lon="1.983220">
						<ele>173</ele>
						<time>2026-04-14T10:15:10Z</time>
					</trkpt>
					<trkpt lat="48.885030" lon="1.983120">
						<ele>173</ele>
						<time>2026-04-14T10:15:12Z</time>
					</trkpt>
					<trkpt lat="48.884900" lon="1.982800">
						<ele>173</ele>
						<time>2026-04-14T10:15:16Z</time>
					</trkpt>
					<trkpt lat="48.884800" lon="1.982480">
						<ele>173</ele>
						<time>2026-04-14T10:15:20Z</time>
					</trkpt>
					<trkpt lat="48.884770" lon="1.982380">
						<ele>173</ele>
						<time>2026-04-14T10:15:22Z</time>
					</trkpt>
					<trkpt lat="48.884710" lon="1.982270">
						<ele>173</ele>
						<time>2026-04-14T10:15:23Z</time>
					</trkpt>
					<trkpt lat="48.884670" lon="1.982230">
						<ele>173</ele>
						<time>2026-04-14T10:15:24Z</time>
					</trkpt>
					<trkpt lat="48.884590" lon="1.982180">
						<ele>174</ele>
						<time>2026-04-14T10:15:26Z</time>
					</trkpt>
					<trkpt lat="48.884510" lon="1.982190">
						<ele>174</ele>
						<time>2026-04-14T10:15:27Z</time>
					</trkpt>
					<trkpt lat="48.884440" lon="1.982220">
						<ele>174</ele>
						<time>2026-04-14T10:15:28Z</time>
					</trkpt>
					<trkpt lat="48.884350" lon="1.982290">
						<ele>174</ele>
						<time>2026-04-14T10:15:30Z</time>
					</trkpt>
					<trkpt lat="48.884250" lon="1.982320">
						<ele>175</ele>
						<time>2026-04-14T10:15:32Z</time>
					</trkpt>
					<trkpt lat="48.884210" lon="1.982300">
						<ele>175</ele>
						<time>2026-04-14T10:15:33Z</time>
					</trkpt>
					<trkpt lat="48.884170" lon="1.982290">
						<ele>175</ele>
						<time>2026-04-14T10:15:34Z</time>
					</trkpt>
					<trkpt lat="48.884130" lon="1.982310">
						<ele>175</ele>
						<time>2026-04-14T10:15:34Z</time>
					</trkpt>
					<trkpt lat="48.884100" lon="1.982330">
						<ele>175</ele>
						<time>2026-04-14T10:15:35Z</time>
					</trkpt>
					<trkpt lat="48.884070" lon="1.982370">
						<ele>176</ele>
						<time>2026-04-14T10:15:36Z</time>
					</trkpt>
					<trkpt lat="48.884040" lon="1.982430">
						<ele>176</ele>
						<time>2026-04-14T10:15:36Z</time>
					</trkpt>
					<trkpt lat="48.884030" lon="1.982530">
						<ele>176</ele>
						<time>2026-04-14T10:15:38Z</time>
					</trkpt>
					<trkpt lat="48.884000" lon="1.982620">
						<ele>176</ele>
						<time>2026-04-14T10:15:39Z</time>
					</trkpt>
					<trkpt lat="48.883940" lon="1.982680">
						<ele>176</ele>
						<time>2026-04-14T10:15:40Z</time>
					</trkpt>
					<trkpt lat="48.883880" lon="1.982680">
						<ele>176</ele>
						<time>2026-04-14T10:15:41Z</time>
					</trkpt>
					<trkpt lat="48.883790" lon="1.982640">
						<ele>177</ele>
						<time>2026-04-14T10:15:43Z</time>
					</trkpt>
					<trkpt lat="48.883730" lon="1.982590">
						<ele>177</ele>
						<time>2026-04-14T10:15:44Z</time>
					</trkpt>
					<trkpt lat="48.883630" lon="1.982530">
						<ele>178</ele>
						<time>2026-04-14T10:15:46Z</time>
					</trkpt>
					<trkpt lat="48.882790" lon="1.982000">
						<ele>179</ele>
						<time>2026-04-14T10:16:02Z</time>
					</trkpt>
					<trkpt lat="48.882610" lon="1.981900">
						<ele>178</ele>
						<time>2026-04-14T10:16:06Z</time>
					</trkpt>
					<trkpt lat="48.882110" lon="1.981620">
						<ele>179</ele>
						<time>2026-04-14T10:16:15Z</time>
					</trkpt>
					<trkpt lat="48.882030" lon="1.981570">
						<ele>178</ele>
						<time>2026-04-14T10:16:17Z</time>
					</trkpt>
					<trkpt lat="48.881200" lon="1.981090">
						<ele>178</ele>
						<time>2026-04-14T10:16:32Z</time>
					</trkpt>
					<trkpt lat="48.880640" lon="1.980820">
						<ele>176</ele>
						<time>2026-04-14T10:16:43Z</time>
					</trkpt>
					<trkpt lat="48.880360" lon="1.980710">
						<ele>177</ele>
						<time>2026-04-14T10:16:48Z</time>
					</trkpt>
					<trkpt lat="48.879330" lon="1.980280">
						<ele>180</ele>
						<time>2026-04-14T10:17:07Z</time>
					</trkpt>
					<trkpt lat="48.879270" lon="1.980260">
						<ele>180</ele>
						<time>2026-04-14T10:17:08Z</time>
					</trkpt>
					<trkpt lat="48.877990" lon="1.979750">
						<ele>179</ele>
						<time>2026-04-14T10:17:32Z</time>
					</trkpt>
					<trkpt lat="48.877740" lon="1.979610">
						<ele>178</ele>
						<time>2026-04-14T10:17:36Z</time>
					</trkpt>
					<trkpt lat="48.877620" lon="1.979520">
						<ele>178</ele>
						<time>2026-04-14T10:17:39Z</time>
					</trkpt>
					<trkpt lat="48.877450" lon="1.979370">
						<ele>177</ele>
						<time>2026-04-14T10:17:42Z</time>
					</trkpt>
					<trkpt lat="48.877380" lon="1.979280">
						<ele>177</ele>
						<time>2026-04-14T10:17:44Z</time>
					</trkpt>
					<trkpt lat="48.877220" lon="1.979060">
						<ele>176</ele>
						<time>2026-04-14T10:17:48Z</time>
					</trkpt>
					<trkpt lat="48.877130" lon="1.978910">
						<ele>177</ele>
						<time>2026-04-14T10:17:50Z</time>
					</trkpt>
					<trkpt lat="48.876620" lon="1.978150">
						<ele>178</ele>
						<time>2026-04-14T10:18:03Z</time>
					</trkpt>
					<trkpt lat="48.876440" lon="1.977920">
						<ele>179</ele>
						<time>2026-04-14T10:18:07Z</time>
					</trkpt>
					<trkpt lat="48.876420" lon="1.977890">
						<ele>179</ele>
						<time>2026-04-14T10:18:07Z</time>
					</trkpt>
					<trkpt lat="48.876300" lon="1.977850">
						<ele>179</ele>
						<time>2026-04-14T10:18:10Z</time>
					</trkpt>
					<trkpt lat="48.876260" lon="1.977860">
						<ele>179</ele>
						<time>2026-04-14T10:18:10Z</time>
					</trkpt>
					<trkpt lat="48.875950" lon="1.977920">
						<ele>177</ele>
						<time>2026-04-14T10:18:16Z</time>
					</trkpt>
					<trkpt lat="48.875550" lon="1.977960">
						<ele>175</ele>
						<time>2026-04-14T10:18:23Z</time>
					</trkpt>
					<trkpt lat="48.875400" lon="1.978010">
						<ele>174</ele>
						<time>2026-04-14T10:18:26Z</time>
					</trkpt>
					<trkpt lat="48.875290" lon="1.978070">
						<ele>173</ele>
						<time>2026-04-14T10:18:28Z</time>
					</trkpt>
					<trkpt lat="48.875010" lon="1.978320">
						<ele>170</ele>
						<time>2026-04-14T10:18:34Z</time>
					</trkpt>
					<trkpt lat="48.874930" lon="1.978360">
						<ele>168</ele>
						<time>2026-04-14T10:18:35Z</time>
					</trkpt>
					<trkpt lat="48.874900" lon="1.978370">
						<ele>168</ele>
						<time>2026-04-14T10:18:36Z</time>
					</trkpt>
					<trkpt lat="48.874840" lon="1.978350">
						<ele>167</ele>
						<time>2026-04-14T10:18:37Z</time>
					</trkpt>
					<trkpt lat="48.874790" lon="1.978320">
						<ele>166</ele>
						<time>2026-04-14T10:18:38Z</time>
					</trkpt>
					<trkpt lat="48.874750" lon="1.978270">
						<ele>165</ele>
						<time>2026-04-14T10:18:39Z</time>
					</trkpt>
					<trkpt lat="48.874730" lon="1.978210">
						<ele>165</ele>
						<time>2026-04-14T10:18:39Z</time>
					</trkpt>
					<trkpt lat="48.874720" lon="1.978130">
						<ele>165</ele>
						<time>2026-04-14T10:18:40Z</time>
					</trkpt>
					<trkpt lat="48.874720" lon="1.977640">
						<ele>168</ele>
						<time>2026-04-14T10:18:46Z</time>
					</trkpt>
					<trkpt lat="48.874680" lon="1.977420">
						<ele>168</ele>
						<time>2026-04-14T10:18:49Z</time>
					</trkpt>
					<trkpt lat="48.874620" lon="1.977220">
						<ele>167</ele>
						<time>2026-04-14T10:18:51Z</time>
					</trkpt>
					<trkpt lat="48.874350" lon="1.976630">
						<ele>163</ele>
						<time>2026-04-14T10:19:00Z</time>
					</trkpt>
					<trkpt lat="48.874300" lon="1.976480">
						<ele>162</ele>
						<time>2026-04-14T10:19:02Z</time>
					</trkpt>
					<trkpt lat="48.874260" lon="1.976330">
						<ele>161</ele>
						<time>2026-04-14T10:19:04Z</time>
					</trkpt>
					<trkpt lat="48.874240" lon="1.976200">
						<ele>160</ele>
						<time>2026-04-14T10:19:05Z</time>
					</trkpt>
					<trkpt lat="48.874240" lon="1.976040">
						<ele>160</ele>
						<time>2026-04-14T10:19:07Z</time>
					</trkpt>
					<trkpt lat="48.874260" lon="1.975870">
						<ele>160</ele>
						<time>2026-04-14T10:19:09Z</time>
					</trkpt>
					<trkpt lat="48.874300" lon="1.975690">
						<ele>160</ele>
						<time>2026-04-14T10:19:11Z</time>
					</trkpt>
					<trkpt lat="48.874410" lon="1.975380">
						<ele>160</ele>
						<time>2026-04-14T10:19:15Z</time>
					</trkpt>
					<trkpt lat="48.874440" lon="1.975300">
						<ele>161</ele>
						<time>2026-04-14T10:19:17Z</time>
					</trkpt>
					<trkpt lat="48.874510" lon="1.975110">
						<ele>161</ele>
						<time>2026-04-14T10:19:19Z</time>
					</trkpt>
					<trkpt lat="48.874650" lon="1.974740">
						<ele>161</ele>
						<time>2026-04-14T10:19:24Z</time>
					</trkpt>
					<trkpt lat="48.874670" lon="1.974660">
						<ele>161</ele>
						<time>2026-04-14T10:19:25Z</time>
					</trkpt>
					<trkpt lat="48.874670" lon="1.974590">
						<ele>161</ele>
						<time>2026-04-14T10:19:26Z</time>
					</trkpt>
					<trkpt lat="48.874670" lon="1.974500">
						<ele>160</ele>
						<time>2026-04-14T10:19:27Z</time>
					</trkpt>
					<trkpt lat="48.874650" lon="1.974420">
						<ele>159</ele>
						<time>2026-04-14T10:19:28Z</time>
					</trkpt>
					<trkpt lat="48.874620" lon="1.974330">
						<ele>158</ele>
						<time>2026-04-14T10:19:29Z</time>
					</trkpt>
					<trkpt lat="48.874570" lon="1.974260">
						<ele>157</ele>
						<time>2026-04-14T10:19:30Z</time>
					</trkpt>
					<trkpt lat="48.874520" lon="1.974200">
						<ele>156</ele>
						<time>2026-04-14T10:19:32Z</time>
					</trkpt>
					<trkpt lat="48.874490" lon="1.974170">
						<ele>156</ele>
						<time>2026-04-14T10:19:32Z</time>
					</trkpt>
					<trkpt lat="48.874370" lon="1.974010">
						<ele>153</ele>
						<time>2026-04-14T10:19:35Z</time>
					</trkpt>
					<trkpt lat="48.874260" lon="1.973900">
						<ele>152</ele>
						<time>2026-04-14T10:19:37Z</time>
					</trkpt>
					<trkpt lat="48.874110" lon="1.973740">
						<ele>150</ele>
						<time>2026-04-14T10:19:41Z</time>
					</trkpt>
					<trkpt lat="48.874020" lon="1.973670">
						<ele>149</ele>
						<time>2026-04-14T10:19:42Z</time>
					</trkpt>
					<trkpt lat="48.873370" lon="1.973060">
						<ele>145</ele>
						<time>2026-04-14T10:19:56Z</time>
					</trkpt>
					<trkpt lat="48.873120" lon="1.972830">
						<ele>144</ele>
						<time>2026-04-14T10:20:01Z</time>
					</trkpt>
					<trkpt lat="48.873040" lon="1.972760">
						<ele>144</ele>
						<time>2026-04-14T10:20:03Z</time>
					</trkpt>
					<trkpt lat="48.872960" lon="1.972690">
						<ele>144</ele>
						<time>2026-04-14T10:20:04Z</time>
					</trkpt>
					<trkpt lat="48.872850" lon="1.972620">
						<ele>143</ele>
						<time>2026-04-14T10:20:07Z</time>
					</trkpt>
					<trkpt lat="48.872700" lon="1.972580">
						<ele>143</ele>
						<time>2026-04-14T10:20:09Z</time>
					</trkpt>
					<trkpt lat="48.872530" lon="1.972530">
						<ele>142</ele>
						<time>2026-04-14T10:20:12Z</time>
					</trkpt>
					<trkpt lat="48.872380" lon="1.972490">
						<ele>142</ele>
						<time>2026-04-14T10:20:15Z</time>
					</trkpt>
					<trkpt lat="48.872240" lon="1.972460">
						<ele>141</ele>
						<time>2026-04-14T10:20:18Z</time>
					</trkpt>
					<trkpt lat="48.871820" lon="1.972300">
						<ele>140</ele>
						<time>2026-04-14T10:20:25Z</time>
					</trkpt>
					<trkpt lat="48.871200" lon="1.972070">
						<ele>137</ele>
						<time>2026-04-14T10:20:37Z</time>
					</trkpt>
					<trkpt lat="48.871050" lon="1.971990">
						<ele>137</ele>
						<time>2026-04-14T10:20:39Z</time>
					</trkpt>
					<trkpt lat="48.870720" lon="1.971880">
						<ele>136</ele>
						<time>2026-04-14T10:20:45Z</time>
					</trkpt>
					<trkpt lat="48.870550" lon="1.971850">
						<ele>135</ele>
						<time>2026-04-14T10:20:49Z</time>
					</trkpt>
					<trkpt lat="48.870050" lon="1.971750">
						<ele>134</ele>
						<time>2026-04-14T10:20:58Z</time>
					</trkpt>
					<trkpt lat="48.869730" lon="1.971690">
						<ele>133</ele>
						<time>2026-04-14T10:21:03Z</time>
					</trkpt>
					<trkpt lat="48.869310" lon="1.971610">
						<ele>132</ele>
						<time>2026-04-14T10:21:11Z</time>
					</trkpt>
					<trkpt lat="48.869230" lon="1.971590">
						<ele>132</ele>
						<time>2026-04-14T10:21:12Z</time>
					</trkpt>
					<trkpt lat="48.869010" lon="1.971530">
						<ele>132</ele>
						<time>2026-04-14T10:21:16Z</time>
					</trkpt>
					<trkpt lat="48.868500" lon="1.971360">
						<ele>132</ele>
						<time>2026-04-14T10:21:25Z</time>
					</trkpt>
					<trkpt lat="48.867970" lon="1.971170">
						<ele>131</ele>
						<time>2026-04-14T10:21:35Z</time>
					</trkpt>
					<trkpt lat="48.867360" lon="1.970950">
						<ele>130</ele>
						<time>2026-04-14T10:21:46Z</time>
					</trkpt>
					<trkpt lat="48.867280" lon="1.970920">
						<ele>129</ele>
						<time>2026-04-14T10:21:48Z</time>
					</trkpt>
					<trkpt lat="48.866990" lon="1.970820">
						<ele>128</ele>
						<time>2026-04-14T10:21:53Z</time>
					</trkpt>
					<trkpt lat="48.866830" lon="1.970770">
						<ele>127</ele>
						<time>2026-04-14T10:21:56Z</time>
					</trkpt>
					<trkpt lat="48.866590" lon="1.972380">
						<ele>125</ele>
						<time>2026-04-14T10:22:15Z</time>
					</trkpt>
					<trkpt lat="48.866370" lon="1.972320">
						<ele>124</ele>
						<time>2026-04-14T10:22:19Z</time>
					</trkpt>
					<trkpt lat="48.866260" lon="1.973030">
						<ele>123</ele>
						<time>2026-04-14T10:22:28Z</time>
					</trkpt>
					<trkpt lat="48.866110" lon="1.974030">
						<ele>120</ele>
						<time>2026-04-14T10:22:40Z</time>
					</trkpt>
					<trkpt lat="48.865960" lon="1.975200">
						<ele>118</ele>
						<time>2026-04-14T10:22:54Z</time>
					</trkpt>
					<trkpt lat="48.865830" lon="1.976010">
						<ele>117</ele>
						<time>2026-04-14T10:23:04Z</time>
					</trkpt>
					<trkpt lat="48.865820" lon="1.976110">
						<ele>116</ele>
						<time>2026-04-14T10:23:05Z</time>
					</trkpt>
					<trkpt lat="48.865520" lon="1.978070">
						<ele>113</ele>
						<time>2026-04-14T10:23:28Z</time>
					</trkpt>
					<trkpt lat="48.865500" lon="1.978230">
						<ele>113</ele>
						<time>2026-04-14T10:23:30Z</time>
					</trkpt>
					<trkpt lat="48.865470" lon="1.978380">
						<ele>114</ele>
						<time>2026-04-14T10:23:32Z</time>
					</trkpt>
					<trkpt lat="48.865390" lon="1.978890">
						<ele>114</ele>
						<time>2026-04-14T10:23:38Z</time>
					</trkpt>
					<trkpt lat="48.865340" lon="1.979310">
						<ele>115</ele>
						<time>2026-04-14T10:23:43Z</time>
					</trkpt>
					<trkpt lat="48.865270" lon="1.979840">
						<ele>116</ele>
						<time>2026-04-14T10:23:49Z</time>
					</trkpt>
					<trkpt lat="48.865120" lon="1.980820">
						<ele>118</ele>
						<time>2026-04-14T10:24:01Z</time>
					</trkpt>
					<trkpt lat="48.865000" lon="1.981760">
						<ele>119</ele>
						<time>2026-04-14T10:24:12Z</time>
					</trkpt>
					<trkpt lat="48.864970" lon="1.981890">
						<ele>119</ele>
						<time>2026-04-14T10:24:14Z</time>
					</trkpt>
					<trkpt lat="48.864940" lon="1.981970">
						<ele>120</ele>
						<time>2026-04-14T10:24:15Z</time>
					</trkpt>
					<trkpt lat="48.864820" lon="1.982570">
						<ele>121</ele>
						<time>2026-04-14T10:24:23Z</time>
					</trkpt>
					<trkpt lat="48.864670" lon="1.983240">
						<ele>122</ele>
						<time>2026-04-14T10:24:31Z</time>
					</trkpt>
					<trkpt lat="48.864310" lon="1.984690">
						<ele>120</ele>
						<time>2026-04-14T10:24:49Z</time>
					</trkpt>
					<trkpt lat="48.863870" lon="1.986640">
						<ele>118</ele>
						<time>2026-04-14T10:25:13Z</time>
					</trkpt>
					<trkpt lat="48.863320" lon="1.989100">
						<ele>118</ele>
						<time>2026-04-14T10:25:43Z</time>
					</trkpt>
					<trkpt lat="48.863030" lon="1.990330">
						<ele>117</ele>
						<time>2026-04-14T10:25:59Z</time>
					</trkpt>
					<trkpt lat="48.862620" lon="1.991970">
						<ele>114</ele>
						<time>2026-04-14T10:26:19Z</time>
					</trkpt>
					<trkpt lat="48.862320" lon="1.993420">
						<ele>113</ele>
						<time>2026-04-14T10:26:37Z</time>
					</trkpt>
					<trkpt lat="48.862020" lon="1.994770">
						<ele>116</ele>
						<time>2026-04-14T10:26:54Z</time>
					</trkpt>
					<trkpt lat="48.861680" lon="1.996200">
						<ele>119</ele>
						<time>2026-04-14T10:27:12Z</time>
					</trkpt>
					<trkpt lat="48.861560" lon="1.996740">
						<ele>120</ele>
						<time>2026-04-14T10:27:18Z</time>
					</trkpt>
					<trkpt lat="48.861510" lon="1.997050">
						<ele>122</ele>
						<time>2026-04-14T10:27:22Z</time>
					</trkpt>
					<trkpt lat="48.860340" lon="2.002080">
						<ele>127</ele>
						<time>2026-04-14T10:28:24Z</time>
					</trkpt>
					<trkpt lat="48.860120" lon="2.003000">
						<ele>124</ele>
						<time>2026-04-14T10:28:36Z</time>
					</trkpt>
					<trkpt lat="48.859840" lon="2.004050">
						<ele>119</ele>
						<time>2026-04-14T10:28:49Z</time>
					</trkpt>
					<trkpt lat="48.859800" lon="2.004260">
						<ele>119</ele>
						<time>2026-04-14T10:28:52Z</time>
					</trkpt>
					<trkpt lat="48.859410" lon="2.005810">
						<ele>112</ele>
						<time>2026-04-14T10:29:11Z</time>
					</trkpt>
					<trkpt lat="48.859290" lon="2.006310">
						<ele>113</ele>
						<time>2026-04-14T10:29:17Z</time>
					</trkpt>
					<trkpt lat="48.859240" lon="2.006600">
						<ele>114</ele>
						<time>2026-04-14T10:29:21Z</time>
					</trkpt>
					<trkpt lat="48.859220" lon="2.006650">
						<ele>114</ele>
						<time>2026-04-14T10:29:22Z</time>
					</trkpt>
					<trkpt lat="48.859200" lon="2.006660">
						<ele>114</ele>
						<time>2026-04-14T10:29:22Z</time>
					</trkpt>
					<trkpt lat="48.859190" lon="2.006540">
						<ele>114</ele>
						<time>2026-04-14T10:29:23Z</time>
					</trkpt>
					<trkpt lat="48.859160" lon="2.006400">
						<ele>113</ele>
						<time>2026-04-14T10:29:25Z</time>
					</trkpt>
					<trkpt lat="48.859150" lon="2.006360">
						<ele>113</ele>
						<time>2026-04-14T10:29:26Z</time>
					</trkpt>
					<trkpt lat="48.859100" lon="2.006320">
						<ele>113</ele>
						<time>2026-04-14T10:29:27Z</time>
					</trkpt>
					<trkpt lat="48.859030" lon="2.006250">
						<ele>112</ele>
						<time>2026-04-14T10:29:28Z</time>
					</trkpt>
					<trkpt lat="48.858980" lon="2.006220">
						<ele>112</ele>
						<time>2026-04-14T10:29:29Z</time>
					</trkpt>
					<trkpt lat="48.858810" lon="2.006210">
						<ele>112</ele>
						<time>2026-04-14T10:29:32Z</time>
					</trkpt>
					<trkpt lat="48.858780" lon="2.006220">
						<ele>112</ele>
						<time>2026-04-14T10:29:33Z</time>
					</trkpt>
					<trkpt lat="48.858740" lon="2.006260">
						<ele>112</ele>
						<time>2026-04-14T10:29:33Z</time>
					</trkpt>
					<trkpt lat="48.858630" lon="2.006080">
						<ele>111</ele>
						<time>2026-04-14T10:29:36Z</time>
					</trkpt>
					<trkpt lat="48.858150" lon="2.005140">
						<ele>107</ele>
						<time>2026-04-14T10:29:50Z</time>
					</trkpt>
					<trkpt lat="48.857750" lon="2.004390">
						<ele>107</ele>
						<time>2026-04-14T10:30:02Z</time>
					</trkpt>
					<trkpt lat="48.857650" lon="2.004200">
						<ele>107</ele>
						<time>2026-04-14T10:30:04Z</time>
					</trkpt>
					<trkpt lat="48.857620" lon="2.004150">
						<ele>107</ele>
						<time>2026-04-14T10:30:05Z</time>
					</trkpt>
					<trkpt lat="48.857520" lon="2.003950">
						<ele>107</ele>
						<time>2026-04-14T10:30:08Z</time>
					</trkpt>
					<trkpt lat="48.856990" lon="2.002890">
						<ele>108</ele>
						<time>2026-04-14T10:30:24Z</time>
					</trkpt>
					<trkpt lat="48.856710" lon="2.002190">
						<ele>110</ele>
						<time>2026-04-14T10:30:33Z</time>
					</trkpt>
					<trkpt lat="48.856580" lon="2.001830">
						<ele>111</ele>
						<time>2026-04-14T10:30:38Z</time>
					</trkpt>
					<trkpt lat="48.856080" lon="2.000470">
						<ele>113</ele>
						<time>2026-04-14T10:30:56Z</time>
					</trkpt>
					<trkpt lat="48.855180" lon="1.998750">
						<ele>112</ele>
						<time>2026-04-14T10:31:22Z</time>
					</trkpt>
					<trkpt lat="48.854770" lon="1.998000">
						<ele>111</ele>
						<time>2026-04-14T10:31:34Z</time>
					</trkpt>
					<trkpt lat="48.854600" lon="1.997600">
						<ele>112</ele>
						<time>2026-04-14T10:31:39Z</time>
					</trkpt>
					<trkpt lat="48.854010" lon="1.996150">
						<ele>114</ele>
						<time>2026-04-14T10:31:59Z</time>
					</trkpt>
					<trkpt lat="48.853730" lon="1.995430">
						<ele>111</ele>
						<time>2026-04-14T10:32:09Z</time>
					</trkpt>
					<trkpt lat="48.853630" lon="1.994980">
						<ele>112</ele>
						<time>2026-04-14T10:32:14Z</time>
					</trkpt>
					<trkpt lat="48.853400" lon="1.993580">
						<ele>114</ele>
						<time>2026-04-14T10:32:31Z</time>
					</trkpt>
					<trkpt lat="48.853300" lon="1.993120">
						<ele>114</ele>
						<time>2026-04-14T10:32:37Z</time>
					</trkpt>
					<trkpt lat="48.853260" lon="1.992890">
						<ele>113</ele>
						<time>2026-04-14T10:32:40Z</time>
					</trkpt>
					<trkpt lat="48.853170" lon="1.992600">
						<ele>112</ele>
						<time>2026-04-14T10:32:43Z</time>
					</trkpt>
					<trkpt lat="48.853110" lon="1.992440">
						<ele>111</ele>
						<time>2026-04-14T10:32:46Z</time>
					</trkpt>
					<trkpt lat="48.853040" lon="1.992300">
						<ele>111</ele>
						<time>2026-04-14T10:32:48Z</time>
					</trkpt>
					<trkpt lat="48.852930" lon="1.992100">
						<ele>110</ele>
						<time>2026-04-14T10:32:51Z</time>
					</trkpt>
					<trkpt lat="48.852770" lon="1.991880">
						<ele>109</ele>
						<time>2026-04-14T10:32:55Z</time>
					</trkpt>
					<trkpt lat="48.852620" lon="1.991680">
						<ele>108</ele>
						<time>2026-04-14T10:32:58Z</time>
					</trkpt>
					<trkpt lat="48.852460" lon="1.991400">
						<ele>107</ele>
						<time>2026-04-14T10:33:02Z</time>
					</trkpt>
					<trkpt lat="48.852240" lon="1.990880">
						<ele>103</ele>
						<time>2026-04-14T10:33:10Z</time>
					</trkpt>
					<trkpt lat="48.852010" lon="1.990290">
						<ele>99</ele>
						<time>2026-04-14T10:33:18Z</time>
					</trkpt>
					<trkpt lat="48.851830" lon="1.989810">
						<ele>96</ele>
						<time>2026-04-14T10:33:24Z</time>
					</trkpt>
					<trkpt lat="48.851740" lon="1.989620">
						<ele>94</ele>
						<time>2026-04-14T10:33:27Z</time>
					</trkpt>
					<trkpt lat="48.851680" lon="1.989520">
						<ele>94</ele>
						<time>2026-04-14T10:33:29Z</time>
					</trkpt>
					<trkpt lat="48.851340" lon="1.989020">
						<ele>90</ele>
						<time>2026-04-14T10:33:37Z</time>
					</trkpt>
					<trkpt lat="48.851260" lon="1.988890">
						<ele>89</ele>
						<time>2026-04-14T10:33:39Z</time>
					</trkpt>
					<trkpt lat="48.851170" lon="1.988690">
						<ele>87</ele>
						<time>2026-04-14T10:33:42Z</time>
					</trkpt>
					<trkpt lat="48.851120" lon="1.988530">
						<ele>86</ele>
						<time>2026-04-14T10:33:44Z</time>
					</trkpt>
					<trkpt lat="48.851090" lon="1.988320">
						<ele>85</ele>
						<time>2026-04-14T10:33:46Z</time>
					</trkpt>
					<trkpt lat="48.851080" lon="1.988210">
						<ele>84</ele>
						<time>2026-04-14T10:33:48Z</time>
					</trkpt>
					<trkpt lat="48.851250" lon="1.988010">
						<ele>85</ele>
						<time>2026-04-14T10:33:52Z</time>
					</trkpt>
					<trkpt lat="48.851370" lon="1.987880">
						<ele>85</ele>
						<time>2026-04-14T10:33:54Z</time>
					</trkpt>
					<trkpt lat="48.851520" lon="1.987700">
						<ele>85</ele>
						<time>2026-04-14T10:33:58Z</time>
					</trkpt>
					<trkpt lat="48.851550" lon="1.987550">
						<ele>84</ele>
						<time>2026-04-14T10:33:59Z</time>
					</trkpt>
					<trkpt lat="48.851620" lon="1.987150">
						<ele>82</ele>
						<time>2026-04-14T10:34:04Z</time>
					</trkpt>
					<trkpt lat="48.851500" lon="1.986770">
						<ele>80</ele>
						<time>2026-04-14T10:34:09Z</time>
					</trkpt>
					<trkpt lat="48.851440" lon="1.986640">
						<ele>80</ele>
						<time>2026-04-14T10:34:11Z</time>
					</trkpt>
					<trkpt lat="48.851330" lon="1.986410">
						<ele>80</ele>
						<time>2026-04-14T10:34:14Z</time>
					</trkpt>
					<trkpt lat="48.851270" lon="1.986190">
						<ele>81</ele>
						<time>2026-04-14T10:34:17Z</time>
					</trkpt>
					<trkpt lat="48.851230" lon="1.985990">
						<ele>81</ele>
						<time>2026-04-14T10:34:20Z</time>
					</trkpt>
					<trkpt lat="48.851180" lon="1.985740">
						<ele>82</ele>
						<time>2026-04-14T10:34:23Z</time>
					</trkpt>
					<trkpt lat="48.851210" lon="1.985460">
						<ele>82</ele>
						<time>2026-04-14T10:34:26Z</time>
					</trkpt>
					<trkpt lat="48.851270" lon="1.985210">
						<ele>83</ele>
						<time>2026-04-14T10:34:29Z</time>
					</trkpt>
					<trkpt lat="48.851100" lon="1.985250">
						<ele>83</ele>
						<time>2026-04-14T10:34:32Z</time>
					</trkpt>
					<trkpt lat="48.850840" lon="1.985270">
						<ele>84</ele>
						<time>2026-04-14T10:34:37Z</time>
					</trkpt>
					<trkpt lat="48.850480" lon="1.985280">
						<ele>85</ele>
						<time>2026-04-14T10:34:43Z</time>
					</trkpt>
					<trkpt lat="48.850300" lon="1.985300">
						<ele>86</ele>
						<time>2026-04-14T10:34:46Z</time>
					</trkpt>
					<trkpt lat="48.850140" lon="1.985390">
						<ele>86</ele>
						<time>2026-04-14T10:34:50Z</time>
					</trkpt>
					<trkpt lat="48.850090" lon="1.985440">
						<ele>87</ele>
						<time>2026-04-14T10:34:51Z</time>
					</trkpt>
					<trkpt lat="48.849090" lon="1.986430">
						<ele>93</ele>
						<time>2026-04-14T10:35:12Z</time>
					</trkpt>
					<trkpt lat="48.848790" lon="1.986750">
						<ele>96</ele>
						<time>2026-04-14T10:35:18Z</time>
					</trkpt>
					<trkpt lat="48.848660" lon="1.986940">
						<ele>97</ele>
						<time>2026-04-14T10:35:22Z</time>
					</trkpt>
					<trkpt lat="48.848540" lon="1.987140">
						<ele>98</ele>
						<time>2026-04-14T10:35:25Z</time>
					</trkpt>
					<trkpt lat="48.848430" lon="1.987410">
						<ele>99</ele>
						<time>2026-04-14T10:35:28Z</time>
					</trkpt>
					<trkpt lat="48.848110" lon="1.988410">
						<ele>101</ele>
						<time>2026-04-14T10:35:41Z</time>
					</trkpt>
					<trkpt lat="48.848030" lon="1.988630">
						<ele>101</ele>
						<time>2026-04-14T10:35:44Z</time>
					</trkpt>
					<trkpt lat="48.847940" lon="1.988800">
						<ele>101</ele>
						<time>2026-04-14T10:35:47Z</time>
					</trkpt>
					<trkpt lat="48.847830" lon="1.988950">
						<ele>102</ele>
						<time>2026-04-14T10:35:50Z</time>
					</trkpt>
					<trkpt lat="48.847720" lon="1.989070">
						<ele>103</ele>
						<time>2026-04-14T10:35:52Z</time>
					</trkpt>
					<trkpt lat="48.847610" lon="1.989150">
						<ele>104</ele>
						<time>2026-04-14T10:35:54Z</time>
					</trkpt>
					<trkpt lat="48.847500" lon="1.989210">
						<ele>105</ele>
						<time>2026-04-14T10:35:56Z</time>
					</trkpt>
					<trkpt lat="48.847330" lon="1.989270">
						<ele>106</ele>
						<time>2026-04-14T10:35:59Z</time>
					</trkpt>
					<trkpt lat="48.846670" lon="1.989340">
						<ele>110</ele>
						<time>2026-04-14T10:36:11Z</time>
					</trkpt>
					<trkpt lat="48.846430" lon="1.989330">
						<ele>112</ele>
						<time>2026-04-14T10:36:15Z</time>
					</trkpt>
					<trkpt lat="48.846210" lon="1.989270">
						<ele>114</ele>
						<time>2026-04-14T10:36:19Z</time>
					</trkpt>
					<trkpt lat="48.846010" lon="1.989140">
						<ele>116</ele>
						<time>2026-04-14T10:36:23Z</time>
					</trkpt>
					<trkpt lat="48.845900" lon="1.989040">
						<ele>117</ele>
						<time>2026-04-14T10:36:26Z</time>
					</trkpt>
					<trkpt lat="48.845800" lon="1.988910">
						<ele>117</ele>
						<time>2026-04-14T10:36:28Z</time>
					</trkpt>
					<trkpt lat="48.845720" lon="1.988760">
						<ele>118</ele>
						<time>2026-04-14T10:36:30Z</time>
					</trkpt>
					<trkpt lat="48.845490" lon="1.988270">
						<ele>119</ele>
						<time>2026-04-14T10:36:37Z</time>
					</trkpt>
					<trkpt lat="48.845400" lon="1.988120">
						<ele>119</ele>
						<time>2026-04-14T10:36:40Z</time>
					</trkpt>
					<trkpt lat="48.845270" lon="1.987920">
						<ele>120</ele>
						<time>2026-04-14T10:36:43Z</time>
					</trkpt>
					<trkpt lat="48.845220" lon="1.987870">
						<ele>120</ele>
						<time>2026-04-14T10:36:44Z</time>
					</trkpt>
					<trkpt lat="48.845080" lon="1.987750">
						<ele>120</ele>
						<time>2026-04-14T10:36:47Z</time>
					</trkpt>
					<trkpt lat="48.844940" lon="1.987660">
						<ele>120</ele>
						<time>2026-04-14T10:36:49Z</time>
					</trkpt>
					<trkpt lat="48.844420" lon="1.987440">
						<ele>122</ele>
						<time>2026-04-14T10:36:59Z</time>
					</trkpt>
					<trkpt lat="48.843270" lon="1.987000">
						<ele>126</ele>
						<time>2026-04-14T10:37:20Z</time>
					</trkpt>
					<trkpt lat="48.842250" lon="1.986510">
						<ele>125</ele>
						<time>2026-04-14T10:37:39Z</time>
					</trkpt>
					<trkpt lat="48.841550" lon="1.986150">
						<ele>125</ele>
						<time>2026-04-14T10:37:52Z</time>
					</trkpt>
					<trkpt lat="48.839880" lon="1.985150">
						<ele>123</ele>
						<time>2026-04-14T10:38:24Z</time>
					</trkpt>
					<trkpt lat="48.838780" lon="1.984510">
						<ele>123</ele>
						<time>2026-04-14T10:38:45Z</time>
					</trkpt>
					<trkpt lat="48.838510" lon="1.984380">
						<ele>122</ele>
						<time>2026-04-14T10:38:50Z</time>
					</trkpt>
					<trkpt lat="48.838440" lon="1.984350">
						<ele>122</ele>
						<time>2026-04-14T10:38:52Z</time>
					</trkpt>
					<trkpt lat="48.837340" lon="1.984120">
						<ele>122</ele>
						<time>2026-04-14T10:39:11Z</time>
					</trkpt>
					<trkpt lat="48.835470" lon="1.983820">
						<ele>121</ele>
						<time>2026-04-14T10:39:45Z</time>
					</trkpt>
					<trkpt lat="48.834790" lon="1.983730">
						<ele>122</ele>
						<time>2026-04-14T10:39:57Z</time>
					</trkpt>
					<trkpt lat="48.833660" lon="1.983670">
						<ele>122</ele>
						<time>2026-04-14T10:40:17Z</time>
					</trkpt>
					<trkpt lat="48.833550" lon="1.983720">
						<ele>122</ele>
						<time>2026-04-14T10:40:19Z</time>
					</trkpt>
					<trkpt lat="48.833450" lon="1.983780">
						<ele>121</ele>
						<time>2026-04-14T10:40:21Z</time>
					</trkpt>
					<trkpt lat="48.833420" lon="1.983750">
						<ele>122</ele>
						<time>2026-04-14T10:40:22Z</time>
					</trkpt>
					<trkpt lat="48.833370" lon="1.983750">
						<ele>122</ele>
						<time>2026-04-14T10:40:23Z</time>
					</trkpt>
					<trkpt lat="48.833340" lon="1.983790">
						<ele>121</ele>
						<time>2026-04-14T10:40:23Z</time>
					</trkpt>
					<trkpt lat="48.833280" lon="1.983740">
						<ele>122</ele>
						<time>2026-04-14T10:40:24Z</time>
					</trkpt>
					<trkpt lat="48.833190" lon="1.983670">
						<ele>122</ele>
						<time>2026-04-14T10:40:26Z</time>
					</trkpt>
					<trkpt lat="48.832990" lon="1.983620">
						<ele>123</ele>
						<time>2026-04-14T10:40:30Z</time>
					</trkpt>
					<trkpt lat="48.832840" lon="1.983610">
						<ele>123</ele>
						<time>2026-04-14T10:40:33Z</time>
					</trkpt>
					<trkpt lat="48.832660" lon="1.983610">
						<ele>124</ele>
						<time>2026-04-14T10:40:36Z</time>
					</trkpt>
					<trkpt lat="48.831630" lon="1.983550">
						<ele>124</ele>
						<time>2026-04-14T10:40:54Z</time>
					</trkpt>
					<trkpt lat="48.830190" lon="1.983610">
						<ele>123</ele>
						<time>2026-04-14T10:41:20Z</time>
					</trkpt>
					<trkpt lat="48.829960" lon="1.983600">
						<ele>123</ele>
						<time>2026-04-14T10:41:24Z</time>
					</trkpt>
					<trkpt lat="48.829980" lon="1.983840">
						<ele>124</ele>
						<time>2026-04-14T10:41:27Z</time>
					</trkpt>
					<trkpt lat="48.829980" lon="1.984680">
						<ele>122</ele>
						<time>2026-04-14T10:41:36Z</time>
					</trkpt>
					<trkpt lat="48.830000" lon="1.985460">
						<ele>122</ele>
						<time>2026-04-14T10:41:46Z</time>
					</trkpt>
					<trkpt lat="48.830000" lon="1.985780">
						<ele>122</ele>
						<time>2026-04-14T10:41:49Z</time>
					</trkpt>
					<trkpt lat="48.830020" lon="1.986520">
						<ele>121</ele>
						<time>2026-04-14T10:41:58Z</time>
					</trkpt>
					<trkpt lat="48.829950" lon="1.986670">
						<ele>121</ele>
						<time>2026-04-14T10:42:00Z</time>
					</trkpt>
					<trkpt lat="48.829930" lon="1.986680">
						<ele>121</ele>
						<time>2026-04-14T10:42:01Z</time>
					</trkpt>
					<trkpt lat="48.829910" lon="1.986730">
						<ele>121</ele>
						<time>2026-04-14T10:42:01Z</time>
					</trkpt>
					<trkpt lat="48.829900" lon="1.986760">
						<ele>121</ele>
						<time>2026-04-14T10:42:02Z</time>
					</trkpt>
					<trkpt lat="48.829910" lon="1.986810">
						<ele>121</ele>
						<time>2026-04-14T10:42:02Z</time>
					</trkpt>
					<trkpt lat="48.829930" lon="1.986850">
						<ele>121</ele>
						<time>2026-04-14T10:42:03Z</time>
					</trkpt>
					<trkpt lat="48.829950" lon="1.986870">
						<ele>121</ele>
						<time>2026-04-14T10:42:03Z</time>
					</trkpt>
					<trkpt lat="48.829970" lon="1.986870">
						<ele>121</ele>
						<time>2026-04-14T10:42:04Z</time>
					</trkpt>
					<trkpt lat="48.830010" lon="1.986850">
						<ele>121</ele>
						<time>2026-04-14T10:42:04Z</time>
					</trkpt>
					<trkpt lat="48.830020" lon="1.987950">
						<ele>120</ele>
						<time>2026-04-14T10:42:17Z</time>
					</trkpt>
					<trkpt lat="48.830030" lon="1.988970">
						<ele>119</ele>
						<time>2026-04-14T10:42:29Z</time>
					</trkpt>
					<trkpt lat="48.830050" lon="1.990130">
						<ele>119</ele>
						<time>2026-04-14T10:42:43Z</time>
					</trkpt>
					<trkpt lat="48.830060" lon="1.991120">
						<ele>118</ele>
						<time>2026-04-14T10:42:54Z</time>
					</trkpt>
					<trkpt lat="48.830060" lon="1.991300">
						<ele>118</ele>
						<time>2026-04-14T10:42:57Z</time>
					</trkpt>
					<trkpt lat="48.830060" lon="1.991370">
						<ele>118</ele>
						<time>2026-04-14T10:42:57Z</time>
					</trkpt>
					<trkpt lat="48.830080" lon="1.992180">
						<ele>118</ele>
						<time>2026-04-14T10:43:07Z</time>
					</trkpt>
					<trkpt lat="48.830080" lon="1.992370">
						<ele>119</ele>
						<time>2026-04-14T10:43:09Z</time>
					</trkpt>
					<trkpt lat="48.830080" lon="1.992810">
						<ele>119</ele>
						<time>2026-04-14T10:43:14Z</time>
					</trkpt>
					<trkpt lat="48.830080" lon="1.992990">
						<ele>119</ele>
						<time>2026-04-14T10:43:16Z</time>
					</trkpt>
					<trkpt lat="48.830090" lon="1.993280">
						<ele>120</ele>
						<time>2026-04-14T10:43:20Z</time>
					</trkpt>
					<trkpt lat="48.830090" lon="1.993500">
						<ele>120</ele>
						<time>2026-04-14T10:43:22Z</time>
					</trkpt>
					<trkpt lat="48.830090" lon="1.993530">
						<ele>119</ele>
						<time>2026-04-14T10:43:23Z</time>
					</trkpt>
					<trkpt lat="48.830090" lon="1.993590">
						<ele>119</ele>
						<time>2026-04-14T10:43:23Z</time>
					</trkpt>
					<trkpt lat="48.830090" lon="1.993850">
						<ele>119</ele>
						<time>2026-04-14T10:43:26Z</time>
					</trkpt>
					<trkpt lat="48.830100" lon="1.993990">
						<ele>119</ele>
						<time>2026-04-14T10:43:28Z</time>
					</trkpt>
					<trkpt lat="48.830100" lon="1.994130">
						<ele>119</ele>
						<time>2026-04-14T10:43:30Z</time>
					</trkpt>
					<trkpt lat="48.830100" lon="1.994490">
						<ele>118</ele>
						<time>2026-04-14T10:43:34Z</time>
					</trkpt>
					<trkpt lat="48.830100" lon="1.994610">
						<ele>117</ele>
						<time>2026-04-14T10:43:35Z</time>
					</trkpt>
					<trkpt lat="48.830110" lon="1.994900">
						<ele>117</ele>
						<time>2026-04-14T10:43:39Z</time>
					</trkpt>
					<trkpt lat="48.830110" lon="1.995050">
						<ele>116</ele>
						<time>2026-04-14T10:43:40Z</time>
					</trkpt>
					<trkpt lat="48.830070" lon="1.995290">
						<ele>115</ele>
						<time>2026-04-14T10:43:43Z</time>
					</trkpt>
					<trkpt lat="48.830010" lon="1.995340">
						<ele>115</ele>
						<time>2026-04-14T10:43:45Z</time>
					</trkpt>
					<trkpt lat="48.829970" lon="1.995430">
						<ele>115</ele>
						<time>2026-04-14T10:43:46Z</time>
					</trkpt>
					<trkpt lat="48.829960" lon="1.995480">
						<ele>115</ele>
						<time>2026-04-14T10:43:46Z</time>
					</trkpt>
					<trkpt lat="48.829960" lon="1.995560">
						<ele>115</ele>
						<time>2026-04-14T10:43:47Z</time>
					</trkpt>
					<trkpt lat="48.829980" lon="1.995630">
						<ele>114</ele>
						<time>2026-04-14T10:43:48Z</time>
					</trkpt>
					<trkpt lat="48.830010" lon="1.995680">
						<ele>114</ele>
						<time>2026-04-14T10:43:49Z</time>
					</trkpt>
					<trkpt lat="48.830040" lon="1.995730">
						<ele>114</ele>
						<time>2026-04-14T10:43:50Z</time>
					</trkpt>
					<trkpt lat="48.830070" lon="1.996190">
						<ele>113</ele>
						<time>2026-04-14T10:43:55Z</time>
					</trkpt>
					<trkpt lat="48.830070" lon="1.996270">
						<ele>113</ele>
						<time>2026-04-14T10:43:56Z</time>
					</trkpt>
					<trkpt lat="48.830230" lon="1.996900">
						<ele>113</ele>
						<time>2026-04-14T10:44:04Z</time>
					</trkpt>
					<trkpt lat="48.830230" lon="1.997340">
						<ele>112</ele>
						<time>2026-04-14T10:44:09Z</time>
					</trkpt>
					<trkpt lat="48.830280" lon="1.997490">
						<ele>112</ele>
						<time>2026-04-14T10:44:11Z</time>
					</trkpt>
					<trkpt lat="48.830440" lon="1.997680">
						<ele>112</ele>
						<time>2026-04-14T10:44:15Z</time>
					</trkpt>
					<trkpt lat="48.830470" lon="1.997740">
						<ele>112</ele>
						<time>2026-04-14T10:44:16Z</time>
					</trkpt>
					<trkpt lat="48.830510" lon="1.997870">
						<ele>112</ele>
						<time>2026-04-14T10:44:17Z</time>
					</trkpt>
					<trkpt lat="48.830550" lon="1.997990">
						<ele>112</ele>
						<time>2026-04-14T10:44:19Z</time>
					</trkpt>
					<trkpt lat="48.830690" lon="1.998430">
						<ele>112</ele>
						<time>2026-04-14T10:44:25Z</time>
					</trkpt>
					<trkpt lat="48.830800" lon="1.998740">
						<ele>112</ele>
						<time>2026-04-14T10:44:29Z</time>
					</trkpt>
					<trkpt lat="48.830800" lon="1.998790">
						<ele>112</ele>
						<time>2026-04-14T10:44:29Z</time>
					</trkpt>
					<trkpt lat="48.830960" lon="1.999090">
						<ele>112</ele>
						<time>2026-04-14T10:44:34Z</time>
					</trkpt>
					<trkpt lat="48.830990" lon="1.999100">
						<ele>112</ele>
						<time>2026-04-14T10:44:35Z</time>
					</trkpt>
					<trkpt lat="48.831080" lon="1.999270">
						<ele>112</ele>
						<time>2026-04-14T10:44:37Z</time>
					</trkpt>
					<trkpt lat="48.831240" lon="1.999550">
						<ele>113</ele>
						<time>2026-04-14T10:44:41Z</time>
					</trkpt>
					<trkpt lat="48.831240" lon="1.999650">
						<ele>113</ele>
						<time>2026-04-14T10:44:43Z</time>
					</trkpt>
					<trkpt lat="48.831270" lon="1.999700">
						<ele>113</ele>
						<time>2026-04-14T10:44:43Z</time>
					</trkpt>
					<trkpt lat="48.831260" lon="1.999710">
						<ele>113</ele>
						<time>2026-04-14T10:44:44Z</time>
					</trkpt>
					<trkpt lat="48.830870" lon="2.000220">
						<ele>112</ele>
						<time>2026-04-14T10:44:53Z</time>
					</trkpt>
					<trkpt lat="48.830840" lon="2.000250">
						<ele>112</ele>
						<time>2026-04-14T10:44:53Z</time>
					</trkpt>
					<trkpt lat="48.830570" lon="2.000620">
						<ele>113</ele>
						<time>2026-04-14T10:45:00Z</time>
					</trkpt>
					<trkpt lat="48.830560" lon="2.000640">
						<ele>113</ele>
						<time>2026-04-14T10:45:00Z</time>
					</trkpt>
					<trkpt lat="48.830530" lon="2.000680">
						<ele>113</ele>
						<time>2026-04-14T10:45:01Z</time>
					</trkpt>
					<trkpt lat="48.830510" lon="2.000710">
						<ele>113</ele>
						<time>2026-04-14T10:45:01Z</time>
					</trkpt>
					<trkpt lat="48.830440" lon="2.000800">
						<ele>113</ele>
						<time>2026-04-14T10:45:03Z</time>
					</trkpt>
					</trkseg>
				</trk>
			</gpx>